Wetterdaten: Samstag, 30.01.2021
Datum Zeit Temp. 2m Temp +5 cm Feuchte A. Luftdruck Regen Wind Richtung Richtung Sonnenschein UV Solar Taupunkt Windchill Windben
30.01.2021 00:00 4,8 C 3,9 C 91 % 1002,7 hPa 0,0 l/m 16,1 km/h (3 Bft) SW 225 0 min 0,0 UV-I 0 W/m 3,5 C -1,7 C 25,7 km/h (4 Bft)
30.01.2021 00:01 4,9 C 3,9 C 91 % 1002,8 hPa 0,0 l/m 12,9 km/h (3 Bft) SW 225 0 min 0,0 UV-I 0 W/m 3,6 C 0,1 C 20,9 km/h (4 Bft)
30.01.2021 00:02 4,9 C 3,9 C 91 % 1002,8 hPa 0,0 l/m 9,7 km/h (2 Bft) SW 225 0 min 0,0 UV-I 0 W/m 3,6 C 2,2 C 17,7 km/h (3 Bft)
30.01.2021 00:03 4,8 C 3,9 C 91 % 1002,8 hPa 0,0 l/m 12,9 km/h (3 Bft) W 270 0 min 0,0 UV-I 0 W/m 3,5 C -0,0 C 17,7 km/h (3 Bft)
30.01.2021 00:04 4,8 C 3,9 C 91 % 1002,9 hPa 0,0 l/m 14,5 km/h (3 Bft) SW 225 0 min 0,0 UV-I 0 W/m 3,5 C -0,9 C 19,3 km/h (3 Bft)
30.01.2021 00:05 4,8 C 3,9 C 91 % 1002,8 hPa 0,0 l/m 9,7 km/h (2 Bft) SW 225 0 min 0,0 UV-I 0 W/m 3,5 C 2,1 C 17,7 km/h (3 Bft)
30.01.2021 00:06 4,8 C 3,9 C 91 % 1002,8 hPa 0,0 l/m 8,0 km/h (2 Bft) SW 225 0 min 0,0 UV-I 0 W/m 3,5 C 3,4 C 14,5 km/h (3 Bft)
30.01.2021 00:07 4,9 C 3,9 C 91 % 1002,8 hPa 0,0 l/m 9,7 km/h (2 Bft) W-SW 247 0 min 0,0 UV-I 0 W/m 3,6 C 2,2 C 17,7 km/h (3 Bft)
30.01.2021 00:08 4,8 C 3,9 C 91 % 1002,9 hPa 0,0 l/m 14,5 km/h (3 Bft) W-SW 247 0 min 0,0 UV-I 0 W/m 3,5 C -0,9 C 22,5 km/h (4 Bft)
30.01.2021 00:09 4,8 C 3,9 C 91 % 1002,8 hPa 0,0 l/m 17,7 km/h (3 Bft) S-SW 202 0 min 0,0 UV-I 0 W/m 3,5 C -2,5 C 25,7 km/h (4 Bft)
30.01.2021 00:10 4,8 C 3,9 C 92 % 1002,9 hPa 0,0 l/m 16,1 km/h (3 Bft) W-SW 247 0 min 0,0 UV-I 0 W/m 3,6 C -1,7 C 29,0 km/h (5 Bft)
30.01.2021 00:11 4,8 C 3,9 C 91 % 1002,8 hPa 0,0 l/m 14,5 km/h (3 Bft) W-SW 247 0 min 0,0 UV-I 0 W/m 3,5 C -0,9 C 22,5 km/h (4 Bft)
30.01.2021 00:12 4,8 C 3,9 C 91 % 1002,9 hPa 0,0 l/m 11,3 km/h (2 Bft) SW 225 0 min 0,0 UV-I 0 W/m 3,5 C 1,0 C 19,3 km/h (3 Bft)
30.01.2021 00:13 4,8 C 3,9 C 92 % 1003,0 hPa 0,0 l/m 17,7 km/h (3 Bft) W-SW 247 0 min 0,0 UV-I 0 W/m 3,6 C -2,5 C 24,1 km/h (4 Bft)
30.01.2021 00:14 4,8 C 3,9 C 92 % 1002,9 hPa 0,0 l/m 12,9 km/h (3 Bft) SW 225 0 min 0,0 UV-I 0 W/m 3,6 C -0,0 C 20,9 km/h (4 Bft)
30.01.2021 00:15 4,8 C 3,9 C 92 % 1002,9 hPa 0,2 l/m 12,9 km/h (3 Bft) W-SW 247 0 min 0,0 UV-I 0 W/m 3,6 C -0,0 C 17,7 km/h (3 Bft)
30.01.2021 00:16 4,8 C 3,9 C 92 % 1003,0 hPa 0,0 l/m 17,7 km/h (3 Bft) W-SW 247 0 min 0,0 UV-I 0 W/m 3,6 C -2,5 C 25,7 km/h (4 Bft)
30.01.2021 00:17 4,8 C 3,9 C 92 % 1002,9 hPa 0,0 l/m 16,1 km/h (3 Bft) W-SW 247 0 min 0,0 UV-I 0 W/m 3,6 C -1,7 C 24,1 km/h (4 Bft)
30.01.2021 00:18 4,8 C 3,9 C 92 % 1002,9 hPa 0,0 l/m 16,1 km/h (3 Bft) SW 225 0 min 0,0 UV-I 0 W/m 3,6 C -1,7 C 25,7 km/h (4 Bft)
30.01.2021 00:19 4,7 C 3,9 C 91 % 1002,9 hPa 0,0 l/m 11,3 km/h (2 Bft) SW 225 0 min 0,0 UV-I 0 W/m 3,4 C 0,9 C 20,9 km/h (4 Bft)
30.01.2021 00:20 4,7 C 3,9 C 92 % 1002,9 hPa 0,0 l/m 14,5 km/h (3 Bft) W-SW 247 0 min 0,0 UV-I 0 W/m 3,5 C -1,0 C 24,1 km/h (4 Bft)
30.01.2021 00:21 4,7 C 3,9 C 92 % 1002,8 hPa 0,0 l/m 17,7 km/h (3 Bft) W-SW 247 0 min 0,0 UV-I 0 W/m 3,5 C -2,6 C 25,7 km/h (4 Bft)
30.01.2021 00:22 4,7 C 3,9 C 92 % 1002,9 hPa 0,0 l/m 12,9 km/h (3 Bft) SW 225 0 min 0,0 UV-I 0 W/m 3,5 C -0,1 C 22,5 km/h (4 Bft)
30.01.2021 00:23 4,7 C 3,3 C 92 % 1002,9 hPa 0,0 l/m 9,7 km/h (2 Bft) W-SW 247 0 min 0,0 UV-I 0 W/m 3,5 C 2,0 C 17,7 km/h (3 Bft)
30.01.2021 00:24 4,7 C 3,3 C 92 % 1002,9 hPa 0,0 l/m 8,0 km/h (2 Bft) W-SW 247 0 min 0,0 UV-I 0 W/m 3,5 C 3,3 C 14,5 km/h (3 Bft)
30.01.2021 00:25 4,7 C 3,3 C 92 % 1002,9 hPa 0,0 l/m 9,7 km/h (2 Bft) SW 225 0 min 0,0 UV-I 0 W/m 3,5 C 2,0 C 19,3 km/h (3 Bft)
30.01.2021 00:26 4,7 C 3,3 C 92 % 1002,8 hPa 0,0 l/m 16,1 km/h (3 Bft) W 270 0 min 0,0 UV-I 0 W/m 3,5 C -1,8 C 22,5 km/h (4 Bft)
30.01.2021 00:27 4,7 C 3,3 C 92 % 1003,0 hPa 0,0 l/m 11,3 km/h (2 Bft) W-SW 247 0 min 0,0 UV-I 0 W/m 3,5 C 0,9 C 20,9 km/h (4 Bft)
30.01.2021 00:28 4,6 C 3,3 C 92 % 1002,8 hPa 0,0 l/m 9,7 km/h (2 Bft) SW 225 0 min 0,0 UV-I 0 W/m 3,4 C 1,8 C 16,1 km/h (3 Bft)
30.01.2021 00:29 4,6 C 3,3 C 92 % 1002,9 hPa 0,0 l/m 9,7 km/h (2 Bft) SW 225 0 min 0,0 UV-I 0 W/m 3,4 C 1,8 C 14,5 km/h (3 Bft)
30.01.2021 00:30 4,6 C 3,3 C 92 % 1002,8 hPa 0,0 l/m 12,9 km/h (3 Bft) SW 225 0 min 0,0 UV-I 0 W/m 3,4 C -0,2 C 20,9 km/h (4 Bft)
30.01.2021 00:31 4,6 C 3,3 C 92 % 1002,8 hPa 0,0 l/m 12,9 km/h (3 Bft) W-SW 247 0 min 0,0 UV-I 0 W/m 3,4 C -0,2 C 19,3 km/h (3 Bft)
30.01.2021 00:32 4,6 C 3,3 C 92 % 1002,8 hPa 0,0 l/m 11,3 km/h (2 Bft) S-SW 202 0 min 0,0 UV-I 0 W/m 3,4 C 0,7 C 19,3 km/h (3 Bft)
30.01.2021 00:33 4,6 C 3,3 C 92 % 1002,9 hPa 0,0 l/m 9,7 km/h (2 Bft) SW 225 0 min 0,0 UV-I 0 W/m 3,4 C 1,8 C 16,1 km/h (3 Bft)
30.01.2021 00:34 4,6 C 3,9 C 92 % 1002,8 hPa 0,0 l/m 12,9 km/h (3 Bft) S-SW 202 0 min 0,0 UV-I 0 W/m 3,4 C -0,2 C 17,7 km/h (3 Bft)
30.01.2021 00:35 4,6 C 3,9 C 92 % 1002,9 hPa 0,0 l/m 12,9 km/h (3 Bft) W-SW 247 0 min 0,0 UV-I 0 W/m 3,4 C -0,2 C 22,5 km/h (4 Bft)
30.01.2021 00:36 4,6 C 3,9 C 92 % 1002,9 hPa 0,0 l/m 9,7 km/h (2 Bft) SW 225 0 min 0,0 UV-I 0 W/m 3,4 C 1,8 C 17,7 km/h (3 Bft)
30.01.2021 00:37 4,6 C 3,9 C 92 % 1002,8 hPa 0,0 l/m 8,0 km/h (2 Bft) SW 225 0 min 0,0 UV-I 0 W/m 3,4 C 3,2 C 11,3 km/h (2 Bft)
30.01.2021 00:38 4,6 C 3,9 C 92 % 1003,0 hPa 0,0 l/m 6,4 km/h (2 Bft) SW 225 0 min 0,0 UV-I 0 W/m 3,4 C 4,6 C 9,7 km/h (2 Bft)
30.01.2021 00:39 4,6 C 3,9 C 92 % 1002,9 hPa 0,0 l/m 6,4 km/h (2 Bft) SW 225 0 min 0,0 UV-I 0 W/m 3,4 C 4,6 C 12,9 km/h (3 Bft)
30.01.2021 00:40 4,6 C 3,9 C 92 % 1002,8 hPa 0,0 l/m 9,7 km/h (2 Bft) W-SW 247 0 min 0,0 UV-I 0 W/m 3,4 C 1,8 C 16,1 km/h (3 Bft)
30.01.2021 00:41 4,6 C 3,9 C 92 % 1002,9 hPa 0,0 l/m 8,0 km/h (2 Bft) W-SW 247 0 min 0,0 UV-I 0 W/m 3,4 C 3,2 C 11,3 km/h (2 Bft)
30.01.2021 00:42 4,6 C 3,9 C 92 % 1002,8 hPa 0,0 l/m 9,7 km/h (2 Bft) SW 225 0 min 0,0 UV-I 0 W/m 3,4 C 1,8 C 16,1 km/h (3 Bft)
30.01.2021 00:43 4,6 C 3,9 C 92 % 1002,9 hPa 0,0 l/m 9,7 km/h (2 Bft) W-SW 247 0 min 0,0 UV-I 0 W/m 3,4 C 1,8 C 14,5 km/h (3 Bft)
30.01.2021 00:44 4,6 C 3,9 C 92 % 1002,8 hPa 0,2 l/m 14,5 km/h (3 Bft) SW 225 0 min 0,0 UV-I 0 W/m 3,4 C -1,1 C 24,1 km/h (4 Bft)
30.01.2021 00:45 4,6 C 3,9 C 93 % 1002,8 hPa 0,0 l/m 14,5 km/h (3 Bft) W 270 0 min 0,0 UV-I 0 W/m 3,6 C -1,1 C 19,3 km/h (3 Bft)
30.01.2021 00:46 4,6 C 3,9 C 93 % 1002,8 hPa 0,0 l/m 11,3 km/h (2 Bft) SW 225 0 min 0,0 UV-I 0 W/m 3,6 C 0,7 C 17,7 km/h (3 Bft)
30.01.2021 00:47 4,7 C 3,9 C 92 % 1002,8 hPa 0,0 l/m 12,9 km/h (3 Bft) W-SW 247 0 min 0,0 UV-I 0 W/m 3,5 C -0,1 C 17,7 km/h (3 Bft)
30.01.2021 00:48 4,6 C 3,9 C 93 % 1002,8 hPa 0,0 l/m 9,7 km/h (2 Bft) SW 225 0 min 0,0 UV-I 0 W/m 3,6 C 1,8 C 17,7 km/h (3 Bft)
30.01.2021 00:49 4,7 C 3,9 C 93 % 1002,9 hPa 0,0 l/m 14,5 km/h (3 Bft) W-SW 247 0 min 0,0 UV-I 0 W/m 3,7 C -1,0 C 20,9 km/h (4 Bft)
30.01.2021 00:50 4,7 C 3,9 C 93 % 1002,7 hPa 0,0 l/m 11,3 km/h (2 Bft) W-SW 247 0 min 0,0 UV-I 0 W/m 3,7 C 0,9 C 16,1 km/h (3 Bft)
30.01.2021 00:51 4,6 C 3,9 C 93 % 1002,8 hPa 0,0 l/m 12,9 km/h (3 Bft) W-SW 247 0 min 0,0 UV-I 0 W/m 3,6 C -0,2 C 17,7 km/h (3 Bft)
30.01.2021 00:52 4,7 C 3,9 C 93 % 1002,7 hPa 0,0 l/m 11,3 km/h (2 Bft) SW 225 0 min 0,0 UV-I 0 W/m 3,7 C 0,9 C 22,5 km/h (4 Bft)
30.01.2021 00:53 4,7 C 3,9 C 93 % 1002,7 hPa 0,0 l/m 12,9 km/h (3 Bft) W-SW 247 0 min 0,0 UV-I 0 W/m 3,7 C -0,1 C 20,9 km/h (4 Bft)
30.01.2021 00:54 4,7 C 3,9 C 93 % 1002,7 hPa 0,0 l/m 11,3 km/h (2 Bft) SW 225 0 min 0,0 UV-I 0 W/m 3,7 C 0,9 C 19,3 km/h (3 Bft)
30.01.2021 00:55 4,7 C 3,9 C 93 % 1002,7 hPa 0,0 l/m 6,4 km/h (2 Bft) SW 225 0 min 0,0 UV-I 0 W/m 3,7 C 4,7 C 11,3 km/h (2 Bft)
30.01.2021 00:56 4,7 C 3,9 C 93 % 1002,7 hPa 0,0 l/m 8,0 km/h (2 Bft) W-SW 247 0 min 0,0 UV-I 0 W/m 3,7 C 3,3 C 12,9 km/h (3 Bft)
30.01.2021 00:57 4,7 C 3,9 C 93 % 1002,8 hPa 0,0 l/m 16,1 km/h (3 Bft) W-SW 247 0 min 0,0 UV-I 0 W/m 3,7 C -1,8 C 25,7 km/h (4 Bft)
30.01.2021 00:58 4,7 C 3,9 C 93 % 1002,7 hPa 0,0 l/m 4,8 km/h (1 Bft) SW 225 0 min 0,0 UV-I 0 W/m 3,7 C 4,7 C 6,4 km/h (2 Bft)
30.01.2021 00:59 4,7 C 3,9 C 93 % 1002,7 hPa 0,0 l/m 11,3 km/h (2 Bft) W-SW 247 0 min 0,0 UV-I 0 W/m 3,7 C 0,9 C 16,1 km/h (3 Bft)
30.01.2021 01:00 4,7 C 3,9 C 93 % 1002,7 hPa 0,0 l/m 9,7 km/h (2 Bft) S-SW 202 0 min 0,0 UV-I 0 W/m 3,7 C 2,0 C 16,1 km/h (3 Bft)
30.01.2021 01:01 4,7 C 3,9 C 93 % 1002,7 hPa 0,0 l/m 12,9 km/h (3 Bft) W 270 0 min 0,0 UV-I 0 W/m 3,7 C -0,1 C 17,7 km/h (3 Bft)
30.01.2021 01:02 4,7 C 3,9 C 93 % 1002,7 hPa 0,0 l/m 16,1 km/h (3 Bft) SW 225 0 min 0,0 UV-I 0 W/m 3,7 C -1,8 C 24,1 km/h (4 Bft)
30.01.2021 01:03 4,7 C 3,9 C 93 % 1002,7 hPa 0,0 l/m 9,7 km/h (2 Bft) SW 225 0 min 0,0 UV-I 0 W/m 3,7 C 2,0 C 19,3 km/h (3 Bft)
30.01.2021 01:04 4,7 C 3,9 C 93 % 1002,7 hPa 0,0 l/m 9,7 km/h (2 Bft) SW 225 0 min 0,0 UV-I 0 W/m 3,7 C 2,0 C 16,1 km/h (3 Bft)
30.01.2021 01:05 4,7 C 3,9 C 93 % 1002,7 hPa 0,0 l/m 12,9 km/h (3 Bft) W-SW 247 0 min 0,0 UV-I 0 W/m 3,7 C -0,1 C 22,5 km/h (4 Bft)
30.01.2021 01:06 4,6 C 3,9 C 93 % 1002,7 hPa 0,0 l/m 12,9 km/h (3 Bft) SW 225 0 min 0,0 UV-I 0 W/m 3,6 C -0,2 C 17,7 km/h (3 Bft)
30.01.2021 01:07 4,6 C 3,9 C 93 % 1002,6 hPa 0,0 l/m 14,5 km/h (3 Bft) SW 225 0 min 0,0 UV-I 0 W/m 3,6 C -1,1 C 19,3 km/h (3 Bft)
30.01.2021 01:08 4,6 C 3,9 C 93 % 1002,6 hPa 0,0 l/m 11,3 km/h (2 Bft) SW 225 0 min 0,0 UV-I 0 W/m 3,6 C 0,7 C 19,3 km/h (3 Bft)
30.01.2021 01:09 4,6 C 3,9 C 93 % 1002,6 hPa 0,0 l/m 12,9 km/h (3 Bft) W-SW 247 0 min 0,0 UV-I 0 W/m 3,6 C -0,2 C 20,9 km/h (4 Bft)
30.01.2021 01:10 4,6 C 3,9 C 93 % 1002,6 hPa 0,0 l/m 11,3 km/h (2 Bft) W-SW 247 0 min 0,0 UV-I 0 W/m 3,6 C 0,7 C 16,1 km/h (3 Bft)
30.01.2021 01:11 4,6 C 3,9 C 93 % 1002,6 hPa 0,0 l/m 11,3 km/h (2 Bft) W 270 0 min 0,0 UV-I 0 W/m 3,6 C 0,7 C 16,1 km/h (3 Bft)
30.01.2021 01:12 4,6 C 3,3 C 93 % 1002,6 hPa 0,0 l/m 11,3 km/h (2 Bft) W-SW 247 0 min 0,0 UV-I 0 W/m 3,6 C 0,7 C 16,1 km/h (3 Bft)
30.01.2021 01:13 4,6 C 3,3 C 93 % 1002,6 hPa 0,0 l/m 12,9 km/h (3 Bft) W 270 0 min 0,0 UV-I 0 W/m 3,6 C -0,2 C 22,5 km/h (4 Bft)
30.01.2021 01:14 4,5 C 3,3 C 93 % 1002,7 hPa 0,0 l/m 14,5 km/h (3 Bft) W-SW 247 0 min 0,0 UV-I 0 W/m 3,5 C -1,3 C 22,5 km/h (4 Bft)
30.01.2021 01:15 4,5 C 3,3 C 92 % 1002,7 hPa 0,0 l/m 11,3 km/h (2 Bft) W-SW 247 0 min 0,0 UV-I 0 W/m 3,3 C 0,6 C 14,5 km/h (3 Bft)
30.01.2021 01:16 4,5 C 3,3 C 92 % 1002,7 hPa 0,2 l/m 9,7 km/h (2 Bft) W-SW 247 0 min 0,0 UV-I 0 W/m 3,3 C 1,7 C 14,5 km/h (3 Bft)
30.01.2021 01:17 4,5 C 3,3 C 93 % 1002,7 hPa 0,0 l/m 12,9 km/h (3 Bft) W 270 0 min 0,0 UV-I 0 W/m 3,5 C -0,4 C 22,5 km/h (4 Bft)
30.01.2021 01:18 4,5 C 3,3 C 92 % 1002,7 hPa 0,0 l/m 9,7 km/h (2 Bft) W 270 0 min 0,0 UV-I 0 W/m 3,3 C 1,7 C 12,9 km/h (3 Bft)
30.01.2021 01:19 4,4 C 3,3 C 93 % 1002,6 hPa 0,0 l/m 6,4 km/h (2 Bft) SW 225 0 min 0,0 UV-I 0 W/m 3,4 C 4,4 C 12,9 km/h (3 Bft)
30.01.2021 01:20 4,4 C 3,3 C 93 % 1002,7 hPa 0,0 l/m 9,7 km/h (2 Bft) W-SW 247 0 min 0,0 UV-I 0 W/m 3,4 C 1,6 C 12,9 km/h (3 Bft)
30.01.2021 01:21 4,4 C 3,3 C 93 % 1002,7 hPa 0,0 l/m 9,7 km/h (2 Bft) W-SW 247 0 min 0,0 UV-I 0 W/m 3,4 C 1,6 C 14,5 km/h (3 Bft)
30.01.2021 01:22 4,4 C 3,3 C 93 % 1002,7 hPa 0,0 l/m 8,0 km/h (2 Bft) SW 225 0 min 0,0 UV-I 0 W/m 3,4 C 3,0 C 12,9 km/h (3 Bft)
30.01.2021 01:23 4,4 C 3,3 C 93 % 1002,7 hPa 0,0 l/m 9,7 km/h (2 Bft) S-SW 202 0 min 0,0 UV-I 0 W/m 3,4 C 1,6 C 17,7 km/h (3 Bft)
30.01.2021 01:24 4,4 C 3,3 C 93 % 1002,7 hPa 0,0 l/m 12,9 km/h (3 Bft) W-SW 247 0 min 0,0 UV-I 0 W/m 3,4 C -0,5 C 17,7 km/h (3 Bft)
30.01.2021 01:25 4,4 C 3,3 C 93 % 1002,7 hPa 0,0 l/m 9,7 km/h (2 Bft) W-SW 247 0 min 0,0 UV-I 0 W/m 3,4 C 1,6 C 16,1 km/h (3 Bft)
30.01.2021 01:26 4,4 C 3,3 C 93 % 1002,6 hPa 0,0 l/m 6,4 km/h (2 Bft) SW 225 0 min 0,0 UV-I 0 W/m 3,4 C 4,4 C 11,3 km/h (2 Bft)
30.01.2021 01:27 4,4 C 3,3 C 93 % 1002,6 hPa 0,0 l/m 8,0 km/h (2 Bft) SW 225 0 min 0,0 UV-I 0 W/m 3,4 C 3,0 C 14,5 km/h (3 Bft)
30.01.2021 01:28 4,4 C 3,3 C 93 % 1002,7 hPa 0,0 l/m 8,0 km/h (2 Bft) SW 225 0 min 0,0 UV-I 0 W/m 3,4 C 3,0 C 11,3 km/h (2 Bft)
30.01.2021 01:29 4,4 C 3,3 C 93 % 1002,6 hPa 0,0 l/m 11,3 km/h (2 Bft) SW 225 0 min 0,0 UV-I 0 W/m 3,4 C 0,5 C 14,5 km/h (3 Bft)
30.01.2021 01:30 4,4 C 3,9 C 93 % 1002,7 hPa 0,0 l/m 8,0 km/h (2 Bft) SW 225 0 min 0,0 UV-I 0 W/m 3,4 C 3,0 C 14,5 km/h (3 Bft)
30.01.2021 01:31 4,4 C 3,9 C 93 % 1002,7 hPa 0,0 l/m 8,0 km/h (2 Bft) W-SW 247 0 min 0,0 UV-I 0 W/m 3,4 C 3,0 C 11,3 km/h (2 Bft)
30.01.2021 01:32 4,4 C 3,9 C 93 % 1002,7 hPa 0,0 l/m 9,7 km/h (2 Bft) SW 225 0 min 0,0 UV-I 0 W/m 3,4 C 1,6 C 17,7 km/h (3 Bft)
30.01.2021 01:33 4,4 C 3,9 C 93 % 1002,6 hPa 0,0 l/m 8,0 km/h (2 Bft) W-SW 247 0 min 0,0 UV-I 0 W/m 3,4 C 3,0 C 16,1 km/h (3 Bft)
30.01.2021 01:34 4,4 C 3,9 C 93 % 1002,6 hPa 0,0 l/m 8,0 km/h (2 Bft) SW 225 0 min 0,0 UV-I 0 W/m 3,4 C 3,0 C 12,9 km/h (3 Bft)
30.01.2021 01:35 4,4 C 3,9 C 93 % 1002,6 hPa 0,0 l/m 6,4 km/h (2 Bft) W-SW 247 0 min 0,0 UV-I 0 W/m 3,4 C 4,4 C 11,3 km/h (2 Bft)
30.01.2021 01:36 4,4 C 3,9 C 93 % 1002,6 hPa 0,0 l/m 9,7 km/h (2 Bft) SW 225 0 min 0,0 UV-I 0 W/m 3,4 C 1,6 C 17,7 km/h (3 Bft)
30.01.2021 01:37 4,4 C 3,9 C 93 % 1002,6 hPa 0,0 l/m 4,8 km/h (1 Bft) W-SW 247 0 min 0,0 UV-I 0 W/m 3,4 C 4,4 C 8,0 km/h (2 Bft)
30.01.2021 01:38 4,5 C 3,9 C 93 % 1002,5 hPa 0,0 l/m 8,0 km/h (2 Bft) W-SW 247 0 min 0,0 UV-I 0 W/m 3,5 C 3,1 C 16,1 km/h (3 Bft)
30.01.2021 01:39 4,4 C 3,9 C 93 % 1002,5 hPa 0,0 l/m 9,7 km/h (2 Bft) W-SW 247 0 min 0,0 UV-I 0 W/m 3,4 C 1,6 C 17,7 km/h (3 Bft)
30.01.2021 01:40 4,5 C 3,9 C 93 % 1002,4 hPa 0,0 l/m 12,9 km/h (3 Bft) SW 225 0 min 0,0 UV-I 0 W/m 3,5 C -0,4 C 17,7 km/h (3 Bft)
30.01.2021 01:41 4,5 C 3,9 C 93 % 1002,4 hPa 0,0 l/m 9,7 km/h (2 Bft) SW 225 0 min 0,0 UV-I 0 W/m 3,5 C 1,7 C 19,3 km/h (3 Bft)
30.01.2021 01:42 4,5 C 3,9 C 93 % 1002,4 hPa 0,0 l/m 11,3 km/h (2 Bft) SW 225 0 min 0,0 UV-I 0 W/m 3,5 C 0,6 C 17,7 km/h (3 Bft)
30.01.2021 01:43 4,5 C 3,9 C 93 % 1002,4 hPa 0,0 l/m 11,3 km/h (2 Bft) W 270 0 min 0,0 UV-I 0 W/m 3,5 C 0,6 C 19,3 km/h (3 Bft)
30.01.2021 01:44 4,5 C 3,9 C 93 % 1002,4 hPa 0,0 l/m 8,0 km/h (2 Bft) SW 225 0 min 0,0 UV-I 0 W/m 3,5 C 3,1 C 14,5 km/h (3 Bft)
30.01.2021 01:45 4,5 C 3,9 C 93 % 1002,4 hPa 0,0 l/m 12,9 km/h (3 Bft) SW 225 0 min 0,0 UV-I 0 W/m 3,5 C -0,4 C 16,1 km/h (3 Bft)
30.01.2021 01:46 4,6 C 3,9 C 93 % 1002,4 hPa 0,0 l/m 8,0 km/h (2 Bft) S-SW 202 0 min 0,0 UV-I 0 W/m 3,6 C 3,2 C 11,3 km/h (2 Bft)
30.01.2021 01:47 4,6 C 3,9 C 93 % 1002,4 hPa 0,0 l/m 8,0 km/h (2 Bft) SW 225 0 min 0,0 UV-I 0 W/m 3,6 C 3,2 C 12,9 km/h (3 Bft)
30.01.2021 01:48 4,6 C 3,9 C 93 % 1002,4 hPa 0,0 l/m 9,7 km/h (2 Bft) S-SW 202 0 min 0,0 UV-I 0 W/m 3,6 C 1,8 C 14,5 km/h (3 Bft)
30.01.2021 01:49 4,6 C 3,9 C 93 % 1002,4 hPa 0,0 l/m 11,3 km/h (2 Bft) SW 225 0 min 0,0 UV-I 0 W/m 3,6 C 0,7 C 17,7 km/h (3 Bft)
30.01.2021 01:50 4,6 C 3,9 C 93 % 1002,4 hPa 0,0 l/m 8,0 km/h (2 Bft) SW 225 0 min 0,0 UV-I 0 W/m 3,6 C 3,2 C 11,3 km/h (2 Bft)
30.01.2021 01:51 4,6 C 3,9 C 93 % 1002,4 hPa 0,0 l/m 9,7 km/h (2 Bft) SW 225 0 min 0,0 UV-I 0 W/m 3,6 C 1,8 C 14,5 km/h (3 Bft)
30.01.2021 01:52 4,6 C 3,9 C 93 % 1002,4 hPa 0,0 l/m 14,5 km/h (3 Bft) SW 225 0 min 0,0 UV-I 0 W/m 3,6 C -1,1 C 24,1 km/h (4 Bft)
30.01.2021 01:53 4,6 C 3,9 C 93 % 1002,4 hPa 0,0 l/m 11,3 km/h (2 Bft) SW 225 0 min 0,0 UV-I 0 W/m 3,6 C 0,7 C 16,1 km/h (3 Bft)
30.01.2021 01:54 4,6 C 3,9 C 93 % 1002,4 hPa 0,0 l/m 9,7 km/h (2 Bft) SW 225 0 min 0,0 UV-I 0 W/m 3,6 C 1,8 C 12,9 km/h (3 Bft)
30.01.2021 01:55 4,6 C 3,9 C 93 % 1002,4 hPa 0,0 l/m 11,3 km/h (2 Bft) S-SW 202 0 min 0,0 UV-I 0 W/m 3,6 C 0,7 C 17,7 km/h (3 Bft)
30.01.2021 01:56 4,6 C 3,9 C 94 % 1002,4 hPa 0,0 l/m 9,7 km/h (2 Bft) SW 225 0 min 0,0 UV-I 0 W/m 3,7 C 1,8 C 16,1 km/h (3 Bft)
30.01.2021 01:57 4,6 C 3,9 C 94 % 1002,4 hPa 0,0 l/m 16,1 km/h (3 Bft) SW 225 0 min 0,0 UV-I 0 W/m 3,7 C -2,0 C 25,7 km/h (4 Bft)
30.01.2021 01:58 4,6 C 3,9 C 94 % 1002,4 hPa 0,0 l/m 11,3 km/h (2 Bft) SW 225 0 min 0,0 UV-I 0 W/m 3,7 C 0,7 C 14,5 km/h (3 Bft)
30.01.2021 01:59 4,6 C 3,9 C 93 % 1002,4 hPa 0,0 l/m 8,0 km/h (2 Bft) SW 225 0 min 0,0 UV-I 0 W/m 3,6 C 3,2 C 11,3 km/h (2 Bft)
30.01.2021 02:00 4,6 C 3,9 C 94 % 1002,5 hPa 0,0 l/m 14,5 km/h (3 Bft) SW 225 0 min 0,0 UV-I 0 W/m 3,7 C -1,1 C 20,9 km/h (4 Bft)
30.01.2021 02:01 4,6 C 3,9 C 94 % 1002,4 hPa 0,0 l/m 12,9 km/h (3 Bft) SW 225 0 min 0,0 UV-I 0 W/m 3,7 C -0,2 C 22,5 km/h (4 Bft)
30.01.2021 02:02 4,6 C 3,9 C 93 % 1002,4 hPa 0,0 l/m 14,5 km/h (3 Bft) SW 225 0 min 0,0 UV-I 0 W/m 3,6 C -1,1 C 24,1 km/h (4 Bft)
30.01.2021 02:03 4,6 C 3,9 C 94 % 1002,4 hPa 0,2 l/m 9,7 km/h (2 Bft) SW 225 0 min 0,0 UV-I 0 W/m 3,7 C 1,8 C 16,1 km/h (3 Bft)
30.01.2021 02:04 4,6 C 3,9 C 94 % 1002,3 hPa 0,0 l/m 9,7 km/h (2 Bft) SW 225 0 min 0,0 UV-I 0 W/m 3,7 C 1,8 C 14,5 km/h (3 Bft)
30.01.2021 02:05 4,6 C 3,9 C 94 % 1002,4 hPa 0,0 l/m 8,0 km/h (2 Bft) SW 225 0 min 0,0 UV-I 0 W/m 3,7 C 3,2 C 11,3 km/h (2 Bft)
30.01.2021 02:06 4,6 C 3,9 C 93 % 1002,5 hPa 0,0 l/m 9,7 km/h (2 Bft) W-SW 247 0 min 0,0 UV-I 0 W/m 3,6 C 1,8 C 16,1 km/h (3 Bft)
30.01.2021 02:07 4,6 C 3,9 C 93 % 1002,5 hPa 0,0 l/m 9,7 km/h (2 Bft) W-SW 247 0 min 0,0 UV-I 0 W/m 3,6 C 1,8 C 16,1 km/h (3 Bft)
30.01.2021 02:08 4,6 C 3,9 C 94 % 1002,5 hPa 0,0 l/m 14,5 km/h (3 Bft) SW 225 0 min 0,0 UV-I 0 W/m 3,7 C -1,1 C 20,9 km/h (4 Bft)
30.01.2021 02:09 4,6 C 3,9 C 94 % 1002,5 hPa 0,0 l/m 9,7 km/h (2 Bft) W-SW 247 0 min 0,0 UV-I 0 W/m 3,7 C 1,8 C 14,5 km/h (3 Bft)
30.01.2021 02:10 4,6 C 3,9 C 94 % 1002,5 hPa 0,0 l/m 11,3 km/h (2 Bft) W-SW 247 0 min 0,0 UV-I 0 W/m 3,7 C 0,7 C 19,3 km/h (3 Bft)
30.01.2021 02:11 4,6 C 3,9 C 93 % 1002,4 hPa 0,0 l/m 8,0 km/h (2 Bft) SW 225 0 min 0,0 UV-I 0 W/m 3,6 C 3,2 C 14,5 km/h (3 Bft)
30.01.2021 02:12 4,6 C 3,9 C 94 % 1002,4 hPa 0,0 l/m 11,3 km/h (2 Bft) W-SW 247 0 min 0,0 UV-I 0 W/m 3,7 C 0,7 C 16,1 km/h (3 Bft)
30.01.2021 02:13 4,6 C 3,9 C 94 % 1002,5 hPa 0,0 l/m 14,5 km/h (3 Bft) W 270 0 min 0,0 UV-I 0 W/m 3,7 C -1,1 C 27,4 km/h (4 Bft)
30.01.2021 02:14 4,6 C 3,9 C 93 % 1002,5 hPa 0,0 l/m 12,9 km/h (3 Bft) SW 225 0 min 0,0 UV-I 0 W/m 3,6 C -0,2 C 22,5 km/h (4 Bft)
30.01.2021 02:15 4,6 C 3,9 C 93 % 1002,5 hPa 0,0 l/m 12,9 km/h (3 Bft) SW 225 0 min 0,0 UV-I 0 W/m 3,6 C -0,2 C 22,5 km/h (4 Bft)
30.01.2021 02:16 4,6 C 3,9 C 93 % 1002,6 hPa 0,0 l/m 9,7 km/h (2 Bft) W-SW 247 0 min 0,0 UV-I 0 W/m 3,6 C 1,8 C 16,1 km/h (3 Bft)
30.01.2021 02:17 4,6 C 3,9 C 93 % 1002,5 hPa 0,0 l/m 11,3 km/h (2 Bft) W-SW 247 0 min 0,0 UV-I 0 W/m 3,6 C 0,7 C 19,3 km/h (3 Bft)
30.01.2021 02:18 4,6 C 3,9 C 94 % 1002,4 hPa 0,0 l/m 16,1 km/h (3 Bft) W-SW 247 0 min 0,0 UV-I 0 W/m 3,7 C -2,0 C 22,5 km/h (4 Bft)
30.01.2021 02:19 4,6 C 3,9 C 93 % 1002,6 hPa 0,0 l/m 17,7 km/h (3 Bft) SW 225 0 min 0,0 UV-I 0 W/m 3,6 C -2,7 C 20,9 km/h (4 Bft)
30.01.2021 02:20 4,6 C 3,9 C 93 % 1002,6 hPa 0,0 l/m 12,9 km/h (3 Bft) SW 225 0 min 0,0 UV-I 0 W/m 3,6 C -0,2 C 22,5 km/h (4 Bft)
30.01.2021 02:21 4,5 C 3,9 C 93 % 1002,5 hPa 0,0 l/m 9,7 km/h (2 Bft) W-SW 247 0 min 0,0 UV-I 0 W/m 3,5 C 1,7 C 17,7 km/h (3 Bft)
30.01.2021 02:22 4,6 C 3,9 C 93 % 1002,6 hPa 0,0 l/m 8,0 km/h (2 Bft) SW 225 0 min 0,0 UV-I 0 W/m 3,6 C 3,2 C 11,3 km/h (2 Bft)
30.01.2021 02:23 4,6 C 3,9 C 93 % 1002,6 hPa 0,0 l/m 6,4 km/h (2 Bft) SW 225 0 min 0,0 UV-I 0 W/m 3,6 C 4,6 C 8,0 km/h (2 Bft)
30.01.2021 02:24 4,5 C 3,9 C 93 % 1002,6 hPa 0,0 l/m 9,7 km/h (2 Bft) S-SW 202 0 min 0,0 UV-I 0 W/m 3,5 C 1,7 C 16,1 km/h (3 Bft)
30.01.2021 02:25 4,5 C 3,9 C 93 % 1002,6 hPa 0,0 l/m 11,3 km/h (2 Bft) SW 225 0 min 0,0 UV-I 0 W/m 3,5 C 0,6 C 17,7 km/h (3 Bft)
30.01.2021 02:26 4,6 C 3,9 C 93 % 1002,5 hPa 0,0 l/m 8,0 km/h (2 Bft) SW 225 0 min 0,0 UV-I 0 W/m 3,6 C 3,2 C 14,5 km/h (3 Bft)
30.01.2021 02:27 4,6 C 3,9 C 93 % 1002,6 hPa 0,0 l/m 11,3 km/h (2 Bft) SW 225 0 min 0,0 UV-I 0 W/m 3,6 C 0,7 C 14,5 km/h (3 Bft)
30.01.2021 02:28 4,6 C 3,9 C 93 % 1002,5 hPa 0,0 l/m 11,3 km/h (2 Bft) SW 225 0 min 0,0 UV-I 0 W/m 3,6 C 0,7 C 16,1 km/h (3 Bft)
30.01.2021 02:29 4,6 C 3,9 C 93 % 1002,5 hPa 0,0 l/m 6,4 km/h (2 Bft) SW 225 0 min 0,0 UV-I 0 W/m 3,6 C 4,6 C 11,3 km/h (2 Bft)
30.01.2021 02:30 4,5 C 3,9 C 93 % 1002,5 hPa 0,0 l/m 6,4 km/h (2 Bft) W-SW 247 0 min 0,0 UV-I 0 W/m 3,5 C 4,5 C 11,3 km/h (2 Bft)
30.01.2021 02:31 4,5 C 3,9 C 93 % 1002,5 hPa 0,0 l/m 6,4 km/h (2 Bft) SW 225 0 min 0,0 UV-I 0 W/m 3,5 C 4,5 C 12,9 km/h (3 Bft)
30.01.2021 02:32 4,5 C 3,9 C 93 % 1002,6 hPa 0,0 l/m 9,7 km/h (2 Bft) SW 225 0 min 0,0 UV-I 0 W/m 3,5 C 1,7 C 14,5 km/h (3 Bft)
30.01.2021 02:33 4,5 C 3,9 C 93 % 1002,5 hPa 0,0 l/m 4,8 km/h (1 Bft) W-SW 247 0 min 0,0 UV-I 0 W/m 3,5 C 4,5 C 9,7 km/h (2 Bft)
30.01.2021 02:34 4,5 C 3,9 C 93 % 1002,5 hPa 0,0 l/m 8,0 km/h (2 Bft) SW 225 0 min 0,0 UV-I 0 W/m 3,5 C 3,1 C 14,5 km/h (3 Bft)
30.01.2021 02:35 4,5 C 3,9 C 93 % 1002,5 hPa 0,0 l/m 12,9 km/h (3 Bft) SW 225 0 min 0,0 UV-I 0 W/m 3,5 C -0,4 C 20,9 km/h (4 Bft)
30.01.2021 02:36 4,5 C 3,9 C 93 % 1002,5 hPa 0,0 l/m 6,4 km/h (2 Bft) SW 225 0 min 0,0 UV-I 0 W/m 3,5 C 4,5 C 11,3 km/h (2 Bft)
30.01.2021 02:37 4,5 C 3,9 C 93 % 1002,5 hPa 0,0 l/m 4,8 km/h (1 Bft) W-SW 247 0 min 0,0 UV-I 0 W/m 3,5 C 4,5 C 8,0 km/h (2 Bft)
30.01.2021 02:38 4,5 C 3,9 C 93 % 1002,4 hPa 0,0 l/m 4,8 km/h (1 Bft) SW 225 0 min 0,0 UV-I 0 W/m 3,5 C 4,5 C 8,0 km/h (2 Bft)
30.01.2021 02:39 4,6 C 3,9 C 93 % 1002,5 hPa 0,0 l/m 6,4 km/h (2 Bft) SW 225 0 min 0,0 UV-I 0 W/m 3,6 C 4,6 C 12,9 km/h (3 Bft)
30.01.2021 02:40 4,6 C 3,9 C 93 % 1002,5 hPa 0,0 l/m 9,7 km/h (2 Bft) W-SW 247 0 min 0,0 UV-I 0 W/m 3,6 C 1,8 C 22,5 km/h (4 Bft)
30.01.2021 02:41 4,6 C 3,9 C 93 % 1002,5 hPa 0,0 l/m 16,1 km/h (3 Bft) SW 225 0 min 0,0 UV-I 0 W/m 3,6 C -2,0 C 20,9 km/h (4 Bft)
30.01.2021 02:42 4,5 C 3,9 C 93 % 1002,5 hPa 0,0 l/m 9,7 km/h (2 Bft) S-SW 202 0 min 0,0 UV-I 0 W/m 3,5 C 1,7 C 11,3 km/h (2 Bft)
30.01.2021 02:43 4,6 C 3,9 C 93 % 1002,4 hPa 0,0 l/m 11,3 km/h (2 Bft) S-SW 202 0 min 0,0 UV-I 0 W/m 3,6 C 0,7 C 16,1 km/h (3 Bft)
30.01.2021 02:44 4,6 C 3,9 C 93 % 1002,5 hPa 0,0 l/m 6,4 km/h (2 Bft) SW 225 0 min 0,0 UV-I 0 W/m 3,6 C 4,6 C 11,3 km/h (2 Bft)
30.01.2021 02:45 4,6 C 3,9 C 93 % 1002,5 hPa 0,0 l/m 12,9 km/h (3 Bft) SW 225 0 min 0,0 UV-I 0 W/m 3,6 C -0,2 C 19,3 km/h (3 Bft)
30.01.2021 02:46 4,6 C 3,9 C 93 % 1002,6 hPa 0,0 l/m 6,4 km/h (2 Bft) SW 225 0 min 0,0 UV-I 0 W/m 3,6 C 4,6 C 8,0 km/h (2 Bft)
30.01.2021 02:47 4,6 C 3,9 C 94 % 1002,6 hPa 0,0 l/m 11,3 km/h (2 Bft) SW 225 0 min 0,0 UV-I 0 W/m 3,7 C 0,7 C 19,3 km/h (3 Bft)
30.01.2021 02:48 4,6 C 3,9 C 93 % 1002,6 hPa 0,0 l/m 8,0 km/h (2 Bft) SW 225 0 min 0,0 UV-I 0 W/m 3,6 C 3,2 C 14,5 km/h (3 Bft)
30.01.2021 02:49 4,6 C 3,9 C 93 % 1002,6 hPa 0,0 l/m 9,7 km/h (2 Bft) SW 225 0 min 0,0 UV-I 0 W/m 3,6 C 1,8 C 12,9 km/h (3 Bft)
30.01.2021 02:50 4,6 C 3,9 C 93 % 1002,6 hPa 0,0 l/m 9,7 km/h (2 Bft) SW 225 0 min 0,0 UV-I 0 W/m 3,6 C 1,8 C 14,5 km/h (3 Bft)
30.01.2021 02:51 4,6 C 3,9 C 94 % 1002,6 hPa 0,0 l/m 8,0 km/h (2 Bft) W-SW 247 0 min 0,0 UV-I 0 W/m 3,7 C 3,2 C 12,9 km/h (3 Bft)
30.01.2021 02:52 4,6 C 3,9 C 93 % 1002,6 hPa 0,0 l/m 8,0 km/h (2 Bft) SW 225 0 min 0,0 UV-I 0 W/m 3,6 C 3,2 C 14,5 km/h (3 Bft)
30.01.2021 02:53 4,6 C 3,9 C 94 % 1002,6 hPa 0,0 l/m 9,7 km/h (2 Bft) SW 225 0 min 0,0 UV-I 0 W/m 3,7 C 1,8 C 12,9 km/h (3 Bft)
30.01.2021 02:54 4,6 C 3,9 C 93 % 1002,6 hPa 0,0 l/m 9,7 km/h (2 Bft) SW 225 0 min 0,0 UV-I 0 W/m 3,6 C 1,8 C 19,3 km/h (3 Bft)
30.01.2021 02:55 4,6 C 3,9 C 94 % 1002,6 hPa 0,0 l/m 9,7 km/h (2 Bft) W-SW 247 0 min 0,0 UV-I 0 W/m 3,7 C 1,8 C 12,9 km/h (3 Bft)
30.01.2021 02:56 4,6 C 3,9 C 94 % 1002,6 hPa 0,0 l/m 6,4 km/h (2 Bft) SW 225 0 min 0,0 UV-I 0 W/m 3,7 C 4,6 C 12,9 km/h (3 Bft)
30.01.2021 02:57 4,6 C 3,9 C 94 % 1002,6 hPa 0,0 l/m 8,0 km/h (2 Bft) SW 225 0 min 0,0 UV-I 0 W/m 3,7 C 3,2 C 11,3 km/h (2 Bft)
30.01.2021 02:58 4,6 C 3,9 C 94 % 1002,6 hPa 0,0 l/m 4,8 km/h (1 Bft) SW 225 0 min 0,0 UV-I 0 W/m 3,7 C 4,6 C 8,0 km/h (2 Bft)
30.01.2021 02:59 4,6 C 3,9 C 94 % 1002,6 hPa 0,0 l/m 9,7 km/h (2 Bft) SW 225 0 min 0,0 UV-I 0 W/m 3,7 C 1,8 C 14,5 km/h (3 Bft)
30.01.2021 03:00 4,6 C 3,9 C 94 % 1002,6 hPa 0,0 l/m 9,7 km/h (2 Bft) SW 225 0 min 0,0 UV-I 0 W/m 3,7 C 1,8 C 16,1 km/h (3 Bft)
30.01.2021 03:01 4,6 C 3,9 C 94 % 1002,6 hPa 0,0 l/m 12,9 km/h (3 Bft) SW 225 0 min 0,0 UV-I 0 W/m 3,7 C -0,2 C 17,7 km/h (3 Bft)
30.01.2021 03:02 4,6 C 3,9 C 94 % 1002,6 hPa 0,0 l/m 11,3 km/h (2 Bft) SW 225 0 min 0,0 UV-I 0 W/m 3,7 C 0,7 C 19,3 km/h (3 Bft)
30.01.2021 03:03 4,6 C 3,9 C 94 % 1002,5 hPa 0,0 l/m 6,4 km/h (2 Bft) SW 225 0 min 0,0 UV-I 0 W/m 3,7 C 4,6 C 8,0 km/h (2 Bft)
30.01.2021 03:04 4,6 C 3,9 C 94 % 1002,6 hPa 0,0 l/m 6,4 km/h (2 Bft) SW 225 0 min 0,0 UV-I 0 W/m 3,7 C 4,6 C 9,7 km/h (2 Bft)
30.01.2021 03:05 4,6 C 3,9 C 94 % 1002,5 hPa 0,0 l/m 9,7 km/h (2 Bft) S-SW 202 0 min 0,0 UV-I 0 W/m 3,7 C 1,8 C 11,3 km/h (2 Bft)
30.01.2021 03:06 4,6 C 3,9 C 94 % 1002,6 hPa 0,0 l/m 8,0 km/h (2 Bft) S-SW 202 0 min 0,0 UV-I 0 W/m 3,7 C 3,2 C 11,3 km/h (2 Bft)
30.01.2021 03:07 4,6 C 3,9 C 94 % 1002,6 hPa 0,0 l/m 9,7 km/h (2 Bft) SW 225 0 min 0,0 UV-I 0 W/m 3,7 C 1,8 C 17,7 km/h (3 Bft)
30.01.2021 03:08 4,6 C 3,9 C 94 % 1002,5 hPa 0,0 l/m 11,3 km/h (2 Bft) SW 225 0 min 0,0 UV-I 0 W/m 3,7 C 0,7 C 19,3 km/h (3 Bft)
30.01.2021 03:09 4,6 C 3,9 C 94 % 1002,5 hPa 0,0 l/m 6,4 km/h (2 Bft) SW 225 0 min 0,0 UV-I 0 W/m 3,7 C 4,6 C 16,1 km/h (3 Bft)
30.01.2021 03:10 4,6 C 3,9 C 94 % 1002,5 hPa 0,0 l/m 11,3 km/h (2 Bft) SW 225 0 min 0,0 UV-I 0 W/m 3,7 C 0,7 C 17,7 km/h (3 Bft)
30.01.2021 03:11 4,6 C 3,9 C 94 % 1002,6 hPa 0,0 l/m 8,0 km/h (2 Bft) SW 225 0 min 0,0 UV-I 0 W/m 3,7 C 3,2 C 12,9 km/h (3 Bft)
30.01.2021 03:12 4,6 C 3,9 C 94 % 1002,6 hPa 0,2 l/m 11,3 km/h (2 Bft) SW 225 0 min 0,0 UV-I 0 W/m 3,7 C 0,7 C 16,1 km/h (3 Bft)
30.01.2021 03:13 4,6 C 3,9 C 94 % 1002,5 hPa 0,0 l/m 14,5 km/h (3 Bft) SW 225 0 min 0,0 UV-I 0 W/m 3,7 C -1,1 C 24,1 km/h (4 Bft)
30.01.2021 03:14 4,6 C 3,9 C 94 % 1002,6 hPa 0,0 l/m 11,3 km/h (2 Bft) SW 225 0 min 0,0 UV-I 0 W/m 3,7 C 0,7 C 16,1 km/h (3 Bft)
30.01.2021 03:15 4,6 C 3,9 C 94 % 1002,6 hPa 0,0 l/m 9,7 km/h (2 Bft) SW 225 0 min 0,0 UV-I 0 W/m 3,7 C 1,8 C 14,5 km/h (3 Bft)
30.01.2021 03:16 4,6 C 3,9 C 94 % 1002,5 hPa 0,0 l/m 14,5 km/h (3 Bft) SW 225 0 min 0,0 UV-I 0 W/m 3,7 C -1,1 C 25,7 km/h (4 Bft)
30.01.2021 03:17 4,6 C 3,9 C 94 % 1002,6 hPa 0,0 l/m 9,7 km/h (2 Bft) SW 225 0 min 0,0 UV-I 0 W/m 3,7 C 1,8 C 17,7 km/h (3 Bft)
30.01.2021 03:18 4,6 C 3,9 C 94 % 1002,5 hPa 0,0 l/m 12,9 km/h (3 Bft) W-SW 247 0 min 0,0 UV-I 0 W/m 3,7 C -0,2 C 19,3 km/h (3 Bft)
30.01.2021 03:19 4,6 C 3,9 C 94 % 1002,6 hPa 0,0 l/m 8,0 km/h (2 Bft) SW 225 0 min 0,0 UV-I 0 W/m 3,7 C 3,2 C 16,1 km/h (3 Bft)
30.01.2021 03:20 4,5 C 3,9 C 94 % 1002,5 hPa 0,0 l/m 6,4 km/h (2 Bft) S-SW 202 0 min 0,0 UV-I 0 W/m 3,6 C 4,5 C 14,5 km/h (3 Bft)
30.01.2021 03:21 4,6 C 3,9 C 94 % 1002,4 hPa 0,0 l/m 9,7 km/h (2 Bft) S-SW 202 0 min 0,0 UV-I 0 W/m 3,7 C 1,8 C 14,5 km/h (3 Bft)
30.01.2021 03:22 4,6 C 3,9 C 94 % 1002,4 hPa 0,0 l/m 8,0 km/h (2 Bft) SW 225 0 min 0,0 UV-I 0 W/m 3,7 C 3,2 C 12,9 km/h (3 Bft)
30.01.2021 03:23 4,5 C 3,9 C 94 % 1002,3 hPa 0,0 l/m 6,4 km/h (2 Bft) SW 225 0 min 0,0 UV-I 0 W/m 3,6 C 4,5 C 11,3 km/h (2 Bft)
30.01.2021 03:24 4,5 C 3,9 C 94 % 1002,4 hPa 0,0 l/m 6,4 km/h (2 Bft) W-SW 247 0 min 0,0 UV-I 0 W/m 3,6 C 4,5 C 12,9 km/h (3 Bft)
30.01.2021 03:25 4,5 C 3,9 C 94 % 1002,3 hPa 0,0 l/m 4,8 km/h (1 Bft) W 270 0 min 0,0 UV-I 0 W/m 3,6 C 4,5 C 11,3 km/h (2 Bft)
30.01.2021 03:26 4,6 C 3,9 C 94 % 1002,4 hPa 0,0 l/m 8,0 km/h (2 Bft) SW 225 0 min 0,0 UV-I 0 W/m 3,7 C 3,2 C 11,3 km/h (2 Bft)
30.01.2021 03:27 4,5 C 3,9 C 94 % 1002,3 hPa 0,0 l/m 8,0 km/h (2 Bft) SW 225 0 min 0,0 UV-I 0 W/m 3,6 C 3,1 C 12,9 km/h (3 Bft)
30.01.2021 03:28 4,5 C 3,9 C 94 % 1002,3 hPa 0,0 l/m 9,7 km/h (2 Bft) SW 225 0 min 0,0 UV-I 0 W/m 3,6 C 1,7 C 16,1 km/h (3 Bft)
30.01.2021 03:29 4,5 C 3,9 C 94 % 1002,3 hPa 0,2 l/m 8,0 km/h (2 Bft) W-SW 247 0 min 0,0 UV-I 0 W/m 3,6 C 3,1 C 14,5 km/h (3 Bft)
30.01.2021 03:30 4,4 C 3,9 C 94 % 1002,4 hPa 0,0 l/m 11,3 km/h (2 Bft) SW 225 0 min 0,0 UV-I 0 W/m 3,5 C 0,5 C 16,1 km/h (3 Bft)
30.01.2021 03:31 4,4 C 3,9 C 94 % 1002,3 hPa 0,0 l/m 11,3 km/h (2 Bft) SW 225 0 min 0,0 UV-I 0 W/m 3,5 C 0,5 C 17,7 km/h (3 Bft)
30.01.2021 03:32 4,5 C 3,9 C 94 % 1002,3 hPa 0,0 l/m 14,5 km/h (3 Bft) W-SW 247 0 min 0,0 UV-I 0 W/m 3,6 C -1,3 C 19,3 km/h (3 Bft)
30.01.2021 03:33 4,4 C 3,9 C 94 % 1002,4 hPa 0,0 l/m 12,9 km/h (3 Bft) SW 225 0 min 0,0 UV-I 0 W/m 3,5 C -0,5 C 17,7 km/h (3 Bft)
30.01.2021 03:34 4,4 C 3,9 C 94 % 1002,4 hPa 0,0 l/m 12,9 km/h (3 Bft) W-SW 247 0 min 0,0 UV-I 0 W/m 3,5 C -0,5 C 17,7 km/h (3 Bft)
30.01.2021 03:35 4,4 C 3,9 C 94 % 1002,3 hPa 0,2 l/m 9,7 km/h (2 Bft) W-SW 247 0 min 0,0 UV-I 0 W/m 3,5 C 1,6 C 16,1 km/h (3 Bft)
30.01.2021 03:36 4,4 C 3,9 C 94 % 1002,3 hPa 0,0 l/m 6,4 km/h (2 Bft) SW 225 0 min 0,0 UV-I 0 W/m 3,5 C 4,4 C 9,7 km/h (2 Bft)
30.01.2021 03:37 4,4 C 3,9 C 94 % 1002,3 hPa 0,0 l/m 8,0 km/h (2 Bft) W-SW 247 0 min 0,0 UV-I 0 W/m 3,5 C 3,0 C 12,9 km/h (3 Bft)
30.01.2021 03:38 4,4 C 3,9 C 94 % 1002,3 hPa 0,0 l/m 8,0 km/h (2 Bft) SW 225 0 min 0,0 UV-I 0 W/m 3,5 C 3,0 C 11,3 km/h (2 Bft)
30.01.2021 03:39 4,4 C 3,9 C 94 % 1002,5 hPa 0,0 l/m 4,8 km/h (1 Bft) SW 225 0 min 0,0 UV-I 0 W/m 3,5 C 4,4 C 6,4 km/h (2 Bft)
30.01.2021 03:40 4,4 C 3,9 C 94 % 1002,3 hPa 0,0 l/m 4,8 km/h (1 Bft) W-SW 247 0 min 0,0 UV-I 0 W/m 3,5 C 4,4 C 6,4 km/h (2 Bft)
30.01.2021 03:41 4,4 C 3,9 C 94 % 1002,3 hPa 0,0 l/m 6,4 km/h (2 Bft) W-SW 247 0 min 0,0 UV-I 0 W/m 3,5 C 4,4 C 9,7 km/h (2 Bft)
30.01.2021 03:42 4,4 C 3,9 C 94 % 1002,3 hPa 0,0 l/m 4,8 km/h (1 Bft) SW 225 0 min 0,0 UV-I 0 W/m 3,5 C 4,4 C 6,4 km/h (2 Bft)
30.01.2021 03:43 4,4 C 3,9 C 94 % 1002,3 hPa 0,0 l/m 9,7 km/h (2 Bft) W 270 0 min 0,0 UV-I 0 W/m 3,5 C 1,6 C 14,5 km/h (3 Bft)
30.01.2021 03:44 4,4 C 3,9 C 94 % 1002,4 hPa 0,0 l/m 8,0 km/h (2 Bft) SW 225 0 min 0,0 UV-I 0 W/m 3,5 C 3,0 C 12,9 km/h (3 Bft)
30.01.2021 03:45 4,4 C 3,9 C 94 % 1002,3 hPa 0,0 l/m 11,3 km/h (2 Bft) W 270 0 min 0,0 UV-I 0 W/m 3,5 C 0,5 C 16,1 km/h (3 Bft)
30.01.2021 03:46 4,4 C 3,9 C 94 % 1002,3 hPa 0,0 l/m 6,4 km/h (2 Bft) W-SW 247 0 min 0,0 UV-I 0 W/m 3,5 C 4,4 C 11,3 km/h (2 Bft)
30.01.2021 03:47 4,4 C 3,9 C 94 % 1002,2 hPa 0,2 l/m 8,0 km/h (2 Bft) SW 225 0 min 0,0 UV-I 0 W/m 3,5 C 3,0 C 12,9 km/h (3 Bft)
30.01.2021 03:48 4,4 C 3,9 C 94 % 1002,3 hPa 0,0 l/m 4,8 km/h (1 Bft) SW 225 0 min 0,0 UV-I 0 W/m 3,5 C 4,4 C 6,4 km/h (2 Bft)
30.01.2021 03:49 4,4 C 3,9 C 94 % 1002,2 hPa 0,0 l/m 8,0 km/h (2 Bft) W-SW 247 0 min 0,0 UV-I 0 W/m 3,5 C 3,0 C 12,9 km/h (3 Bft)
30.01.2021 03:50 4,4 C 3,9 C 94 % 1002,3 hPa 0,0 l/m 9,7 km/h (2 Bft) SW 225 0 min 0,0 UV-I 0 W/m 3,5 C 1,6 C 16,1 km/h (3 Bft)
30.01.2021 03:51 4,4 C 3,9 C 94 % 1002,2 hPa 0,0 l/m 8,0 km/h (2 Bft) SW 225 0 min 0,0 UV-I 0 W/m 3,5 C 3,0 C 12,9 km/h (3 Bft)
30.01.2021 03:52 4,4 C 3,9 C 94 % 1002,2 hPa 0,0 l/m 9,7 km/h (2 Bft) SW 225 0 min 0,0 UV-I 0 W/m 3,5 C 1,6 C 16,1 km/h (3 Bft)
30.01.2021 03:53 4,4 C 3,9 C 94 % 1002,3 hPa 0,0 l/m 9,7 km/h (2 Bft) SW 225 0 min 0,0 UV-I 0 W/m 3,5 C 1,6 C 12,9 km/h (3 Bft)
30.01.2021 03:54 4,4 C 3,9 C 94 % 1002,3 hPa 0,0 l/m 6,4 km/h (2 Bft) SW 225 0 min 0,0 UV-I 0 W/m 3,5 C 4,4 C 9,7 km/h (2 Bft)
30.01.2021 03:55 4,4 C 3,9 C 94 % 1002,3 hPa 0,0 l/m 6,4 km/h (2 Bft) W-SW 247 0 min 0,0 UV-I 0 W/m 3,5 C 4,4 C 11,3 km/h (2 Bft)
30.01.2021 03:56 4,4 C 3,9 C 94 % 1002,3 hPa 0,0 l/m 4,8 km/h (1 Bft) SW 225 0 min 0,0 UV-I 0 W/m 3,5 C 4,4 C 8,0 km/h (2 Bft)
30.01.2021 03:57 4,4 C 3,9 C 94 % 1002,3 hPa 0,0 l/m 6,4 km/h (2 Bft) SW 225 0 min 0,0 UV-I 0 W/m 3,5 C 4,4 C 12,9 km/h (3 Bft)
30.01.2021 03:58 4,4 C 3,9 C 94 % 1002,3 hPa 0,0 l/m 6,4 km/h (2 Bft) W-SW 247 0 min 0,0 UV-I 0 W/m 3,5 C 4,4 C 11,3 km/h (2 Bft)
30.01.2021 03:59 4,4 C 3,9 C 94 % 1002,2 hPa 0,0 l/m 9,7 km/h (2 Bft) SW 225 0 min 0,0 UV-I 0 W/m 3,5 C 1,6 C 16,1 km/h (3 Bft)
30.01.2021 04:00 4,4 C 3,9 C 94 % 1002,2 hPa 0,2 l/m 9,7 km/h (2 Bft) SW 225 0 min 0,0 UV-I 0 W/m 3,5 C 1,6 C 11,3 km/h (2 Bft)
30.01.2021 04:01 4,4 C 3,9 C 94 % 1002,3 hPa 0,0 l/m 6,4 km/h (2 Bft) S-SW 202 0 min 0,0 UV-I 0 W/m 3,5 C 4,4 C 8,0 km/h (2 Bft)
30.01.2021 04:02 4,4 C 3,9 C 94 % 1002,2 hPa 0,0 l/m 6,4 km/h (2 Bft) W 270 0 min 0,0 UV-I 0 W/m 3,5 C 4,4 C 12,9 km/h (3 Bft)
30.01.2021 04:03 4,4 C 3,9 C 94 % 1002,2 hPa 0,0 l/m 6,4 km/h (2 Bft) SW 225 0 min 0,0 UV-I 0 W/m 3,5 C 4,4 C 8,0 km/h (2 Bft)
30.01.2021 04:04 4,4 C 3,9 C 94 % 1002,3 hPa 0,0 l/m 6,4 km/h (2 Bft) W-NW 292 0 min 0,0 UV-I 0 W/m 3,5 C 4,4 C 12,9 km/h (3 Bft)
30.01.2021 04:05 4,4 C 3,9 C 94 % 1002,2 hPa 0,0 l/m 4,8 km/h (1 Bft) W-SW 247 0 min 0,0 UV-I 0 W/m 3,5 C 4,4 C 8,0 km/h (2 Bft)
30.01.2021 04:06 4,4 C 3,9 C 94 % 1002,2 hPa 0,0 l/m 4,8 km/h (1 Bft) W-SW 247 0 min 0,0 UV-I 0 W/m 3,5 C 4,4 C 6,4 km/h (2 Bft)
30.01.2021 04:07 4,4 C 3,9 C 94 % 1002,2 hPa 0,0 l/m 4,8 km/h (1 Bft) SW 225 0 min 0,0 UV-I 0 W/m 3,5 C 4,4 C 6,4 km/h (2 Bft)
30.01.2021 04:08 4,4 C 3,9 C 94 % 1002,2 hPa 0,0 l/m 3,2 km/h (1 Bft) S-SW 202 0 min 0,0 UV-I 0 W/m 3,5 C 4,4 C 6,4 km/h (2 Bft)
30.01.2021 04:09 4,4 C 3,9 C 94 % 1002,1 hPa 0,2 l/m 3,2 km/h (1 Bft) S-SW 202 0 min 0,0 UV-I 0 W/m 3,5 C 4,4 C 4,8 km/h (1 Bft)
30.01.2021 04:10 4,4 C 3,9 C 94 % 1002,2 hPa 0,0 l/m 4,8 km/h (1 Bft) W-SW 247 0 min 0,0 UV-I 0 W/m 3,5 C 4,4 C 6,4 km/h (2 Bft)
30.01.2021 04:11 4,5 C 3,9 C 94 % 1002,1 hPa 0,0 l/m 6,4 km/h (2 Bft) W-SW 247 0 min 0,0 UV-I 0 W/m 3,6 C 4,5 C 11,3 km/h (2 Bft)
30.01.2021 04:12 4,5 C 3,9 C 94 % 1002,2 hPa 0,0 l/m 3,2 km/h (1 Bft) W 270 0 min 0,0 UV-I 0 W/m 3,6 C 4,5 C 4,8 km/h (1 Bft)
30.01.2021 04:13 4,4 C 3,9 C 94 % 1002,2 hPa 0,0 l/m 3,2 km/h (1 Bft) W 270 0 min 0,0 UV-I 0 W/m 3,5 C 4,4 C 4,8 km/h (1 Bft)
30.01.2021 04:14 4,4 C 3,9 C 94 % 1002,2 hPa 0,0 l/m 3,2 km/h (1 Bft) SW 225 0 min 0,0 UV-I 0 W/m 3,5 C 4,4 C 6,4 km/h (2 Bft)
30.01.2021 04:15 4,4 C 3,9 C 94 % 1002,2 hPa 0,0 l/m 3,2 km/h (1 Bft) SW 225 0 min 0,0 UV-I 0 W/m 3,5 C 4,4 C 6,4 km/h (2 Bft)
30.01.2021 04:16 4,5 C 3,9 C 94 % 1002,2 hPa 0,0 l/m 4,8 km/h (1 Bft) SW 225 0 min 0,0 UV-I 0 W/m 3,6 C 4,5 C 11,3 km/h (2 Bft)
30.01.2021 04:17 4,4 C 3,9 C 94 % 1002,2 hPa 0,0 l/m 6,4 km/h (2 Bft) W-SW 247 0 min 0,0 UV-I 0 W/m 3,5 C 4,4 C 9,7 km/h (2 Bft)
30.01.2021 04:18 4,4 C 3,9 C 94 % 1002,2 hPa 0,0 l/m 6,4 km/h (2 Bft) SW 225 0 min 0,0 UV-I 0 W/m 3,5 C 4,4 C 11,3 km/h (2 Bft)
30.01.2021 04:19 4,4 C 3,9 C 94 % 1002,1 hPa 0,0 l/m 6,4 km/h (2 Bft) S-SW 202 0 min 0,0 UV-I 0 W/m 3,5 C 4,4 C 11,3 km/h (2 Bft)
30.01.2021 04:20 4,5 C 3,9 C 94 % 1002,1 hPa 0,0 l/m 6,4 km/h (2 Bft) SW 225 0 min 0,0 UV-I 0 W/m 3,6 C 4,5 C 9,7 km/h (2 Bft)
30.01.2021 04:21 4,4 C 3,9 C 94 % 1002,1 hPa 0,0 l/m 4,8 km/h (1 Bft) SW 225 0 min 0,0 UV-I 0 W/m 3,5 C 4,4 C 12,9 km/h (3 Bft)
30.01.2021 04:22 4,5 C 3,9 C 94 % 1002,0 hPa 0,0 l/m 6,4 km/h (2 Bft) W 270 0 min 0,0 UV-I 0 W/m 3,6 C 4,5 C 11,3 km/h (2 Bft)
30.01.2021 04:23 4,5 C 3,9 C 94 % 1002,1 hPa 0,0 l/m 8,0 km/h (2 Bft) SW 225 0 min 0,0 UV-I 0 W/m 3,6 C 3,1 C 9,7 km/h (2 Bft)
30.01.2021 04:24 4,5 C 3,9 C 94 % 1002,0 hPa 0,0 l/m 4,8 km/h (1 Bft) SW 225 0 min 0,0 UV-I 0 W/m 3,6 C 4,5 C 8,0 km/h (2 Bft)
30.01.2021 04:25 4,5 C 3,9 C 94 % 1002,1 hPa 0,0 l/m 6,4 km/h (2 Bft) SW 225 0 min 0,0 UV-I 0 W/m 3,6 C 4,5 C 11,3 km/h (2 Bft)
30.01.2021 04:26 4,5 C 3,9 C 94 % 1002,0 hPa 0,0 l/m 9,7 km/h (2 Bft) SW 225 0 min 0,0 UV-I 0 W/m 3,6 C 1,7 C 16,1 km/h (3 Bft)
30.01.2021 04:27 4,5 C 3,9 C 94 % 1002,1 hPa 0,0 l/m 8,0 km/h (2 Bft) SW 225 0 min 0,0 UV-I 0 W/m 3,6 C 3,1 C 16,1 km/h (3 Bft)
30.01.2021 04:28 4,6 C 3,9 C 94 % 1002,0 hPa 0,0 l/m 6,4 km/h (2 Bft) S-SW 202 0 min 0,0 UV-I 0 W/m 3,7 C 4,6 C 9,7 km/h (2 Bft)
30.01.2021 04:29 4,5 C 3,9 C 94 % 1002,0 hPa 0,0 l/m 6,4 km/h (2 Bft) W-SW 247 0 min 0,0 UV-I 0 W/m 3,6 C 4,5 C 12,9 km/h (3 Bft)
30.01.2021 04:30 4,6 C 3,9 C 94 % 1002,1 hPa 0,0 l/m 8,0 km/h (2 Bft) SW 225 0 min 0,0 UV-I 0 W/m 3,7 C 3,2 C 12,9 km/h (3 Bft)
30.01.2021 04:31 4,6 C 3,9 C 94 % 1002,1 hPa 0,0 l/m 6,4 km/h (2 Bft) SW 225 0 min 0,0 UV-I 0 W/m 3,7 C 4,6 C 12,9 km/h (3 Bft)
30.01.2021 04:32 4,6 C 3,9 C 94 % 1002,1 hPa 0,0 l/m 8,0 km/h (2 Bft) S-SW 202 0 min 0,0 UV-I 0 W/m 3,7 C 3,2 C 14,5 km/h (3 Bft)
30.01.2021 04:33 4,6 C 3,9 C 94 % 1002,0 hPa 0,0 l/m 9,7 km/h (2 Bft) SW 225 0 min 0,0 UV-I 0 W/m 3,7 C 1,8 C 16,1 km/h (3 Bft)
30.01.2021 04:34 4,6 C 3,9 C 94 % 1002,1 hPa 0,0 l/m 8,0 km/h (2 Bft) SW 225 0 min 0,0 UV-I 0 W/m 3,7 C 3,2 C 12,9 km/h (3 Bft)
30.01.2021 04:35 4,6 C 3,9 C 94 % 1002,1 hPa 0,0 l/m 6,4 km/h (2 Bft) S-SW 202 0 min 0,0 UV-I 0 W/m 3,7 C 4,6 C 17,7 km/h (3 Bft)
30.01.2021 04:36 4,6 C 3,9 C 95 % 1002,0 hPa 0,0 l/m 16,1 km/h (3 Bft) W-SW 247 0 min 0,0 UV-I 0 W/m 3,9 C -2,0 C 24,1 km/h (4 Bft)
30.01.2021 04:37 4,6 C 3,9 C 94 % 1002,1 hPa 0,0 l/m 6,4 km/h (2 Bft) SW 225 0 min 0,0 UV-I 0 W/m 3,7 C 4,6 C 11,3 km/h (2 Bft)
30.01.2021 04:38 4,6 C 3,9 C 94 % 1002,0 hPa 0,0 l/m 8,0 km/h (2 Bft) SW 225 0 min 0,0 UV-I 0 W/m 3,7 C 3,2 C 16,1 km/h (3 Bft)
30.01.2021 04:39 4,6 C 3,9 C 94 % 1002,0 hPa 0,0 l/m 16,1 km/h (3 Bft) SW 225 0 min 0,0 UV-I 0 W/m 3,7 C -2,0 C 24,1 km/h (4 Bft)
30.01.2021 04:40 4,6 C 3,9 C 95 % 1002,1 hPa 0,0 l/m 11,3 km/h (2 Bft) S-SW 202 0 min 0,0 UV-I 0 W/m 3,9 C 0,7 C 24,1 km/h (4 Bft)
30.01.2021 04:41 4,6 C 3,9 C 94 % 1002,0 hPa 0,0 l/m 11,3 km/h (2 Bft) SW 225 0 min 0,0 UV-I 0 W/m 3,7 C 0,7 C 19,3 km/h (3 Bft)
30.01.2021 04:42 4,6 C 3,9 C 94 % 1001,9 hPa 0,0 l/m 9,7 km/h (2 Bft) SW 225 0 min 0,0 UV-I 0 W/m 3,7 C 1,8 C 12,9 km/h (3 Bft)
30.01.2021 04:43 4,6 C 3,9 C 94 % 1002,0 hPa 0,0 l/m 9,7 km/h (2 Bft) SW 225 0 min 0,0 UV-I 0 W/m 3,7 C 1,8 C 17,7 km/h (3 Bft)
30.01.2021 04:44 4,6 C 3,9 C 94 % 1002,0 hPa 0,0 l/m 9,7 km/h (2 Bft) SW 225 0 min 0,0 UV-I 0 W/m 3,7 C 1,8 C 14,5 km/h (3 Bft)
30.01.2021 04:45 4,6 C 3,9 C 94 % 1002,0 hPa 0,0 l/m 11,3 km/h (2 Bft) S-SW 202 0 min 0,0 UV-I 0 W/m 3,7 C 0,7 C 17,7 km/h (3 Bft)
30.01.2021 04:46 4,6 C 3,9 C 94 % 1002,0 hPa 0,0 l/m 9,7 km/h (2 Bft) SW 225 0 min 0,0 UV-I 0 W/m 3,7 C 1,8 C 14,5 km/h (3 Bft)
30.01.2021 04:47 4,6 C 3,9 C 94 % 1001,9 hPa 0,0 l/m 9,7 km/h (2 Bft) W-SW 247 0 min 0,0 UV-I 0 W/m 3,7 C 1,8 C 14,5 km/h (3 Bft)
30.01.2021 04:48 4,6 C 3,9 C 94 % 1001,9 hPa 0,0 l/m 8,0 km/h (2 Bft) SW 225 0 min 0,0 UV-I 0 W/m 3,7 C 3,2 C 16,1 km/h (3 Bft)
30.01.2021 04:49 4,6 C 3,9 C 94 % 1002,0 hPa 0,0 l/m 6,4 km/h (2 Bft) S-SW 202 0 min 0,0 UV-I 0 W/m 3,7 C 4,6 C 12,9 km/h (3 Bft)
30.01.2021 04:50 4,6 C 3,9 C 94 % 1002,0 hPa 0,0 l/m 6,4 km/h (2 Bft) S-SW 202 0 min 0,0 UV-I 0 W/m 3,7 C 4,6 C 8,0 km/h (2 Bft)
30.01.2021 04:51 4,6 C 3,9 C 94 % 1001,9 hPa 0,0 l/m 6,4 km/h (2 Bft) W-SW 247 0 min 0,0 UV-I 0 W/m 3,7 C 4,6 C 11,3 km/h (2 Bft)
30.01.2021 04:52 4,6 C 3,9 C 94 % 1001,9 hPa 0,0 l/m 4,8 km/h (1 Bft) SW 225 0 min 0,0 UV-I 0 W/m 3,7 C 4,6 C 6,4 km/h (2 Bft)
30.01.2021 04:53 4,6 C 3,9 C 94 % 1002,1 hPa 0,0 l/m 4,8 km/h (1 Bft) W-SW 247 0 min 0,0 UV-I 0 W/m 3,7 C 4,6 C 6,4 km/h (2 Bft)
30.01.2021 04:54 4,6 C 3,9 C 94 % 1002,0 hPa 0,0 l/m 8,0 km/h (2 Bft) W-SW 247 0 min 0,0 UV-I 0 W/m 3,7 C 3,2 C 12,9 km/h (3 Bft)
30.01.2021 04:55 4,6 C 3,9 C 94 % 1002,0 hPa 0,0 l/m 8,0 km/h (2 Bft) SW 225 0 min 0,0 UV-I 0 W/m 3,7 C 3,2 C 11,3 km/h (2 Bft)
30.01.2021 04:56 4,6 C 3,9 C 94 % 1001,9 hPa 0,0 l/m 4,8 km/h (1 Bft) SW 225 0 min 0,0 UV-I 0 W/m 3,7 C 4,6 C 8,0 km/h (2 Bft)
30.01.2021 04:57 4,6 C 3,9 C 94 % 1002,0 hPa 0,0 l/m 8,0 km/h (2 Bft) SW 225 0 min 0,0 UV-I 0 W/m 3,7 C 3,2 C 12,9 km/h (3 Bft)
30.01.2021 04:58 4,6 C 3,9 C 94 % 1001,9 hPa 0,0 l/m 8,0 km/h (2 Bft) W-SW 247 0 min 0,0 UV-I 0 W/m 3,7 C 3,2 C 11,3 km/h (2 Bft)
30.01.2021 04:59 4,6 C 3,9 C 94 % 1002,0 hPa 0,0 l/m 6,4 km/h (2 Bft) W-SW 247 0 min 0,0 UV-I 0 W/m 3,7 C 4,6 C 11,3 km/h (2 Bft)
30.01.2021 05:00 4,5 C 3,9 C 94 % 1001,9 hPa 0,0 l/m 6,4 km/h (2 Bft) SW 225 0 min 0,0 UV-I 0 W/m 3,6 C 4,5 C 11,3 km/h (2 Bft)
30.01.2021 05:01 4,5 C 3,9 C 94 % 1002,0 hPa 0,0 l/m 6,4 km/h (2 Bft) W-SW 247 0 min 0,0 UV-I 0 W/m 3,6 C 4,5 C 11,3 km/h (2 Bft)
30.01.2021 05:02 4,4 C 3,9 C 94 % 1002,0 hPa 0,0 l/m 4,8 km/h (1 Bft) W-SW 247 0 min 0,0 UV-I 0 W/m 3,5 C 4,4 C 6,4 km/h (2 Bft)
30.01.2021 05:03 4,4 C 3,9 C 94 % 1001,9 hPa 0,0 l/m 6,4 km/h (2 Bft) W-SW 247 0 min 0,0 UV-I 0 W/m 3,5 C 4,4 C 11,3 km/h (2 Bft)
30.01.2021 05:04 4,5 C 3,9 C 94 % 1002,0 hPa 0,0 l/m 6,4 km/h (2 Bft) S-SW 202 0 min 0,0 UV-I 0 W/m 3,6 C 4,5 C 12,9 km/h (3 Bft)
30.01.2021 05:05 4,4 C 3,9 C 94 % 1001,9 hPa 0,0 l/m 8,0 km/h (2 Bft) W-SW 247 0 min 0,0 UV-I 0 W/m 3,5 C 3,0 C 11,3 km/h (2 Bft)
30.01.2021 05:06 4,4 C 3,9 C 94 % 1001,8 hPa 0,0 l/m 6,4 km/h (2 Bft) W-SW 247 0 min 0,0 UV-I 0 W/m 3,5 C 4,4 C 11,3 km/h (2 Bft)
30.01.2021 05:07 4,4 C 3,9 C 94 % 1001,9 hPa 0,0 l/m 8,0 km/h (2 Bft) W-SW 247 0 min 0,0 UV-I 0 W/m 3,5 C 3,0 C 12,9 km/h (3 Bft)
30.01.2021 05:08 4,4 C 3,9 C 94 % 1001,8 hPa 0,0 l/m 9,7 km/h (2 Bft) W-SW 247 0 min 0,0 UV-I 0 W/m 3,5 C 1,6 C 12,9 km/h (3 Bft)
30.01.2021 05:09 4,4 C 3,9 C 94 % 1001,8 hPa 0,0 l/m 6,4 km/h (2 Bft) W-SW 247 0 min 0,0 UV-I 0 W/m 3,5 C 4,4 C 9,7 km/h (2 Bft)
30.01.2021 05:10 4,4 C 3,9 C 94 % 1001,9 hPa 0,0 l/m 6,4 km/h (2 Bft) W-SW 247 0 min 0,0 UV-I 0 W/m 3,5 C 4,4 C 11,3 km/h (2 Bft)
30.01.2021 05:11 4,4 C 3,9 C 94 % 1001,8 hPa 0,0 l/m 6,4 km/h (2 Bft) SW 225 0 min 0,0 UV-I 0 W/m 3,5 C 4,4 C 9,7 km/h (2 Bft)
30.01.2021 05:12 4,4 C 3,9 C 94 % 1001,8 hPa 0,0 l/m 4,8 km/h (1 Bft) SW 225 0 min 0,0 UV-I 0 W/m 3,5 C 4,4 C 8,0 km/h (2 Bft)
30.01.2021 05:13 4,4 C 3,9 C 94 % 1001,8 hPa 0,0 l/m 6,4 km/h (2 Bft) SW 225 0 min 0,0 UV-I 0 W/m 3,5 C 4,4 C 14,5 km/h (3 Bft)
30.01.2021 05:14 4,4 C 3,9 C 94 % 1001,8 hPa 0,0 l/m 6,4 km/h (2 Bft) W-SW 247 0 min 0,0 UV-I 0 W/m 3,5 C 4,4 C 14,5 km/h (3 Bft)
30.01.2021 05:15 4,3 C 3,9 C 94 % 1001,8 hPa 0,0 l/m 8,0 km/h (2 Bft) W-SW 247 0 min 0,0 UV-I 0 W/m 3,4 C 2,9 C 11,3 km/h (2 Bft)
30.01.2021 05:16 4,3 C 3,9 C 94 % 1001,9 hPa 0,0 l/m 4,8 km/h (1 Bft) W-SW 247 0 min 0,0 UV-I 0 W/m 3,4 C 4,3 C 6,4 km/h (2 Bft)
30.01.2021 05:17 4,3 C 3,9 C 94 % 1001,8 hPa 0,0 l/m 4,8 km/h (1 Bft) W-SW 247 0 min 0,0 UV-I 0 W/m 3,4 C 4,3 C 11,3 km/h (2 Bft)
30.01.2021 05:18 4,3 C 3,9 C 94 % 1001,9 hPa 0,0 l/m 6,4 km/h (2 Bft) W-SW 247 0 min 0,0 UV-I 0 W/m 3,4 C 4,3 C 11,3 km/h (2 Bft)
30.01.2021 05:19 4,3 C 3,9 C 94 % 1001,9 hPa 0,0 l/m 8,0 km/h (2 Bft) SW 225 0 min 0,0 UV-I 0 W/m 3,4 C 2,9 C 12,9 km/h (3 Bft)
30.01.2021 05:20 4,3 C 3,9 C 94 % 1001,9 hPa 0,0 l/m 8,0 km/h (2 Bft) SW 225 0 min 0,0 UV-I 0 W/m 3,4 C 2,9 C 12,9 km/h (3 Bft)
30.01.2021 05:21 4,3 C 3,9 C 94 % 1001,9 hPa 0,0 l/m 4,8 km/h (1 Bft) SW 225 0 min 0,0 UV-I 0 W/m 3,4 C 4,3 C 6,4 km/h (2 Bft)
30.01.2021 05:22 4,3 C 3,9 C 94 % 1001,9 hPa 0,0 l/m 6,4 km/h (2 Bft) SW 225 0 min 0,0 UV-I 0 W/m 3,4 C 4,3 C 9,7 km/h (2 Bft)
30.01.2021 05:23 4,3 C 3,9 C 94 % 1001,8 hPa 0,0 l/m 3,2 km/h (1 Bft) SW 225 0 min 0,0 UV-I 0 W/m 3,4 C 4,3 C 4,8 km/h (1 Bft)
30.01.2021 05:24 4,3 C 3,9 C 94 % 1001,8 hPa 0,0 l/m 3,2 km/h (1 Bft) SW 225 0 min 0,0 UV-I 0 W/m 3,4 C 4,3 C 6,4 km/h (2 Bft)
30.01.2021 05:25 4,3 C 3,9 C 94 % 1001,8 hPa 0,0 l/m 3,2 km/h (1 Bft) SW 225 0 min 0,0 UV-I 0 W/m 3,4 C 4,3 C 6,4 km/h (2 Bft)
30.01.2021 05:26 4,3 C 3,9 C 94 % 1001,7 hPa 0,2 l/m 4,8 km/h (1 Bft) SW 225 0 min 0,0 UV-I 0 W/m 3,4 C 4,3 C 9,7 km/h (2 Bft)
30.01.2021 05:27 4,3 C 3,3 C 94 % 1001,8 hPa 0,0 l/m 3,2 km/h (1 Bft) SW 225 0 min 0,0 UV-I 0 W/m 3,4 C 4,3 C 4,8 km/h (1 Bft)
30.01.2021 05:28 4,3 C 3,3 C 94 % 1001,8 hPa 0,0 l/m 4,8 km/h (1 Bft) SW 225 0 min 0,0 UV-I 0 W/m 3,4 C 4,3 C 8,0 km/h (2 Bft)
30.01.2021 05:29 4,3 C 3,3 C 94 % 1001,7 hPa 0,0 l/m 3,2 km/h (1 Bft) SW 225 0 min 0,0 UV-I 0 W/m 3,4 C 4,3 C 6,4 km/h (2 Bft)
30.01.2021 05:30 4,3 C 3,3 C 94 % 1001,7 hPa 0,0 l/m 4,8 km/h (1 Bft) SW 225 0 min 0,0 UV-I 0 W/m 3,4 C 4,3 C 6,4 km/h (2 Bft)
30.01.2021 05:31 4,3 C 3,3 C 94 % 1001,7 hPa 0,0 l/m 3,2 km/h (1 Bft) SW 225 0 min 0,0 UV-I 0 W/m 3,4 C 4,3 C 4,8 km/h (1 Bft)
30.01.2021 05:32 4,3 C 3,3 C 94 % 1001,7 hPa 0,0 l/m 1,6 km/h (1 Bft) SW 225 0 min 0,0 UV-I 0 W/m 3,4 C 4,3 C 3,2 km/h (1 Bft)
30.01.2021 05:33 4,3 C 3,3 C 94 % 1001,7 hPa 0,0 l/m 3,2 km/h (1 Bft) SW 225 0 min 0,0 UV-I 0 W/m 3,4 C 4,3 C 4,8 km/h (1 Bft)
30.01.2021 05:34 4,3 C 3,3 C 94 % 1001,7 hPa 0,0 l/m 4,8 km/h (1 Bft) SW 225 0 min 0,0 UV-I 0 W/m 3,4 C 4,3 C 9,7 km/h (2 Bft)
30.01.2021 05:35 4,3 C 3,3 C 94 % 1001,8 hPa 0,0 l/m 4,8 km/h (1 Bft) SW 225 0 min 0,0 UV-I 0 W/m 3,4 C 4,3 C 8,0 km/h (2 Bft)
30.01.2021 05:36 4,3 C 3,3 C 94 % 1001,8 hPa 0,0 l/m 3,2 km/h (1 Bft) SW 225 0 min 0,0 UV-I 0 W/m 3,4 C 4,3 C 4,8 km/h (1 Bft)
30.01.2021 05:37 4,3 C 3,3 C 94 % 1001,8 hPa 0,0 l/m 3,2 km/h (1 Bft) SW 225 0 min 0,0 UV-I 0 W/m 3,4 C 4,3 C 4,8 km/h (1 Bft)
30.01.2021 05:38 4,3 C 3,3 C 94 % 1001,8 hPa 0,0 l/m 3,2 km/h (1 Bft) SW 225 0 min 0,0 UV-I 0 W/m 3,4 C 4,3 C 4,8 km/h (1 Bft)
30.01.2021 05:39 4,3 C 3,3 C 94 % 1001,6 hPa 0,0 l/m 3,2 km/h (1 Bft) SW 225 0 min 0,0 UV-I 0 W/m 3,4 C 4,3 C 4,8 km/h (1 Bft)
30.01.2021 05:40 4,3 C 3,3 C 94 % 1001,7 hPa 0,0 l/m 3,2 km/h (1 Bft) SW 225 0 min 0,0 UV-I 0 W/m 3,4 C 4,3 C 6,4 km/h (2 Bft)
30.01.2021 05:41 4,3 C 3,3 C 94 % 1001,6 hPa 0,0 l/m 4,8 km/h (1 Bft) SW 225 0 min 0,0 UV-I 0 W/m 3,4 C 4,3 C 11,3 km/h (2 Bft)
30.01.2021 05:42 4,3 C 3,9 C 94 % 1001,6 hPa 0,0 l/m 3,2 km/h (1 Bft) SW 225 0 min 0,0 UV-I 0 W/m 3,4 C 4,3 C 4,8 km/h (1 Bft)
30.01.2021 05:43 4,3 C 3,9 C 94 % 1001,6 hPa 0,0 l/m 4,8 km/h (1 Bft) SW 225 0 min 0,0 UV-I 0 W/m 3,4 C 4,3 C 6,4 km/h (2 Bft)
30.01.2021 05:44 4,2 C 3,3 C 94 % 1001,6 hPa 0,0 l/m 4,8 km/h (1 Bft) SW 225 0 min 0,0 UV-I 0 W/m 3,3 C 4,2 C 6,4 km/h (2 Bft)
30.01.2021 05:45 4,3 C 3,3 C 94 % 1001,6 hPa 0,0 l/m 3,2 km/h (1 Bft) SW 225 0 min 0,0 UV-I 0 W/m 3,4 C 4,3 C 4,8 km/h (1 Bft)
30.01.2021 05:46 4,3 C 3,9 C 94 % 1001,7 hPa 0,0 l/m 3,2 km/h (1 Bft) SW 225 0 min 0,0 UV-I 0 W/m 3,4 C 4,3 C 4,8 km/h (1 Bft)
30.01.2021 05:47 4,2 C 3,9 C 94 % 1001,6 hPa 0,0 l/m 1,6 km/h (1 Bft) SW 225 0 min 0,0 UV-I 0 W/m 3,3 C 4,2 C 6,4 km/h (2 Bft)
30.01.2021 05:48 4,3 C 3,9 C 94 % 1001,7 hPa 0,0 l/m 3,2 km/h (1 Bft) W-SW 247 0 min 0,0 UV-I 0 W/m 3,4 C 4,3 C 6,4 km/h (2 Bft)
30.01.2021 05:49 4,3 C 3,9 C 94 % 1001,6 hPa 0,0 l/m 6,4 km/h (2 Bft) SW 225 0 min 0,0 UV-I 0 W/m 3,4 C 4,3 C 11,3 km/h (2 Bft)
30.01.2021 05:50 4,2 C 3,9 C 94 % 1001,5 hPa 0,0 l/m 4,8 km/h (1 Bft) W-SW 247 0 min 0,0 UV-I 0 W/m 3,3 C 4,2 C 8,0 km/h (2 Bft)
30.01.2021 05:51 4,3 C 3,9 C 94 % 1001,6 hPa 0,0 l/m 3,2 km/h (1 Bft) SW 225 0 min 0,0 UV-I 0 W/m 3,4 C 4,3 C 6,4 km/h (2 Bft)
30.01.2021 05:52 4,3 C 3,9 C 94 % 1001,5 hPa 0,0 l/m 4,8 km/h (1 Bft) SW 225 0 min 0,0 UV-I 0 W/m 3,4 C 4,3 C 6,4 km/h (2 Bft)
30.01.2021 05:53 4,3 C 3,9 C 94 % 1001,6 hPa 0,0 l/m 3,2 km/h (1 Bft) W-SW 247 0 min 0,0 UV-I 0 W/m 3,4 C 4,3 C 6,4 km/h (2 Bft)
30.01.2021 05:54 4,3 C 3,9 C 94 % 1001,5 hPa 0,0 l/m 4,8 km/h (1 Bft) S-SW 202 0 min 0,0 UV-I 0 W/m 3,4 C 4,3 C 6,4 km/h (2 Bft)
30.01.2021 05:55 4,2 C 3,9 C 94 % 1001,4 hPa 0,0 l/m 4,8 km/h (1 Bft) S-SW 202 0 min 0,0 UV-I 0 W/m 3,3 C 4,2 C 6,4 km/h (2 Bft)
30.01.2021 05:56 4,3 C 3,9 C 94 % 1001,5 hPa 0,0 l/m 4,8 km/h (1 Bft) S-SW 202 0 min 0,0 UV-I 0 W/m 3,4 C 4,3 C 6,4 km/h (2 Bft)
30.01.2021 05:57 4,3 C 3,9 C 94 % 1001,4 hPa 0,0 l/m 4,8 km/h (1 Bft) SW 225 0 min 0,0 UV-I 0 W/m 3,4 C 4,3 C 8,0 km/h (2 Bft)
30.01.2021 05:58 4,2 C 3,9 C 94 % 1001,5 hPa 0,0 l/m 4,8 km/h (1 Bft) S-SW 202 0 min 0,0 UV-I 0 W/m 3,3 C 4,2 C 6,4 km/h (2 Bft)
30.01.2021 05:59 4,2 C 3,9 C 94 % 1001,4 hPa 0,0 l/m 3,2 km/h (1 Bft) S-SW 202 0 min 0,0 UV-I 0 W/m 3,3 C 4,2 C 4,8 km/h (1 Bft)
30.01.2021 06:00 4,3 C 3,9 C 94 % 1001,5 hPa 0,0 l/m 3,2 km/h (1 Bft) S-SW 202 0 min 0,0 UV-I 0 W/m 3,4 C 4,3 C 6,4 km/h (2 Bft)
30.01.2021 06:01 4,2 C 3,9 C 94 % 1001,5 hPa 0,0 l/m 1,6 km/h (1 Bft) S-SW 202 0 min 0,0 UV-I 0 W/m 3,3 C 4,2 C 3,2 km/h (1 Bft)
30.01.2021 06:02 4,3 C 3,9 C 94 % 1001,4 hPa 0,0 l/m 3,2 km/h (1 Bft) S-SW 202 0 min 0,0 UV-I 0 W/m 3,4 C 4,3 C 4,8 km/h (1 Bft)
30.01.2021 06:03 4,2 C 3,9 C 94 % 1001,4 hPa 0,0 l/m 4,8 km/h (1 Bft) S-SW 202 0 min 0,0 UV-I 0 W/m 3,3 C 4,2 C 6,4 km/h (2 Bft)
30.01.2021 06:04 4,3 C 3,9 C 94 % 1001,5 hPa 0,0 l/m 4,8 km/h (1 Bft) SW 225 0 min 0,0 UV-I 0 W/m 3,4 C 4,3 C 4,8 km/h (1 Bft)
30.01.2021 06:05 4,3 C 3,9 C 95 % 1001,4 hPa 0,0 l/m 3,2 km/h (1 Bft) SW 225 0 min 0,0 UV-I 0 W/m 3,6 C 4,3 C 6,4 km/h (2 Bft)
30.01.2021 06:06 4,3 C 3,9 C 95 % 1001,4 hPa 0,0 l/m 4,8 km/h (1 Bft) SW 225 0 min 0,0 UV-I 0 W/m 3,6 C 4,3 C 8,0 km/h (2 Bft)
30.01.2021 06:07 4,3 C 3,9 C 94 % 1001,4 hPa 0,2 l/m 1,6 km/h (1 Bft) SW 225 0 min 0,0 UV-I 0 W/m 3,4 C 4,3 C 3,2 km/h (1 Bft)
30.01.2021 06:08 4,3 C 3,9 C 95 % 1001,4 hPa 0,0 l/m 1,6 km/h (1 Bft) SW 225 0 min 0,0 UV-I 0 W/m 3,6 C 4,3 C 1,6 km/h (1 Bft)
30.01.2021 06:09 4,3 C 3,9 C 95 % 1001,4 hPa 0,0 l/m 1,6 km/h (1 Bft) SW 225 0 min 0,0 UV-I 0 W/m 3,6 C 4,3 C 4,8 km/h (1 Bft)
30.01.2021 06:10 4,3 C 3,9 C 95 % 1001,4 hPa 0,0 l/m 3,2 km/h (1 Bft) SW 225 0 min 0,0 UV-I 0 W/m 3,6 C 4,3 C 3,2 km/h (1 Bft)
30.01.2021 06:11 4,3 C 3,9 C 95 % 1001,4 hPa 0,0 l/m 1,6 km/h (1 Bft) SW 225 0 min 0,0 UV-I 0 W/m 3,6 C 4,3 C 1,6 km/h (1 Bft)
30.01.2021 06:12 4,3 C 3,9 C 95 % 1001,4 hPa 0,0 l/m 3,2 km/h (1 Bft) SW 225 0 min 0,0 UV-I 0 W/m 3,6 C 4,3 C 4,8 km/h (1 Bft)
30.01.2021 06:13 4,3 C 3,9 C 94 % 1001,5 hPa 0,0 l/m 3,2 km/h (1 Bft) SW 225 0 min 0,0 UV-I 0 W/m 3,4 C 4,3 C 6,4 km/h (2 Bft)
30.01.2021 06:14 4,3 C 3,9 C 94 % 1001,4 hPa 0,0 l/m 4,8 km/h (1 Bft) SW 225 0 min 0,0 UV-I 0 W/m 3,4 C 4,3 C 4,8 km/h (1 Bft)
30.01.2021 06:15 4,3 C 3,9 C 94 % 1001,5 hPa 0,0 l/m 3,2 km/h (1 Bft) SW 225 0 min 0,0 UV-I 0 W/m 3,4 C 4,3 C 4,8 km/h (1 Bft)
30.01.2021 06:16 4,3 C 3,9 C 94 % 1001,5 hPa 0,0 l/m 3,2 km/h (1 Bft) SW 225 0 min 0,0 UV-I 0 W/m 3,4 C 4,3 C 4,8 km/h (1 Bft)
30.01.2021 06:17 4,3 C 3,9 C 94 % 1001,4 hPa 0,0 l/m 6,4 km/h (2 Bft) SW 225 0 min 0,0 UV-I 0 W/m 3,4 C 4,3 C 9,7 km/h (2 Bft)
30.01.2021 06:18 4,3 C 3,9 C 94 % 1001,4 hPa 0,0 l/m 9,7 km/h (2 Bft) SW 225 0 min 0,0 UV-I 0 W/m 3,4 C 1,5 C 14,5 km/h (3 Bft)
30.01.2021 06:19 4,3 C 3,9 C 95 % 1001,4 hPa 0,0 l/m 6,4 km/h (2 Bft) SW 225 0 min 0,0 UV-I 0 W/m 3,6 C 4,3 C 9,7 km/h (2 Bft)
30.01.2021 06:20 4,3 C 3,9 C 95 % 1001,4 hPa 0,0 l/m 4,8 km/h (1 Bft) SW 225 0 min 0,0 UV-I 0 W/m 3,6 C 4,3 C 6,4 km/h (2 Bft)
30.01.2021 06:21 4,3 C 3,9 C 95 % 1001,4 hPa 0,2 l/m 4,8 km/h (1 Bft) SW 225 0 min 0,0 UV-I 0 W/m 3,6 C 4,3 C 4,8 km/h (1 Bft)
30.01.2021 06:22 4,3 C 3,9 C 95 % 1001,4 hPa 0,0 l/m 1,6 km/h (1 Bft) SW 225 0 min 0,0 UV-I 0 W/m 3,6 C 4,3 C 3,2 km/h (1 Bft)
30.01.2021 06:23 4,3 C 3,9 C 95 % 1001,4 hPa 0,0 l/m 1,6 km/h (1 Bft) SW 225 0 min 0,0 UV-I 0 W/m 3,6 C 4,3 C 3,2 km/h (1 Bft)
30.01.2021 06:24 4,3 C 3,9 C 95 % 1001,3 hPa 0,0 l/m 3,2 km/h (1 Bft) SW 225 0 min 0,0 UV-I 0 W/m 3,6 C 4,3 C 6,4 km/h (2 Bft)
30.01.2021 06:25 4,3 C 3,9 C 95 % 1001,3 hPa 0,0 l/m 3,2 km/h (1 Bft) SW 225 0 min 0,0 UV-I 0 W/m 3,6 C 4,3 C 6,4 km/h (2 Bft)
30.01.2021 06:26 4,3 C 3,9 C 95 % 1001,3 hPa 0,0 l/m 6,4 km/h (2 Bft) S-SW 202 0 min 0,0 UV-I 0 W/m 3,6 C 4,3 C 9,7 km/h (2 Bft)
30.01.2021 06:27 4,4 C 3,9 C 95 % 1001,3 hPa 0,0 l/m 4,8 km/h (1 Bft) S-SW 202 0 min 0,0 UV-I 0 W/m 3,7 C 4,4 C 6,4 km/h (2 Bft)
30.01.2021 06:28 4,3 C 3,9 C 95 % 1001,3 hPa 0,0 l/m 3,2 km/h (1 Bft) S-SW 202 0 min 0,0 UV-I 0 W/m 3,6 C 4,3 C 4,8 km/h (1 Bft)
30.01.2021 06:29 4,4 C 3,9 C 95 % 1001,3 hPa 0,0 l/m 6,4 km/h (2 Bft) S-SW 202 0 min 0,0 UV-I 0 W/m 3,7 C 4,4 C 11,3 km/h (2 Bft)
30.01.2021 06:30 4,4 C 3,9 C 95 % 1001,3 hPa 0,0 l/m 8,0 km/h (2 Bft) SW 225 0 min 0,0 UV-I 0 W/m 3,7 C 3,0 C 9,7 km/h (2 Bft)
30.01.2021 06:31 4,4 C 3,9 C 95 % 1001,2 hPa 0,0 l/m 6,4 km/h (2 Bft) S-SW 202 0 min 0,0 UV-I 0 W/m 3,7 C 4,4 C 8,0 km/h (2 Bft)
30.01.2021 06:32 4,4 C 3,9 C 95 % 1001,3 hPa 0,0 l/m 6,4 km/h (2 Bft) SW 225 0 min 0,0 UV-I 0 W/m 3,7 C 4,4 C 9,7 km/h (2 Bft)
30.01.2021 06:33 4,4 C 3,9 C 95 % 1001,2 hPa 0,2 l/m 4,8 km/h (1 Bft) S-SW 202 0 min 0,0 UV-I 0 W/m 3,7 C 4,4 C 8,0 km/h (2 Bft)
30.01.2021 06:34 4,4 C 3,9 C 95 % 1001,3 hPa 0,0 l/m 4,8 km/h (1 Bft) SW 225 0 min 0,0 UV-I 0 W/m 3,7 C 4,4 C 6,4 km/h (2 Bft)
30.01.2021 06:35 4,4 C 3,9 C 95 % 1001,2 hPa 0,0 l/m 6,4 km/h (2 Bft) SW 225 0 min 0,0 UV-I 0 W/m 3,7 C 4,4 C 8,0 km/h (2 Bft)
30.01.2021 06:36 4,4 C 3,9 C 95 % 1001,2 hPa 0,0 l/m 6,4 km/h (2 Bft) S-SW 202 0 min 0,0 UV-I 0 W/m 3,7 C 4,4 C 8,0 km/h (2 Bft)
30.01.2021 06:37 4,5 C 3,9 C 95 % 1001,1 hPa 0,0 l/m 6,4 km/h (2 Bft) S-SW 202 0 min 0,0 UV-I 0 W/m 3,8 C 4,5 C 9,7 km/h (2 Bft)
30.01.2021 06:38 4,5 C 3,9 C 95 % 1001,2 hPa 0,0 l/m 9,7 km/h (2 Bft) S-SW 202 0 min 0,0 UV-I 0 W/m 3,8 C 1,7 C 11,3 km/h (2 Bft)
30.01.2021 06:39 4,5 C 3,9 C 95 % 1001,1 hPa 0,0 l/m 4,8 km/h (1 Bft) SW 225 0 min 0,0 UV-I 0 W/m 3,8 C 4,5 C 8,0 km/h (2 Bft)
30.01.2021 06:40 4,5 C 3,9 C 95 % 1001,2 hPa 0,0 l/m 6,4 km/h (2 Bft) SW 225 0 min 0,0 UV-I 0 W/m 3,8 C 4,5 C 9,7 km/h (2 Bft)
30.01.2021 06:41 4,5 C 3,9 C 95 % 1001,2 hPa 0,0 l/m 8,0 km/h (2 Bft) S-SW 202 0 min 0,0 UV-I 0 W/m 3,8 C 3,1 C 9,7 km/h (2 Bft)
30.01.2021 06:42 4,5 C 3,9 C 95 % 1001,2 hPa 0,0 l/m 6,4 km/h (2 Bft) SW 225 0 min 0,0 UV-I 0 W/m 3,8 C 4,5 C 11,3 km/h (2 Bft)
30.01.2021 06:43 4,5 C 3,9 C 95 % 1001,0 hPa 0,0 l/m 8,0 km/h (2 Bft) SW 225 0 min 0,0 UV-I 0 W/m 3,8 C 3,1 C 9,7 km/h (2 Bft)
30.01.2021 06:44 4,5 C 3,9 C 95 % 1001,2 hPa 0,0 l/m 6,4 km/h (2 Bft) W-SW 247 0 min 0,0 UV-I 0 W/m 3,8 C 4,5 C 9,7 km/h (2 Bft)
30.01.2021 06:45 4,6 C 3,9 C 95 % 1001,2 hPa 0,0 l/m 6,4 km/h (2 Bft) S-SW 202 0 min 0,0 UV-I 0 W/m 3,9 C 4,6 C 9,7 km/h (2 Bft)
30.01.2021 06:46 4,6 C 3,9 C 95 % 1001,0 hPa 0,0 l/m 6,4 km/h (2 Bft) SW 225 0 min 0,0 UV-I 0 W/m 3,9 C 4,6 C 11,3 km/h (2 Bft)
30.01.2021 06:47 4,6 C 3,9 C 95 % 1001,1 hPa 0,0 l/m 6,4 km/h (2 Bft) S-SW 202 0 min 0,0 UV-I 0 W/m 3,9 C 4,6 C 9,7 km/h (2 Bft)
30.01.2021 06:48 4,6 C 3,9 C 95 % 1001,0 hPa 0,2 l/m 4,8 km/h (1 Bft) SW 225 0 min 0,0 UV-I 0 W/m 3,9 C 4,6 C 8,0 km/h (2 Bft)
30.01.2021 06:49 4,6 C 3,9 C 95 % 1001,1 hPa 0,0 l/m 9,7 km/h (2 Bft) SW 225 0 min 0,0 UV-I 0 W/m 3,9 C 1,8 C 12,9 km/h (3 Bft)
30.01.2021 06:50 4,6 C 3,9 C 95 % 1001,0 hPa 0,0 l/m 8,0 km/h (2 Bft) S-SW 202 0 min 0,0 UV-I 0 W/m 3,9 C 3,2 C 14,5 km/h (3 Bft)
30.01.2021 06:51 4,6 C 3,9 C 95 % 1001,0 hPa 0,0 l/m 9,7 km/h (2 Bft) SW 225 0 min 0,0 UV-I 0 W/m 3,9 C 1,8 C 12,9 km/h (3 Bft)
30.01.2021 06:52 4,6 C 3,9 C 95 % 1001,0 hPa 0,0 l/m 11,3 km/h (2 Bft) S-SW 202 0 min 0,0 UV-I 0 W/m 3,9 C 0,7 C 16,1 km/h (3 Bft)
30.01.2021 06:53 4,6 C 3,9 C 95 % 1001,0 hPa 0,0 l/m 6,4 km/h (2 Bft) SW 225 0 min 0,0 UV-I 0 W/m 3,9 C 4,6 C 9,7 km/h (2 Bft)
30.01.2021 06:54 4,6 C 3,9 C 95 % 1001,0 hPa 0,0 l/m 6,4 km/h (2 Bft) S-SW 202 0 min 0,0 UV-I 0 W/m 3,9 C 4,6 C 9,7 km/h (2 Bft)
30.01.2021 06:55 4,6 C 3,9 C 95 % 1000,9 hPa 0,0 l/m 9,7 km/h (2 Bft) SW 225 0 min 0,0 UV-I 0 W/m 3,9 C 1,8 C 16,1 km/h (3 Bft)
30.01.2021 06:56 4,6 C 3,9 C 95 % 1000,9 hPa 0,0 l/m 12,9 km/h (3 Bft) SW 225 0 min 0,0 UV-I 0 W/m 3,9 C -0,2 C 17,7 km/h (3 Bft)
30.01.2021 06:57 4,6 C 3,9 C 95 % 1000,9 hPa 0,0 l/m 8,0 km/h (2 Bft) SW 225 0 min 0,0 UV-I 0 W/m 3,9 C 3,2 C 16,1 km/h (3 Bft)
30.01.2021 06:58 4,6 C 3,9 C 95 % 1001,0 hPa 0,0 l/m 4,8 km/h (1 Bft) SW 225 0 min 0,0 UV-I 0 W/m 3,9 C 4,6 C 8,0 km/h (2 Bft)
30.01.2021 06:59 4,6 C 3,9 C 95 % 1000,9 hPa 0,0 l/m 8,0 km/h (2 Bft) SW 225 0 min 0,0 UV-I 0 W/m 3,9 C 3,2 C 11,3 km/h (2 Bft)
30.01.2021 07:00 4,6 C 3,9 C 95 % 1000,9 hPa 0,0 l/m 6,4 km/h (2 Bft) W-SW 247 0 min 0,0 UV-I 0 W/m 3,9 C 4,6 C 11,3 km/h (2 Bft)
30.01.2021 07:01 4,6 C 3,9 C 95 % 1000,9 hPa 0,0 l/m 4,8 km/h (1 Bft) S-SW 202 0 min 0,0 UV-I 0 W/m 3,9 C 4,6 C 6,4 km/h (2 Bft)
30.01.2021 07:02 4,6 C 3,9 C 95 % 1000,9 hPa 0,0 l/m 3,2 km/h (1 Bft) S-SW 202 0 min 0,0 UV-I 0 W/m 3,9 C 4,6 C 4,8 km/h (1 Bft)
30.01.2021 07:03 4,6 C 3,9 C 95 % 1000,8 hPa 0,0 l/m 6,4 km/h (2 Bft) S-SW 202 0 min 0,0 UV-I 0 W/m 3,9 C 4,6 C 11,3 km/h (2 Bft)
30.01.2021 07:04 4,6 C 3,9 C 95 % 1000,9 hPa 0,0 l/m 12,9 km/h (3 Bft) SW 225 0 min 0,0 UV-I 0 W/m 3,9 C -0,2 C 17,7 km/h (3 Bft)
30.01.2021 07:05 4,6 C 3,9 C 95 % 1000,9 hPa 0,0 l/m 12,9 km/h (3 Bft) SW 225 0 min 0,0 UV-I 0 W/m 3,9 C -0,2 C 16,1 km/h (3 Bft)
30.01.2021 07:06 4,6 C 3,9 C 95 % 1000,9 hPa 0,0 l/m 8,0 km/h (2 Bft) SW 225 0 min 0,0 UV-I 0 W/m 3,9 C 3,2 C 11,3 km/h (2 Bft)
30.01.2021 07:07 4,6 C 3,9 C 95 % 1000,9 hPa 0,0 l/m 8,0 km/h (2 Bft) SW 225 0 min 0,0 UV-I 0 W/m 3,9 C 3,2 C 14,5 km/h (3 Bft)
30.01.2021 07:08 4,6 C 3,9 C 95 % 1000,9 hPa 0,0 l/m 9,7 km/h (2 Bft) S-SW 202 0 min 0,0 UV-I 0 W/m 3,9 C 1,8 C 16,1 km/h (3 Bft)
30.01.2021 07:09 4,6 C 3,9 C 95 % 1000,8 hPa 0,0 l/m 8,0 km/h (2 Bft) SW 225 0 min 0,0 UV-I 0 W/m 3,9 C 3,2 C 12,9 km/h (3 Bft)
30.01.2021 07:10 4,6 C 3,9 C 95 % 1000,9 hPa 0,0 l/m 6,4 km/h (2 Bft) SW 225 0 min 0,0 UV-I 0 W/m 3,9 C 4,6 C 8,0 km/h (2 Bft)
30.01.2021 07:11 4,6 C 3,9 C 95 % 1000,9 hPa 0,0 l/m 8,0 km/h (2 Bft) S-SW 202 0 min 0,0 UV-I 0 W/m 3,9 C 3,2 C 11,3 km/h (2 Bft)
30.01.2021 07:12 4,6 C 3,9 C 95 % 1000,8 hPa 0,0 l/m 4,8 km/h (1 Bft) SW 225 0 min 0,0 UV-I 0 W/m 3,9 C 4,6 C 6,4 km/h (2 Bft)
30.01.2021 07:13 4,6 C 3,9 C 95 % 1000,8 hPa 0,0 l/m 4,8 km/h (1 Bft) S-SW 202 0 min 0,0 UV-I 0 W/m 3,9 C 4,6 C 8,0 km/h (2 Bft)
30.01.2021 07:14 4,6 C 3,9 C 95 % 1000,8 hPa 0,0 l/m 6,4 km/h (2 Bft) S-SW 202 0 min 0,0 UV-I 0 W/m 3,9 C 4,6 C 9,7 km/h (2 Bft)
30.01.2021 07:15 4,6 C 3,9 C 95 % 1000,9 hPa 0,0 l/m 8,0 km/h (2 Bft) S-SW 202 0 min 0,0 UV-I 0 W/m 3,9 C 3,2 C 11,3 km/h (2 Bft)
30.01.2021 07:16 4,6 C 3,9 C 95 % 1000,8 hPa 0,0 l/m 8,0 km/h (2 Bft) SW 225 0 min 0,0 UV-I 0 W/m 3,9 C 3,2 C 12,9 km/h (3 Bft)
30.01.2021 07:17 4,6 C 3,9 C 95 % 1000,8 hPa 0,0 l/m 11,3 km/h (2 Bft) S-SW 202 0 min 0,0 UV-I 0 W/m 3,9 C 0,7 C 14,5 km/h (3 Bft)
30.01.2021 07:18 4,6 C 3,9 C 95 % 1000,8 hPa 0,0 l/m 8,0 km/h (2 Bft) SW 225 0 min 0,0 UV-I 0 W/m 3,9 C 3,2 C 11,3 km/h (2 Bft)
30.01.2021 07:19 4,6 C 3,9 C 95 % 1000,9 hPa 0,0 l/m 11,3 km/h (2 Bft) S-SW 202 0 min 0,0 UV-I 0 W/m 3,9 C 0,7 C 17,7 km/h (3 Bft)
30.01.2021 07:20 4,6 C 3,9 C 95 % 1000,8 hPa 0,0 l/m 9,7 km/h (2 Bft) S-SW 202 0 min 0,0 UV-I 0 W/m 3,9 C 1,8 C 16,1 km/h (3 Bft)
30.01.2021 07:21 4,6 C 3,9 C 95 % 1000,9 hPa 0,0 l/m 6,4 km/h (2 Bft) S-SW 202 0 min 0,0 UV-I 0 W/m 3,9 C 4,6 C 16,1 km/h (3 Bft)
30.01.2021 07:22 4,6 C 3,9 C 95 % 1000,8 hPa 0,0 l/m 9,7 km/h (2 Bft) SW 225 0 min 0,0 UV-I 0 W/m 3,9 C 1,8 C 12,9 km/h (3 Bft)
30.01.2021 07:23 4,6 C 3,9 C 95 % 1000,8 hPa 0,0 l/m 9,7 km/h (2 Bft) S-SW 202 0 min 0,0 UV-I 0 W/m 3,9 C 1,8 C 14,5 km/h (3 Bft)
30.01.2021 07:24 4,6 C 3,9 C 95 % 1000,9 hPa 0,0 l/m 8,0 km/h (2 Bft) W-SW 247 0 min 0,0 UV-I 0 W/m 3,9 C 3,2 C 12,9 km/h (3 Bft)
30.01.2021 07:25 4,6 C 3,9 C 95 % 1000,8 hPa 0,0 l/m 8,0 km/h (2 Bft) SW 225 0 min 0,0 UV-I 0 W/m 3,9 C 3,2 C 9,7 km/h (2 Bft)
30.01.2021 07:26 4,6 C 3,9 C 95 % 1000,8 hPa 0,0 l/m 4,8 km/h (1 Bft) SW 225 0 min 0,0 UV-I 0 W/m 3,9 C 4,6 C 9,7 km/h (2 Bft)
30.01.2021 07:27 4,6 C 3,9 C 95 % 1000,7 hPa 0,0 l/m 8,0 km/h (2 Bft) S-SW 202 0 min 0,0 UV-I 0 W/m 3,9 C 3,2 C 11,3 km/h (2 Bft)
30.01.2021 07:28 4,5 C 3,9 C 95 % 1000,8 hPa 0,0 l/m 8,0 km/h (2 Bft) S-SW 202 0 min 0,0 UV-I 0 W/m 3,8 C 3,1 C 11,3 km/h (2 Bft)
30.01.2021 07:29 4,5 C 3,9 C 95 % 1000,8 hPa 0,0 l/m 9,7 km/h (2 Bft) S-SW 202 0 min 0,0 UV-I 0 W/m 3,8 C 1,7 C 12,9 km/h (3 Bft)
30.01.2021 07:30 4,5 C 3,9 C 95 % 1000,7 hPa 0,0 l/m 8,0 km/h (2 Bft) S-SW 202 0 min 0,0 UV-I 0 W/m 3,8 C 3,1 C 14,5 km/h (3 Bft)
30.01.2021 07:31 4,5 C 3,9 C 95 % 1000,7 hPa 0,0 l/m 8,0 km/h (2 Bft) S-SW 202 0 min 0,0 UV-I 0 W/m 3,8 C 3,1 C 12,9 km/h (3 Bft)
30.01.2021 07:32 4,5 C 3,9 C 95 % 1000,7 hPa 0,0 l/m 8,0 km/h (2 Bft) S-SW 202 0 min 0,0 UV-I 0 W/m 3,8 C 3,1 C 11,3 km/h (2 Bft)
30.01.2021 07:33 4,6 C 3,9 C 95 % 1000,8 hPa 0,0 l/m 9,7 km/h (2 Bft) SW 225 0 min 0,0 UV-I 0 W/m 3,9 C 1,8 C 12,9 km/h (3 Bft)
30.01.2021 07:34 4,6 C 3,9 C 95 % 1000,8 hPa 0,0 l/m 9,7 km/h (2 Bft) S-SW 202 0 min 0,0 UV-I 0 W/m 3,9 C 1,8 C 14,5 km/h (3 Bft)
30.01.2021 07:35 4,5 C 3,9 C 95 % 1000,8 hPa 0,0 l/m 11,3 km/h (2 Bft) S-SW 202 0 min 0,0 UV-I 0 W/m 3,8 C 0,6 C 14,5 km/h (3 Bft)
30.01.2021 07:36 4,5 C 3,9 C 95 % 1000,8 hPa 0,0 l/m 11,3 km/h (2 Bft) S-SW 202 0 min 0,0 UV-I 0 W/m 3,8 C 0,6 C 14,5 km/h (3 Bft)
30.01.2021 07:37 4,5 C 3,9 C 95 % 1000,7 hPa 0,0 l/m 9,7 km/h (2 Bft) S-SW 202 0 min 0,0 UV-I 0 W/m 3,8 C 1,7 C 14,5 km/h (3 Bft)
30.01.2021 07:38 4,5 C 3,9 C 95 % 1000,7 hPa 0,0 l/m 8,0 km/h (2 Bft) S-SW 202 0 min 0,0 UV-I 0 W/m 3,8 C 3,1 C 12,9 km/h (3 Bft)
30.01.2021 07:39 4,5 C 3,9 C 95 % 1000,8 hPa 0,0 l/m 9,7 km/h (2 Bft) S-SW 202 0 min 0,0 UV-I 0 W/m 3,8 C 1,7 C 16,1 km/h (3 Bft)
30.01.2021 07:40 4,5 C 3,9 C 95 % 1000,9 hPa 0,0 l/m 11,3 km/h (2 Bft) S-SW 202 0 min 0,0 UV-I 0 W/m 3,8 C 0,6 C 12,9 km/h (3 Bft)
30.01.2021 07:41 4,4 C 3,9 C 95 % 1000,8 hPa 0,0 l/m 9,7 km/h (2 Bft) SW 225 0 min 0,0 UV-I 0 W/m 3,7 C 1,6 C 12,9 km/h (3 Bft)
30.01.2021 07:42 4,5 C 3,9 C 95 % 1000,8 hPa 0,0 l/m 9,7 km/h (2 Bft) SW 225 0 min 0,0 UV-I 0 W/m 3,8 C 1,7 C 11,3 km/h (2 Bft)
30.01.2021 07:43 4,4 C 3,9 C 95 % 1000,8 hPa 0,0 l/m 9,7 km/h (2 Bft) S-SW 202 0 min 0,0 UV-I 0 W/m 3,7 C 1,6 C 11,3 km/h (2 Bft)
30.01.2021 07:44 4,4 C 3,9 C 95 % 1000,9 hPa 0,0 l/m 9,7 km/h (2 Bft) SW 225 0 min 0,0 UV-I 0 W/m 3,7 C 1,6 C 12,9 km/h (3 Bft)
30.01.2021 07:45 4,5 C 3,9 C 95 % 1000,9 hPa 0,0 l/m 11,3 km/h (2 Bft) S-SW 202 0 min 0,0 UV-I 0 W/m 3,8 C 0,6 C 14,5 km/h (3 Bft)
30.01.2021 07:46 4,4 C 3,9 C 95 % 1000,8 hPa 0,0 l/m 9,7 km/h (2 Bft) S-SW 202 0 min 0,0 UV-I 0 W/m 3,7 C 1,6 C 12,9 km/h (3 Bft)
30.01.2021 07:47 4,4 C 3,9 C 95 % 1000,8 hPa 0,0 l/m 9,7 km/h (2 Bft) SW 225 0 min 0,0 UV-I 0 W/m 3,7 C 1,6 C 12,9 km/h (3 Bft)
30.01.2021 07:48 4,4 C 3,9 C 95 % 1000,9 hPa 0,0 l/m 8,0 km/h (2 Bft) SW 225 0 min 0,0 UV-I 0 W/m 3,7 C 3,0 C 12,9 km/h (3 Bft)
30.01.2021 07:49 4,4 C 3,9 C 95 % 1000,8 hPa 0,2 l/m 9,7 km/h (2 Bft) SW 225 0 min 0,0 UV-I 0 W/m 3,7 C 1,6 C 14,5 km/h (3 Bft)
30.01.2021 07:50 4,4 C 3,9 C 95 % 1000,9 hPa 0,0 l/m 9,7 km/h (2 Bft) S-SW 202 0 min 0,0 UV-I 0 W/m 3,7 C 1,6 C 14,5 km/h (3 Bft)
30.01.2021 07:51 4,4 C 3,9 C 95 % 1000,8 hPa 0,0 l/m 8,0 km/h (2 Bft) S-SW 202 0 min 0,0 UV-I 0 W/m 3,7 C 3,0 C 12,9 km/h (3 Bft)
30.01.2021 07:52 4,4 C 3,9 C 95 % 1000,8 hPa 0,0 l/m 11,3 km/h (2 Bft) S-SW 202 0 min 0,0 UV-I 0 W/m 3,7 C 0,5 C 14,5 km/h (3 Bft)
30.01.2021 07:53 4,4 C 3,9 C 95 % 1000,8 hPa 0,0 l/m 9,7 km/h (2 Bft) S-SW 202 0 min 0,0 UV-I 0 W/m 3,7 C 1,6 C 12,9 km/h (3 Bft)
30.01.2021 07:54 4,4 C 3,9 C 95 % 1000,8 hPa 0,0 l/m 8,0 km/h (2 Bft) S-SW 202 0 min 0,0 UV-I 0 W/m 3,7 C 3,0 C 9,7 km/h (2 Bft)
30.01.2021 07:55 4,4 C 3,9 C 95 % 1000,8 hPa 0,0 l/m 9,7 km/h (2 Bft) S-SW 202 0 min 0,0 UV-I 0 W/m 3,7 C 1,6 C 12,9 km/h (3 Bft)
30.01.2021 07:56 4,4 C 3,9 C 95 % 1000,8 hPa 0,0 l/m 11,3 km/h (2 Bft) S-SW 202 0 min 0,0 UV-I 0 W/m 3,7 C 0,5 C 14,5 km/h (3 Bft)
30.01.2021 07:57 4,4 C 3,9 C 95 % 1000,8 hPa 0,0 l/m 8,0 km/h (2 Bft) SW 225 0 min 0,0 UV-I 0 W/m 3,7 C 3,0 C 12,9 km/h (3 Bft)
30.01.2021 07:58 4,4 C 3,9 C 95 % 1000,8 hPa 0,0 l/m 8,0 km/h (2 Bft) S-SW 202 0 min 0,0 UV-I 0 W/m 3,7 C 3,0 C 11,3 km/h (2 Bft)
30.01.2021 07:59 4,4 C 3,9 C 95 % 1000,9 hPa 0,0 l/m 6,4 km/h (2 Bft) S-SW 202 0 min 0,0 UV-I 0 W/m 3,7 C 4,4 C 8,0 km/h (2 Bft)
30.01.2021 08:00 4,4 C 3,9 C 95 % 1000,8 hPa 0,0 l/m 9,7 km/h (2 Bft) S-SW 202 0 min 0,0 UV-I 0 W/m 3,7 C 1,6 C 12,9 km/h (3 Bft)
30.01.2021 08:01 4,4 C 3,9 C 95 % 1000,8 hPa 0,0 l/m 11,3 km/h (2 Bft) S-SW 202 0 min 0,0 UV-I 0 W/m 3,7 C 0,5 C 16,1 km/h (3 Bft)
30.01.2021 08:02 4,4 C 3,9 C 95 % 1000,9 hPa 0,0 l/m 9,7 km/h (2 Bft) S-SW 202 0 min 0,0 UV-I 0 W/m 3,7 C 1,6 C 14,5 km/h (3 Bft)
30.01.2021 08:03 4,4 C 3,9 C 95 % 1000,8 hPa 0,0 l/m 9,7 km/h (2 Bft) S-SW 202 0 min 0,0 UV-I 0 W/m 3,7 C 1,6 C 14,5 km/h (3 Bft)
30.01.2021 08:04 4,4 C 3,9 C 95 % 1000,9 hPa 0,0 l/m 11,3 km/h (2 Bft) S-SW 202 0 min 0,0 UV-I 0 W/m 3,7 C 0,5 C 17,7 km/h (3 Bft)
30.01.2021 08:05 4,4 C 3,9 C 95 % 1000,9 hPa 0,0 l/m 12,9 km/h (3 Bft) S-SW 202 0 min 0,0 UV-I 0 W/m 3,7 C -0,5 C 16,1 km/h (3 Bft)
30.01.2021 08:06 4,4 C 3,9 C 95 % 1000,9 hPa 0,0 l/m 11,3 km/h (2 Bft) S-SW 202 0 min 0,0 UV-I 0 W/m 3,7 C 0,5 C 16,1 km/h (3 Bft)
30.01.2021 08:07 4,4 C 3,9 C 95 % 1000,9 hPa 0,0 l/m 11,3 km/h (2 Bft) S-SW 202 0 min 0,0 UV-I 0 W/m 3,7 C 0,5 C 17,7 km/h (3 Bft)
30.01.2021 08:08 4,3 C 3,9 C 95 % 1000,9 hPa 0,0 l/m 14,5 km/h (3 Bft) S-SW 202 0 min 0,0 UV-I 0 W/m 3,6 C -1,5 C 22,5 km/h (4 Bft)
30.01.2021 08:09 4,4 C 3,9 C 95 % 1000,9 hPa 0,0 l/m 11,3 km/h (2 Bft) S-SW 202 0 min 0,0 UV-I 0 W/m 3,7 C 0,5 C 14,5 km/h (3 Bft)
30.01.2021 08:10 4,3 C 3,9 C 95 % 1000,8 hPa 0,0 l/m 11,3 km/h (2 Bft) SW 225 0 min 0,0 UV-I 0 W/m 3,6 C 0,4 C 14,5 km/h (3 Bft)
30.01.2021 08:11 4,3 C 3,9 C 95 % 1000,8 hPa 0,0 l/m 16,1 km/h (3 Bft) S-SW 202 0 min 0,0 UV-I 0 W/m 3,6 C -2,3 C 19,3 km/h (3 Bft)
30.01.2021 08:12 4,3 C 3,9 C 95 % 1000,9 hPa 0,0 l/m 11,3 km/h (2 Bft) SW 225 0 min 0,0 UV-I 0 W/m 3,6 C 0,4 C 16,1 km/h (3 Bft)
30.01.2021 08:13 4,3 C 3,9 C 95 % 1000,9 hPa 0,0 l/m 14,5 km/h (3 Bft) S-SW 202 0 min 0,0 UV-I 0 W/m 3,6 C -1,5 C 17,7 km/h (3 Bft)
30.01.2021 08:14 4,3 C 3,9 C 95 % 1000,9 hPa 0,0 l/m 12,9 km/h (3 Bft) SW 225 0 min 0,0 UV-I 0 W/m 3,6 C -0,6 C 16,1 km/h (3 Bft)
30.01.2021 08:15 4,3 C 3,9 C 95 % 1000,9 hPa 0,0 l/m 14,5 km/h (3 Bft) S-SW 202 0 min 0,0 UV-I 0 W/m 3,6 C -1,5 C 17,7 km/h (3 Bft)
30.01.2021 08:16 4,3 C 3,9 C 95 % 1000,9 hPa 0,0 l/m 12,9 km/h (3 Bft) S-SW 202 0 min 0,0 UV-I 0 W/m 3,6 C -0,6 C 17,7 km/h (3 Bft)
30.01.2021 08:17 4,3 C 3,9 C 95 % 1000,9 hPa 0,0 l/m 9,7 km/h (2 Bft) S-SW 202 0 min 0,0 UV-I 0 W/m 3,6 C 1,5 C 12,9 km/h (3 Bft)
30.01.2021 08:18 4,3 C 3,9 C 95 % 1000,8 hPa 0,2 l/m 9,7 km/h (2 Bft) S-SW 202 0 min 0,0 UV-I 0 W/m 3,6 C 1,5 C 14,5 km/h (3 Bft)
30.01.2021 08:19 4,3 C 3,9 C 95 % 1000,9 hPa 0,0 l/m 9,7 km/h (2 Bft) S-SW 202 0 min 0,0 UV-I 0 W/m 3,6 C 1,5 C 12,9 km/h (3 Bft)
30.01.2021 08:20 4,2 C 3,9 C 95 % 1000,8 hPa 0,0 l/m 11,3 km/h (2 Bft) S-SW 202 0 min 0,0 UV-I 0 W/m 3,5 C 0,3 C 16,1 km/h (3 Bft)
30.01.2021 08:21 4,2 C 3,9 C 95 % 1000,8 hPa 0,0 l/m 11,3 km/h (2 Bft) S 180 0 min 0,0 UV-I 0 W/m 3,5 C 0,3 C 17,7 km/h (3 Bft)
30.01.2021 08:22 4,2 C 3,9 C 95 % 1000,9 hPa 0,0 l/m 11,3 km/h (2 Bft) S-SW 202 0 min 0,0 UV-I 0 W/m 3,5 C 0,3 C 17,7 km/h (3 Bft)
30.01.2021 08:23 4,2 C 3,9 C 95 % 1000,9 hPa 0,0 l/m 11,3 km/h (2 Bft) S-SW 202 0 min 0,0 UV-I 0 W/m 3,5 C 0,3 C 14,5 km/h (3 Bft)
30.01.2021 08:24 4,2 C 3,9 C 95 % 1000,9 hPa 0,0 l/m 12,9 km/h (3 Bft) S-SW 202 0 min 0,0 UV-I 0 W/m 3,5 C -0,7 C 16,1 km/h (3 Bft)
30.01.2021 08:25 4,2 C 3,9 C 95 % 1000,9 hPa 0,0 l/m 16,1 km/h (3 Bft) S-SW 202 0 min 0,0 UV-I 0 W/m 3,5 C -2,5 C 20,9 km/h (4 Bft)
30.01.2021 08:26 4,2 C 3,9 C 95 % 1000,9 hPa 0,0 l/m 14,5 km/h (3 Bft) S-SW 202 0 min 0,0 UV-I 0 W/m 3,5 C -1,6 C 22,5 km/h (4 Bft)
30.01.2021 08:27 4,2 C 3,9 C 95 % 1000,9 hPa 0,0 l/m 11,3 km/h (2 Bft) S-SW 202 0 min 0,0 UV-I 5 W/m 3,5 C 0,3 C 17,7 km/h (3 Bft)
30.01.2021 08:28 4,2 C 3,9 C 95 % 1000,9 hPa 0,0 l/m 12,9 km/h (3 Bft) S-SW 202 0 min 0,0 UV-I 5 W/m 3,5 C -0,7 C 17,7 km/h (3 Bft)
30.01.2021 08:29 4,2 C 3,9 C 95 % 1000,9 hPa 0,0 l/m 16,1 km/h (3 Bft) S-SW 202 0 min 0,0 UV-I 5 W/m 3,5 C -2,5 C 19,3 km/h (3 Bft)
30.01.2021 08:30 4,2 C 3,9 C 95 % 1000,9 hPa 0,0 l/m 14,5 km/h (3 Bft) S-SW 202 0 min 0,0 UV-I 5 W/m 3,5 C -1,6 C 19,3 km/h (3 Bft)
30.01.2021 08:31 4,2 C 3,9 C 95 % 1000,9 hPa 0,0 l/m 12,9 km/h (3 Bft) S-SW 202 0 min 0,0 UV-I 5 W/m 3,5 C -0,7 C 17,7 km/h (3 Bft)
30.01.2021 08:32 4,2 C 3,9 C 95 % 1001,0 hPa 0,0 l/m 12,9 km/h (3 Bft) S-SW 202 0 min 0,0 UV-I 5 W/m 3,5 C -0,7 C 17,7 km/h (3 Bft)
30.01.2021 08:33 4,2 C 3,9 C 95 % 1001,0 hPa 0,0 l/m 12,9 km/h (3 Bft) S-SW 202 0 min 0,0 UV-I 5 W/m 3,5 C -0,7 C 17,7 km/h (3 Bft)
30.01.2021 08:34 4,1 C 3,9 C 95 % 1001,0 hPa 0,0 l/m 12,9 km/h (3 Bft) S-SW 202 0 min 0,0 UV-I 7 W/m 3,4 C -0,8 C 16,1 km/h (3 Bft)
30.01.2021 08:35 4,2 C 3,9 C 95 % 1001,0 hPa 0,0 l/m 16,1 km/h (3 Bft) S-SW 202 0 min 0,0 UV-I 5 W/m 3,5 C -2,5 C 19,3 km/h (3 Bft)
30.01.2021 08:36 4,2 C 3,9 C 95 % 1001,0 hPa 0,0 l/m 12,9 km/h (3 Bft) SW 225 0 min 0,0 UV-I 5 W/m 3,5 C -0,7 C 16,1 km/h (3 Bft)
30.01.2021 08:37 4,2 C 3,9 C 95 % 1000,9 hPa 0,0 l/m 12,9 km/h (3 Bft) S-SW 202 0 min 0,0 UV-I 5 W/m 3,5 C -0,7 C 17,7 km/h (3 Bft)
30.01.2021 08:38 4,1 C 3,9 C 95 % 1001,0 hPa 0,0 l/m 9,7 km/h (2 Bft) S-SW 202 0 min 0,0 UV-I 5 W/m 3,4 C 1,3 C 12,9 km/h (3 Bft)
30.01.2021 08:39 4,1 C 3,9 C 95 % 1000,9 hPa 0,0 l/m 11,3 km/h (2 Bft) S-SW 202 0 min 0,0 UV-I 5 W/m 3,4 C 0,2 C 16,1 km/h (3 Bft)
30.01.2021 08:40 4,1 C 3,9 C 95 % 1001,0 hPa 0,0 l/m 9,7 km/h (2 Bft) SW 225 0 min 0,0 UV-I 5 W/m 3,4 C 1,3 C 14,5 km/h (3 Bft)
30.01.2021 08:41 4,1 C 3,9 C 95 % 1000,9 hPa 0,0 l/m 9,7 km/h (2 Bft) S-SW 202 0 min 0,0 UV-I 5 W/m 3,4 C 1,3 C 12,9 km/h (3 Bft)
30.01.2021 08:42 4,1 C 3,9 C 95 % 1000,9 hPa 0,0 l/m 12,9 km/h (3 Bft) S-SW 202 0 min 0,0 UV-I 5 W/m 3,4 C -0,8 C 16,1 km/h (3 Bft)
30.01.2021 08:43 4,1 C 3,9 C 95 % 1001,0 hPa 0,0 l/m 11,3 km/h (2 Bft) S-SW 202 0 min 0,0 UV-I 5 W/m 3,4 C 0,2 C 14,5 km/h (3 Bft)
30.01.2021 08:44 4,1 C 3,9 C 95 % 1001,0 hPa 0,0 l/m 9,7 km/h (2 Bft) S-SW 202 0 min 0,0 UV-I 5 W/m 3,4 C 1,3 C 12,9 km/h (3 Bft)
30.01.2021 08:45 4,1 C 3,9 C 95 % 1001,0 hPa 0,0 l/m 9,7 km/h (2 Bft) SW 225 0 min 0,0 UV-I 5 W/m 3,4 C 1,3 C 14,5 km/h (3 Bft)
30.01.2021 08:46 4,1 C 3,9 C 95 % 1001,0 hPa 0,0 l/m 8,0 km/h (2 Bft) SW 225 0 min 0,0 UV-I 5 W/m 3,4 C 2,7 C 11,3 km/h (2 Bft)
30.01.2021 08:47 4,1 C 3,9 C 95 % 1000,9 hPa 0,0 l/m 14,5 km/h (3 Bft) SW 225 0 min 0,0 UV-I 5 W/m 3,4 C -1,7 C 20,9 km/h (4 Bft)
30.01.2021 08:48 4,1 C 3,9 C 95 % 1001,0 hPa 0,0 l/m 12,9 km/h (3 Bft) S-SW 202 0 min 0,0 UV-I 7 W/m 3,4 C -0,8 C 16,1 km/h (3 Bft)
30.01.2021 08:49 4,1 C 3,9 C 95 % 1001,0 hPa 0,0 l/m 8,0 km/h (2 Bft) S-SW 202 0 min 0,0 UV-I 7 W/m 3,4 C 2,7 C 11,3 km/h (2 Bft)
30.01.2021 08:50 4,1 C 3,9 C 95 % 1001,0 hPa 0,0 l/m 8,0 km/h (2 Bft) SW 225 0 min 0,0 UV-I 7 W/m 3,4 C 2,7 C 11,3 km/h (2 Bft)
30.01.2021 08:51 4,1 C 3,9 C 95 % 1001,0 hPa 0,0 l/m 9,7 km/h (2 Bft) SW 225 0 min 0,0 UV-I 7 W/m 3,4 C 1,3 C 14,5 km/h (3 Bft)
30.01.2021 08:52 4,1 C 3,3 C 95 % 1001,0 hPa 0,0 l/m 9,7 km/h (2 Bft) SW 225 0 min 0,0 UV-I 7 W/m 3,4 C 1,3 C 12,9 km/h (3 Bft)
30.01.2021 08:53 4,1 C 3,3 C 95 % 1001,0 hPa 0,0 l/m 12,9 km/h (3 Bft) SW 225 0 min 0,0 UV-I 7 W/m 3,4 C -0,8 C 16,1 km/h (3 Bft)
30.01.2021 08:54 4,1 C 3,3 C 95 % 1001,0 hPa 0,0 l/m 12,9 km/h (3 Bft) S-SW 202 0 min 0,0 UV-I 8 W/m 3,4 C -0,8 C 17,7 km/h (3 Bft)
30.01.2021 08:55 4,1 C 3,3 C 95 % 1001,0 hPa 0,0 l/m 11,3 km/h (2 Bft) S-SW 202 0 min 0,0 UV-I 9 W/m 3,4 C 0,2 C 12,9 km/h (3 Bft)
30.01.2021 08:56 4,1 C 3,3 C 95 % 1000,9 hPa 0,0 l/m 12,9 km/h (3 Bft) S-SW 202 0 min 0,0 UV-I 9 W/m 3,4 C -0,8 C 19,3 km/h (3 Bft)
30.01.2021 08:57 4,1 C 3,3 C 95 % 1000,9 hPa 0,0 l/m 9,7 km/h (2 Bft) S-SW 202 0 min 0,0 UV-I 9 W/m 3,4 C 1,3 C 14,5 km/h (3 Bft)
30.01.2021 08:58 4,1 C 3,3 C 95 % 1000,9 hPa 0,0 l/m 11,3 km/h (2 Bft) S-SW 202 0 min 0,0 UV-I 9 W/m 3,4 C 0,2 C 14,5 km/h (3 Bft)
30.01.2021 08:59 4,1 C 3,3 C 95 % 1000,9 hPa 0,0 l/m 6,4 km/h (2 Bft) W-SW 247 0 min 0,0 UV-I 9 W/m 3,4 C 4,1 C 12,9 km/h (3 Bft)
30.01.2021 09:00 4,1 C 3,3 C 95 % 1000,9 hPa 0,2 l/m 11,3 km/h (2 Bft) SW 225 0 min 0,0 UV-I 11 W/m 3,4 C 0,2 C 12,9 km/h (3 Bft)
30.01.2021 09:01 4,1 C 3,3 C 95 % 1000,9 hPa 0,0 l/m 4,8 km/h (1 Bft) S-SW 202 0 min 0,0 UV-I 9 W/m 3,4 C 4,1 C 9,7 km/h (2 Bft)
30.01.2021 09:02 4,1 C 3,3 C 95 % 1000,9 hPa 0,0 l/m 9,7 km/h (2 Bft) SW 225 0 min 0,0 UV-I 9 W/m 3,4 C 1,3 C 12,9 km/h (3 Bft)
30.01.2021 09:03 4,1 C 3,3 C 95 % 1000,8 hPa 0,0 l/m 8,0 km/h (2 Bft) SW 225 0 min 0,0 UV-I 9 W/m 3,4 C 2,7 C 12,9 km/h (3 Bft)
30.01.2021 09:04 4,0 C 3,3 C 95 % 1000,9 hPa 0,0 l/m 9,7 km/h (2 Bft) SW 225 0 min 0,0 UV-I 9 W/m 3,3 C 1,2 C 14,5 km/h (3 Bft)
30.01.2021 09:05 4,0 C 3,3 C 95 % 1000,9 hPa 0,0 l/m 11,3 km/h (2 Bft) SW 225 0 min 0,0 UV-I 9 W/m 3,3 C 0,1 C 17,7 km/h (3 Bft)
30.01.2021 09:06 4,0 C 3,3 C 95 % 1000,8 hPa 0,0 l/m 6,4 km/h (2 Bft) W-SW 247 0 min 0,0 UV-I 11 W/m 3,3 C 4,0 C 11,3 km/h (2 Bft)
30.01.2021 09:07 4,1 C 3,3 C 95 % 1000,9 hPa 0,0 l/m 8,0 km/h (2 Bft) W-SW 247 0 min 0,0 UV-I 9 W/m 3,4 C 2,7 C 12,9 km/h (3 Bft)
30.01.2021 09:08 4,0 C 3,3 C 95 % 1000,8 hPa 0,0 l/m 6,4 km/h (2 Bft) SW 225 0 min 0,0 UV-I 11 W/m 3,3 C 4,0 C 8,0 km/h (2 Bft)
30.01.2021 09:09 4,0 C 3,3 C 95 % 1000,8 hPa 0,0 l/m 8,0 km/h (2 Bft) W-SW 247 0 min 0,0 UV-I 11 W/m 3,3 C 2,6 C 11,3 km/h (2 Bft)
30.01.2021 09:10 4,0 C 3,3 C 95 % 1000,9 hPa 0,0 l/m 6,4 km/h (2 Bft) W-SW 247 0 min 0,0 UV-I 11 W/m 3,3 C 4,0 C 12,9 km/h (3 Bft)
30.01.2021 09:11 4,1 C 3,3 C 95 % 1000,9 hPa 0,0 l/m 6,4 km/h (2 Bft) W-SW 247 0 min 0,0 UV-I 12 W/m 3,4 C 4,1 C 9,7 km/h (2 Bft)
30.01.2021 09:12 4,1 C 3,3 C 95 % 1000,8 hPa 0,0 l/m 9,7 km/h (2 Bft) W 270 0 min 0,0 UV-I 12 W/m 3,4 C 1,3 C 12,9 km/h (3 Bft)
30.01.2021 09:13 4,0 C 3,3 C 95 % 1000,8 hPa 0,0 l/m 4,8 km/h (1 Bft) W-NW 292 0 min 0,0 UV-I 12 W/m 3,3 C 4,0 C 6,4 km/h (2 Bft)
30.01.2021 09:14 4,0 C 3,3 C 95 % 1000,8 hPa 0,0 l/m 4,8 km/h (1 Bft) N-NW 337 0 min 0,0 UV-I 12 W/m 3,3 C 4,0 C 6,4 km/h (2 Bft)
30.01.2021 09:15 4,0 C 3,3 C 95 % 1000,8 hPa 0,0 l/m 4,8 km/h (1 Bft) N-NW 337 0 min 0,0 UV-I 12 W/m 3,3 C 4,0 C 6,4 km/h (2 Bft)
30.01.2021 09:16 3,9 C 3,3 C 95 % 1000,8 hPa 0,0 l/m 6,4 km/h (2 Bft) NW 315 0 min 0,0 UV-I 12 W/m 3,2 C 3,9 C 11,3 km/h (2 Bft)
30.01.2021 09:17 3,9 C 2,8 C 95 % 1000,9 hPa 0,0 l/m 6,4 km/h (2 Bft) W-NW 292 0 min 0,0 UV-I 12 W/m 3,2 C 3,9 C 9,7 km/h (2 Bft)
30.01.2021 09:18 3,8 C 2,8 C 95 % 1000,9 hPa 0,0 l/m 4,8 km/h (1 Bft) NW 315 0 min 0,0 UV-I 12 W/m 3,1 C 3,8 C 8,0 km/h (2 Bft)
30.01.2021 09:19 3,8 C 2,8 C 95 % 1000,9 hPa 0,0 l/m 3,2 km/h (1 Bft) W-NW 292 0 min 0,0 UV-I 12 W/m 3,1 C 3,8 C 4,8 km/h (1 Bft)
30.01.2021 09:20 3,8 C 2,8 C 95 % 1000,8 hPa 0,0 l/m 3,2 km/h (1 Bft) W-NW 292 0 min 0,0 UV-I 11 W/m 3,1 C 3,8 C 6,4 km/h (2 Bft)
30.01.2021 09:21 3,7 C 2,8 C 95 % 1000,8 hPa 0,0 l/m 4,8 km/h (1 Bft) W-NW 292 0 min 0,0 UV-I 11 W/m 3,0 C 3,7 C 4,8 km/h (1 Bft)
30.01.2021 09:22 3,6 C 2,8 C 95 % 1000,8 hPa 0,0 l/m 6,4 km/h (2 Bft) NW 315 0 min 0,0 UV-I 12 W/m 2,9 C 3,6 C 9,7 km/h (2 Bft)
30.01.2021 09:23 3,5 C 2,8 C 95 % 1000,8 hPa 0,0 l/m 6,4 km/h (2 Bft) N-NW 337 0 min 0,0 UV-I 12 W/m 2,8 C 3,5 C 8,0 km/h (2 Bft)
30.01.2021 09:24 3,4 C 2,2 C 94 % 1000,8 hPa 0,0 l/m 6,4 km/h (2 Bft) N 360 0 min 0,0 UV-I 12 W/m 2,5 C 3,4 C 8,0 km/h (2 Bft)
30.01.2021 09:25 3,3 C 2,2 C 94 % 1000,7 hPa 0,0 l/m 4,8 km/h (1 Bft) N 360 0 min 0,0 UV-I 12 W/m 2,4 C 3,3 C 8,0 km/h (2 Bft)
30.01.2021 09:26 3,3 C 2,2 C 94 % 1000,8 hPa 0,2 l/m 6,4 km/h (2 Bft) N-NW 337 0 min 0,0 UV-I 12 W/m 2,4 C 3,3 C 8,0 km/h (2 Bft)
30.01.2021 09:27 3,2 C 2,2 C 94 % 1000,7 hPa 0,0 l/m 8,0 km/h (2 Bft) N-NW 337 0 min 0,0 UV-I 12 W/m 2,3 C 1,7 C 9,7 km/h (2 Bft)
30.01.2021 09:28 3,2 C 2,8 C 94 % 1000,8 hPa 0,0 l/m 6,4 km/h (2 Bft) N 360 0 min 0,0 UV-I 12 W/m 2,3 C 3,2 C 12,9 km/h (3 Bft)
30.01.2021 09:29 3,2 C 2,8 C 95 % 1000,8 hPa 0,0 l/m 11,3 km/h (2 Bft) N-NO 22 0 min 0,0 UV-I 12 W/m 2,5 C -0,8 C 12,9 km/h (3 Bft)
30.01.2021 09:30 3,1 C 2,8 C 94 % 1000,8 hPa 0,0 l/m 12,9 km/h (3 Bft) N-NO 22 0 min 0,0 UV-I 14 W/m 2,2 C -2,0 C 14,5 km/h (3 Bft)
30.01.2021 09:31 3,0 C 2,8 C 94 % 1000,8 hPa 0,0 l/m 11,3 km/h (2 Bft) N-NO 22 0 min 0,0 UV-I 14 W/m 2,1 C -1,1 C 14,5 km/h (3 Bft)
30.01.2021 09:32 3,0 C 2,8 C 94 % 1000,8 hPa 0,0 l/m 12,9 km/h (3 Bft) N-NO 22 0 min 0,0 UV-I 14 W/m 2,1 C -2,1 C 14,5 km/h (3 Bft)
30.01.2021 09:33 2,9 C 2,2 C 94 % 1000,7 hPa 0,0 l/m 12,9 km/h (3 Bft) N-NO 22 0 min 0,0 UV-I 14 W/m 2,0 C -2,2 C 14,5 km/h (3 Bft)
30.01.2021 09:34 2,8 C 2,2 C 94 % 1000,7 hPa 0,0 l/m 12,9 km/h (3 Bft) N-NO 22 0 min 0,0 UV-I 16 W/m 1,9 C -2,4 C 16,1 km/h (3 Bft)
30.01.2021 09:35 2,8 C 2,2 C 94 % 1000,7 hPa 0,0 l/m 9,7 km/h (2 Bft) N-NO 22 0 min 0,0 UV-I 18 W/m 1,9 C -0,1 C 12,9 km/h (3 Bft)
30.01.2021 09:36 2,8 C 2,2 C 94 % 1000,6 hPa 0,0 l/m 11,3 km/h (2 Bft) N-NO 22 0 min 0,0 UV-I 18 W/m 1,9 C -1,3 C 14,5 km/h (3 Bft)
30.01.2021 09:37 2,8 C 2,2 C 94 % 1000,6 hPa 0,0 l/m 11,3 km/h (2 Bft) N-NO 22 0 min 0,0 UV-I 18 W/m 1,9 C -1,3 C 16,1 km/h (3 Bft)
30.01.2021 09:38 2,7 C 2,2 C 94 % 1000,6 hPa 0,0 l/m 12,9 km/h (3 Bft) N-NO 22 0 min 0,0 UV-I 18 W/m 1,8 C -2,5 C 16,1 km/h (3 Bft)
30.01.2021 09:39 2,7 C 2,2 C 94 % 1000,6 hPa 0,0 l/m 12,9 km/h (3 Bft) N-NO 22 0 min 0,0 UV-I 19 W/m 1,8 C -2,5 C 16,1 km/h (3 Bft)
30.01.2021 09:40 2,7 C 2,2 C 94 % 1000,7 hPa 0,0 l/m 9,7 km/h (2 Bft) N-NO 22 0 min 0,0 UV-I 19 W/m 1,8 C -0,2 C 16,1 km/h (3 Bft)
30.01.2021 09:41 2,6 C 2,2 C 94 % 1000,7 hPa 0,0 l/m 9,7 km/h (2 Bft) N-NO 22 0 min 0,0 UV-I 19 W/m 1,7 C -0,3 C 14,5 km/h (3 Bft)
30.01.2021 09:42 2,6 C 2,2 C 94 % 1000,6 hPa 0,0 l/m 11,3 km/h (2 Bft) NO 45 0 min 0,0 UV-I 19 W/m 1,7 C -1,5 C 16,1 km/h (3 Bft)
30.01.2021 09:43 2,5 C 2,2 C 94 % 1000,7 hPa 0,0 l/m 8,0 km/h (2 Bft) NO 45 0 min 0,0 UV-I 18 W/m 1,6 C 1,0 C 12,9 km/h (3 Bft)
30.01.2021 09:44 2,4 C 2,2 C 94 % 1000,7 hPa 0,0 l/m 9,7 km/h (2 Bft) NO 45 0 min 0,0 UV-I 18 W/m 1,5 C -0,6 C 14,5 km/h (3 Bft)
30.01.2021 09:45 2,4 C 2,2 C 94 % 1000,7 hPa 0,0 l/m 9,7 km/h (2 Bft) NO 45 0 min 0,0 UV-I 18 W/m 1,5 C -0,6 C 12,9 km/h (3 Bft)
30.01.2021 09:46 2,3 C 2,2 C 94 % 1000,7 hPa 0,0 l/m 11,3 km/h (2 Bft) NO 45 0 min 0,0 UV-I 19 W/m 1,4 C -1,9 C 16,1 km/h (3 Bft)
30.01.2021 09:47 2,2 C 2,2 C 94 % 1000,7 hPa 0,0 l/m 9,7 km/h (2 Bft) NO 45 0 min 0,0 UV-I 19 W/m 1,3 C -0,8 C 14,5 km/h (3 Bft)
30.01.2021 09:50 2,1 C 2,2 C 94 % 1000,6 hPa 0,2 l/m 8,5 km/h (2 Bft) NO 49 0 min 0,0 UV-I 19 W/m 1,2 C 0,1 C 11,3 km/h (2 Bft)
30.01.2021 09:52 1,9 C 1,7 C 94 % 1000,7 hPa 0,0 l/m 9,8 km/h (2 Bft) N-NO 30 0 min 0,0 UV-I 19 W/m 1,0 C -1,2 C 14,5 km/h (3 Bft)
30.01.2021 09:54 1,9 C 1,7 C 94 % 1000,6 hPa 0,0 l/m 9,8 km/h (2 Bft) N-NO 29 0 min 0,0 UV-I 18 W/m 1,0 C -1,2 C 14,5 km/h (3 Bft)
30.01.2021 09:56 1,9 C 1,7 C 94 % 1000,8 hPa 0,0 l/m 9,2 km/h (2 Bft) NO 38 0 min 0,0 UV-I 18 W/m 1,0 C -0,7 C 12,9 km/h (3 Bft)
30.01.2021 09:58 1,8 C 1,7 C 94 % 1000,6 hPa 0,0 l/m 10,5 km/h (2 Bft) NO 46 0 min 0,0 UV-I 20 W/m 0,9 C -1,8 C 14,5 km/h (3 Bft)
30.01.2021 10:00 1,7 C 1,7 C 94 % 1000,6 hPa 0,0 l/m 10,7 km/h (2 Bft) NO 38 0 min 0,0 UV-I 21 W/m 0,8 C -2,1 C 14,5 km/h (3 Bft)
30.01.2021 10:02 1,7 C 1,7 C 94 % 1000,5 hPa 0,2 l/m 7,9 km/h (2 Bft) N-NO 33 0 min 0,0 UV-I 23 W/m 0,8 C 0,2 C 11,3 km/h (2 Bft)
30.01.2021 10:04 1,7 C 1,7 C 94 % 1000,6 hPa 0,0 l/m 9,2 km/h (2 Bft) N-NO 28 0 min 0,0 UV-I 22 W/m 0,8 C -0,9 C 14,5 km/h (3 Bft)
30.01.2021 10:06 1,7 C 1,7 C 94 % 1000,6 hPa 0,0 l/m 9,6 km/h (2 Bft) NO 47 0 min 0,0 UV-I 23 W/m 0,8 C -1,3 C 14,5 km/h (3 Bft)
30.01.2021 10:08 1,6 C 1,7 C 94 % 1000,6 hPa 0,0 l/m 10,4 km/h (2 Bft) N-NO 32 0 min 0,0 UV-I 25 W/m 0,7 C -2,0 C 14,5 km/h (3 Bft)
30.01.2021 10:10 1,6 C 1,7 C 94 % 1000,5 hPa 0,0 l/m 9,2 km/h (2 Bft) NO 36 0 min 0,0 UV-I 29 W/m 0,7 C -1,0 C 14,5 km/h (3 Bft)
30.01.2021 10:12 1,6 C 1,7 C 94 % 1000,6 hPa 0,0 l/m 12,1 km/h (2 Bft) NO 34 0 min 0,0 UV-I 33 W/m 0,7 C -3,2 C 14,5 km/h (3 Bft)
30.01.2021 10:14 1,6 C 1,7 C 94 % 1000,5 hPa 0,2 l/m 12,0 km/h (2 Bft) NO 36 0 min 0,0 UV-I 33 W/m 0,7 C -3,2 C 16,1 km/h (3 Bft)
30.01.2021 10:16 1,6 C 1,7 C 95 % 1000,6 hPa 0,0 l/m 8,6 km/h (2 Bft) N-NO 22 0 min 0,0 UV-I 32 W/m 0,9 C -0,5 C 12,9 km/h (3 Bft)
30.01.2021 10:18 1,6 C 1,7 C 95 % 1000,6 hPa 0,0 l/m 10,8 km/h (2 Bft) N-NO 32 0 min 0,0 UV-I 33 W/m 0,9 C -2,3 C 12,9 km/h (3 Bft)
30.01.2021 10:20 1,6 C 2,2 C 95 % 1000,6 hPa 0,0 l/m 6,7 km/h (2 Bft) NO 41 0 min 0,0 UV-I 37 W/m 0,9 C 1,3 C 9,7 km/h (2 Bft)
30.01.2021 10:22 1,6 C 2,2 C 95 % 1000,5 hPa 0,0 l/m 8,7 km/h (2 Bft) N-NO 26 0 min 0,0 UV-I 35 W/m 0,9 C -0,6 C 14,5 km/h (3 Bft)
30.01.2021 10:24 1,6 C 1,7 C 95 % 1000,6 hPa 0,2 l/m 8,1 km/h (2 Bft) NO 36 0 min 0,0 UV-I 33 W/m 0,9 C -0,1 C 12,9 km/h (3 Bft)
30.01.2021 10:26 1,6 C 2,2 C 95 % 1000,5 hPa 0,0 l/m 8,3 km/h (2 Bft) N-NO 33 0 min 0,0 UV-I 33 W/m 0,9 C -0,2 C 12,9 km/h (3 Bft)
30.01.2021 10:28 1,6 C 2,2 C 95 % 1000,6 hPa 0,0 l/m 9,0 km/h (2 Bft) NO 40 0 min 0,0 UV-I 33 W/m 0,9 C -0,9 C 11,3 km/h (2 Bft)
30.01.2021 10:30 1,5 C 2,2 C 95 % 1000,6 hPa 0,2 l/m 8,4 km/h (2 Bft) NO 42 0 min 0,0 UV-I 32 W/m 0,8 C -0,4 C 9,7 km/h (2 Bft)
30.01.2021 10:32 1,5 C 2,2 C 95 % 1000,5 hPa 0,0 l/m 6,2 km/h (2 Bft) N-NO 28 0 min 0,0 UV-I 30 W/m 0,8 C 1,5 C 9,7 km/h (2 Bft)
30.01.2021 10:34 1,5 C 1,7 C 95 % 1000,6 hPa 0,0 l/m 7,5 km/h (2 Bft) N-NO 28 0 min 0,0 UV-I 29 W/m 0,8 C 0,4 C 9,7 km/h (2 Bft)
30.01.2021 10:36 1,6 C 1,7 C 95 % 1000,4 hPa 0,0 l/m 7,2 km/h (2 Bft) N-NO 31 0 min 0,0 UV-I 32 W/m 0,9 C 0,8 C 9,7 km/h (2 Bft)
30.01.2021 10:38 1,5 C 1,7 C 95 % 1000,6 hPa 0,0 l/m 7,0 km/h (2 Bft) NO 42 0 min 0,0 UV-I 31 W/m 0,8 C 0,9 C 12,9 km/h (3 Bft)
30.01.2021 10:40 1,5 C 1,7 C 95 % 1000,5 hPa 0,2 l/m 6,2 km/h (2 Bft) NO 40 0 min 0,0 UV-I 31 W/m 0,8 C 1,5 C 8,0 km/h (2 Bft)
30.01.2021 10:42 1,5 C 1,7 C 95 % 1000,5 hPa 0,0 l/m 7,0 km/h (2 Bft) N-NO 31 0 min 0,0 UV-I 34 W/m 0,8 C 0,9 C 12,9 km/h (3 Bft)
30.01.2021 10:44 1,5 C 1,7 C 95 % 1000,6 hPa 0,0 l/m 6,1 km/h (2 Bft) NO 47 0 min 0,0 UV-I 36 W/m 0,8 C 1,5 C 9,7 km/h (2 Bft)
30.01.2021 10:46 1,6 C 2,2 C 95 % 1000,5 hPa 0,0 l/m 6,7 km/h (2 Bft) NO 49 0 min 0,0 UV-I 42 W/m 0,9 C 1,3 C 9,7 km/h (2 Bft)
30.01.2021 10:48 1,5 C 2,2 C 95 % 1000,6 hPa 0,0 l/m 5,3 km/h (1 Bft) NO 53 0 min 0,0 UV-I 46 W/m 0,8 C 1,5 C 8,0 km/h (2 Bft)
30.01.2021 10:50 1,5 C 2,2 C 95 % 1000,5 hPa 0,0 l/m 5,4 km/h (1 Bft) NO 42 0 min 0,0 UV-I 49 W/m 0,8 C 1,5 C 8,0 km/h (2 Bft)
30.01.2021 10:52 1,5 C 2,2 C 95 % 1000,6 hPa 0,0 l/m 7,5 km/h (2 Bft) NO 45 0 min 0,0 UV-I 49 W/m 0,8 C 0,4 C 12,9 km/h (3 Bft)
30.01.2021 10:54 1,6 C 2,2 C 95 % 1000,6 hPa 0,0 l/m 6,3 km/h (2 Bft) N-NO 30 0 min 0,0 UV-I 52 W/m 0,9 C 1,6 C 9,7 km/h (2 Bft)
30.01.2021 10:56 1,6 C 2,2 C 95 % 1000,6 hPa 0,0 l/m 6,5 km/h (2 Bft) NO 36 0 min 0,0 UV-I 51 W/m 0,9 C 1,5 C 12,9 km/h (3 Bft)
30.01.2021 10:58 1,6 C 2,2 C 95 % 1000,6 hPa 0,0 l/m 9,0 km/h (2 Bft) O-NO 59 0 min 0,0 UV-I 46 W/m 0,9 C -0,9 C 12,9 km/h (3 Bft)
30.01.2021 11:00 1,6 C 2,2 C 95 % 1000,5 hPa 0,0 l/m 8,5 km/h (2 Bft) N-NO 31 0 min 0,0 UV-I 47 W/m 0,9 C -0,4 C 14,5 km/h (3 Bft)
30.01.2021 11:02 1,6 C 2,2 C 95 % 1000,5 hPa 0,0 l/m 8,4 km/h (2 Bft) N-NO 32 0 min 0,0 UV-I 50 W/m 0,9 C -0,3 C 12,9 km/h (3 Bft)
30.01.2021 11:04 1,6 C 2,2 C 95 % 1000,6 hPa 0,0 l/m 8,3 km/h (2 Bft) NO 43 0 min 0,0 UV-I 49 W/m 0,9 C -0,2 C 12,9 km/h (3 Bft)
30.01.2021 11:06 1,6 C 2,2 C 95 % 1000,6 hPa 0,0 l/m 6,7 km/h (2 Bft) NO 35 0 min 0,0 UV-I 53 W/m 0,9 C 1,3 C 9,7 km/h (2 Bft)
30.01.2021 11:08 1,6 C 2,2 C 95 % 1000,6 hPa 0,0 l/m 7,3 km/h (2 Bft) N-NO 28 0 min 0,0 UV-I 57 W/m 0,9 C 0,7 C 9,7 km/h (2 Bft)
30.01.2021 11:10 1,6 C 2,2 C 95 % 1000,6 hPa 0,0 l/m 8,5 km/h (2 Bft) NO 45 0 min 0,0 UV-I 48 W/m 0,9 C -0,4 C 12,9 km/h (3 Bft)
30.01.2021 11:12 1,6 C 2,2 C 95 % 1000,7 hPa 0,0 l/m 10,5 km/h (2 Bft) N-NO 30 0 min 0,0 UV-I 46 W/m 0,9 C -2,1 C 14,5 km/h (3 Bft)
30.01.2021 11:14 1,6 C 2,2 C 95 % 1000,6 hPa 0,0 l/m 10,4 km/h (2 Bft) N-NO 30 0 min 0,0 UV-I 48 W/m 0,9 C -2,0 C 14,5 km/h (3 Bft)
30.01.2021 11:16 1,6 C 2,2 C 95 % 1000,7 hPa 0,2 l/m 7,9 km/h (2 Bft) N-NO 30 0 min 0,0 UV-I 57 W/m 0,9 C 0,1 C 14,5 km/h (3 Bft)
30.01.2021 11:18 1,6 C 2,2 C 95 % 1000,6 hPa 0,0 l/m 7,8 km/h (2 Bft) NO 45 0 min 0,0 UV-I 62 W/m 0,9 C 0,2 C 12,9 km/h (3 Bft)
30.01.2021 11:20 1,6 C 2,2 C 95 % 1000,6 hPa 0,0 l/m 8,2 km/h (2 Bft) NO 36 0 min 0,0 UV-I 62 W/m 0,9 C -0,2 C 12,9 km/h (3 Bft)
30.01.2021 11:22 1,6 C 2,8 C 95 % 1000,5 hPa 0,0 l/m 7,8 km/h (2 Bft) N-NO 29 0 min 0,0 UV-I 66 W/m 0,9 C 0,2 C 11,3 km/h (2 Bft)
30.01.2021 11:24 1,6 C 2,8 C 95 % 1000,5 hPa 0,0 l/m 8,6 km/h (2 Bft) NO 38 0 min 0,0 UV-I 66 W/m 0,9 C -0,5 C 12,9 km/h (3 Bft)
30.01.2021 11:26 1,6 C 2,2 C 95 % 1000,5 hPa 0,0 l/m 9,7 km/h (2 Bft) NO 39 0 min 0,0 UV-I 59 W/m 0,9 C -1,4 C 14,5 km/h (3 Bft)
30.01.2021 11:28 1,6 C 2,2 C 95 % 1000,5 hPa 0,0 l/m 7,6 km/h (2 Bft) NO 36 0 min 0,0 UV-I 60 W/m 0,9 C 0,4 C 12,9 km/h (3 Bft)
30.01.2021 11:30 1,6 C 2,2 C 95 % 1000,4 hPa 0,0 l/m 8,2 km/h (2 Bft) NO 43 0 min 0,0 UV-I 63 W/m 0,9 C -0,2 C 12,9 km/h (3 Bft)
30.01.2021 11:32 1,6 C 2,2 C 95 % 1000,4 hPa 0,0 l/m 9,4 km/h (2 Bft) NO 37 0 min 0,0 UV-I 66 W/m 0,9 C -1,2 C 14,5 km/h (3 Bft)
30.01.2021 11:34 1,6 C 2,2 C 95 % 1000,4 hPa 0,0 l/m 7,9 km/h (2 Bft) NO 38 0 min 0,0 UV-I 62 W/m 0,9 C 0,1 C 11,3 km/h (2 Bft)
30.01.2021 11:36 1,6 C 2,2 C 95 % 1000,4 hPa 0,0 l/m 8,7 km/h (2 Bft) NO 42 0 min 0,0 UV-I 63 W/m 0,9 C -0,6 C 14,5 km/h (3 Bft)
30.01.2021 11:38 1,6 C 2,2 C 95 % 1000,3 hPa 0,0 l/m 9,0 km/h (2 Bft) NO 54 0 min 0,0 UV-I 70 W/m 0,9 C -0,9 C 14,5 km/h (3 Bft)
30.01.2021 11:40 1,5 C 2,2 C 95 % 1000,4 hPa 0,0 l/m 8,8 km/h (2 Bft) N-NO 31 0 min 0,0 UV-I 70 W/m 0,8 C -0,8 C 12,9 km/h (3 Bft)
30.01.2021 11:42 1,5 C 2,2 C 95 % 1000,4 hPa 0,0 l/m 7,8 km/h (2 Bft) N 10 0 min 0,0 UV-I 68 W/m 0,8 C 0,1 C 12,9 km/h (3 Bft)
30.01.2021 11:44 1,6 C 2,8 C 95 % 1000,3 hPa 0,0 l/m 7,0 km/h (2 Bft) N 11 0 min 0,0 UV-I 69 W/m 0,9 C 1,0 C 11,3 km/h (2 Bft)
30.01.2021 11:46 1,5 C 2,8 C 95 % 1000,2 hPa 0,0 l/m 9,3 km/h (2 Bft) N-NO 30 0 min 0,0 UV-I 69 W/m 0,8 C -1,2 C 12,9 km/h (3 Bft)
30.01.2021 11:48 1,6 C 2,8 C 95 % 1000,3 hPa 0,2 l/m 10,7 km/h (2 Bft) NO 44 0 min 0,0 UV-I 70 W/m 0,9 C -2,2 C 16,1 km/h (3 Bft)
30.01.2021 11:50 1,6 C 2,8 C 95 % 1000,2 hPa 0,0 l/m 9,2 km/h (2 Bft) N-NO 19 0 min 0,0 UV-I 67 W/m 0,9 C -1,0 C 14,5 km/h (3 Bft)
30.01.2021 11:52 1,6 C 2,2 C 95 % 1000,2 hPa 0,0 l/m 11,4 km/h (2 Bft) N-NO 32 0 min 0,0 UV-I 65 W/m 0,9 C -2,7 C 16,1 km/h (3 Bft)
30.01.2021 11:54 1,6 C 2,2 C 95 % 1000,1 hPa 0,0 l/m 8,2 km/h (2 Bft) NO 45 0 min 0,0 UV-I 67 W/m 0,9 C -0,2 C 12,9 km/h (3 Bft)
30.01.2021 11:56 1,5 C 2,2 C 95 % 1000,2 hPa 0,0 l/m 8,2 km/h (2 Bft) NO 48 0 min 0,0 UV-I 64 W/m 0,8 C -0,3 C 11,3 km/h (2 Bft)
30.01.2021 11:58 1,5 C 2,2 C 95 % 1000,2 hPa 0,0 l/m 8,1 km/h (2 Bft) NO 37 0 min 0,0 UV-I 62 W/m 0,8 C -0,2 C 11,3 km/h (2 Bft)
30.01.2021 12:00 1,4 C 2,2 C 95 % 1000,1 hPa 0,0 l/m 9,7 km/h (2 Bft) NO 48 0 min 0,0 UV-I 61 W/m 0,7 C -1,7 C 14,5 km/h (3 Bft)
30.01.2021 12:02 1,4 C 2,2 C 95 % 1000,1 hPa 0,0 l/m 7,3 km/h (2 Bft) NO 36 0 min 0,0 UV-I 62 W/m 0,7 C 0,5 C 11,3 km/h (2 Bft)
30.01.2021 12:04 1,4 C 2,2 C 95 % 1000,2 hPa 0,0 l/m 8,0 km/h (2 Bft) NO 42 0 min 0,0 UV-I 62 W/m 0,7 C -0,2 C 12,9 km/h (3 Bft)
30.01.2021 12:06 1,4 C 2,2 C 95 % 1000,2 hPa 0,0 l/m 9,4 km/h (2 Bft) NO 44 0 min 0,0 UV-I 65 W/m 0,7 C -1,4 C 14,5 km/h (3 Bft)
30.01.2021 12:08 1,4 C 2,2 C 95 % 1000,1 hPa 0,0 l/m 7,5 km/h (2 Bft) NO 36 0 min 0,0 UV-I 67 W/m 0,7 C 0,3 C 9,7 km/h (2 Bft)
30.01.2021 12:10 1,4 C 2,2 C 95 % 1000,1 hPa 0,0 l/m 6,3 km/h (2 Bft) NO 40 0 min 0,0 UV-I 69 W/m 0,7 C 1,4 C 8,0 km/h (2 Bft)
30.01.2021 12:12 1,4 C 2,2 C 95 % 1000,2 hPa 0,0 l/m 8,9 km/h (2 Bft) N-NO 33 0 min 0,0 UV-I 72 W/m 0,7 C -1,0 C 12,9 km/h (3 Bft)
30.01.2021 12:14 1,4 C 2,2 C 95 % 1000,2 hPa 0,0 l/m 9,0 km/h (2 Bft) NO 34 0 min 0,0 UV-I 80 W/m 0,7 C -1,1 C 14,5 km/h (3 Bft)
30.01.2021 12:16 1,4 C 2,2 C 95 % 1000,1 hPa 0,0 l/m 6,8 km/h (2 Bft) N-NO 29 0 min 0,0 UV-I 78 W/m 0,7 C 1,0 C 9,7 km/h (2 Bft)
30.01.2021 12:18 1,4 C 2,2 C 95 % 1000,1 hPa 0,0 l/m 6,2 km/h (2 Bft) NO 49 0 min 0,0 UV-I 73 W/m 0,7 C 1,4 C 9,7 km/h (2 Bft)
30.01.2021 12:20 1,4 C 2,2 C 95 % 1000,1 hPa 0,0 l/m 7,2 km/h (2 Bft) NO 38 0 min 0,0 UV-I 74 W/m 0,7 C 0,6 C 9,7 km/h (2 Bft)
30.01.2021 12:22 1,4 C 2,2 C 95 % 1000,1 hPa 0,0 l/m 7,9 km/h (2 Bft) NO 38 0 min 0,0 UV-I 78 W/m 0,7 C -0,1 C 11,3 km/h (2 Bft)
30.01.2021 12:24 1,4 C 2,2 C 95 % 1000,1 hPa 0,0 l/m 6,2 km/h (2 Bft) N-NO 26 0 min 0,0 UV-I 73 W/m 0,7 C 1,4 C 9,7 km/h (2 Bft)
30.01.2021 12:26 1,4 C 2,2 C 95 % 1000,0 hPa 0,0 l/m 7,0 km/h (2 Bft) NO 45 0 min 0,0 UV-I 71 W/m 0,7 C 0,8 C 12,9 km/h (3 Bft)
30.01.2021 12:28 1,4 C 2,2 C 95 % 1000,0 hPa 0,0 l/m 7,4 km/h (2 Bft) N-NO 17 0 min 0,0 UV-I 71 W/m 0,7 C 0,4 C 12,9 km/h (3 Bft)
30.01.2021 12:30 1,4 C 2,2 C 95 % 1000,0 hPa 0,0 l/m 8,2 km/h (2 Bft) N-NO 13 0 min 0,0 UV-I 70 W/m 0,7 C -0,4 C 12,9 km/h (3 Bft)
30.01.2021 12:32 1,4 C 2,2 C 95 % 999,9 hPa 0,0 l/m 8,8 km/h (2 Bft) NO 38 0 min 0,0 UV-I 69 W/m 0,7 C -0,9 C 12,9 km/h (3 Bft)
30.01.2021 12:34 1,4 C 2,2 C 95 % 999,8 hPa 0,0 l/m 8,5 km/h (2 Bft) N-NO 26 0 min 0,0 UV-I 69 W/m 0,7 C -0,6 C 11,3 km/h (2 Bft)
30.01.2021 12:36 1,4 C 2,2 C 95 % 999,9 hPa 0,0 l/m 7,3 km/h (2 Bft) NO 39 0 min 0,0 UV-I 68 W/m 0,7 C 0,5 C 12,9 km/h (3 Bft)
30.01.2021 12:38 1,4 C 2,2 C 95 % 999,9 hPa 0,0 l/m 6,8 km/h (2 Bft) NO 36 0 min 0,0 UV-I 72 W/m 0,7 C 1,0 C 9,7 km/h (2 Bft)
30.01.2021 12:40 1,4 C 2,2 C 95 % 999,8 hPa 0,0 l/m 9,7 km/h (2 Bft) N-NO 22 0 min 0,0 UV-I 74 W/m 0,7 C -1,7 C 14,5 km/h (3 Bft)
30.01.2021 12:42 1,4 C 2,8 C 95 % 999,8 hPa 0,0 l/m 8,8 km/h (2 Bft) NO 39 0 min 0,0 UV-I 72 W/m 0,7 C -0,9 C 12,9 km/h (3 Bft)
30.01.2021 12:44 1,4 C 2,8 C 95 % 999,7 hPa 0,0 l/m 11,3 km/h (2 Bft) N-NO 25 0 min 0,0 UV-I 76 W/m 0,7 C -2,9 C 14,5 km/h (3 Bft)
30.01.2021 12:46 1,4 C 2,8 C 95 % 999,7 hPa 0,0 l/m 9,1 km/h (2 Bft) NO 53 0 min 0,0 UV-I 74 W/m 0,7 C -1,2 C 14,5 km/h (3 Bft)
30.01.2021 12:48 1,4 C 2,8 C 95 % 999,7 hPa 0,0 l/m 7,8 km/h (2 Bft) N-NO 28 0 min 0,0 UV-I 71 W/m 0,7 C 0,0 C 14,5 km/h (3 Bft)
30.01.2021 12:50 1,5 C 2,8 C 95 % 999,7 hPa 0,0 l/m 7,9 km/h (2 Bft) NO 48 0 min 0,0 UV-I 70 W/m 0,8 C 0,0 C 14,5 km/h (3 Bft)
30.01.2021 12:52 1,4 C 2,2 C 95 % 999,6 hPa 0,0 l/m 9,4 km/h (2 Bft) NO 36 0 min 0,0 UV-I 65 W/m 0,7 C -1,4 C 14,5 km/h (3 Bft)
30.01.2021 12:54 1,4 C 2,2 C 95 % 999,6 hPa 0,0 l/m 9,3 km/h (2 Bft) NO 36 0 min 0,0 UV-I 62 W/m 0,7 C -1,3 C 14,5 km/h (3 Bft)
30.01.2021 12:56 1,4 C 2,2 C 95 % 999,6 hPa 0,0 l/m 9,9 km/h (2 Bft) NO 46 0 min 0,0 UV-I 61 W/m 0,7 C -1,8 C 16,1 km/h (3 Bft)
30.01.2021 12:58 1,4 C 2,2 C 95 % 999,6 hPa 0,0 l/m 7,2 km/h (2 Bft) NO 42 0 min 0,0 UV-I 57 W/m 0,7 C 0,6 C 11,3 km/h (2 Bft)
30.01.2021 13:00 1,3 C 2,2 C 95 % 999,6 hPa 0,0 l/m 6,5 km/h (2 Bft) NO 36 0 min 0,0 UV-I 54 W/m 0,6 C 1,2 C 11,3 km/h (2 Bft)
30.01.2021 13:02 1,3 C 2,2 C 95 % 999,6 hPa 0,0 l/m 7,1 km/h (2 Bft) NO 35 0 min 0,0 UV-I 54 W/m 0,6 C 0,6 C 9,7 km/h (2 Bft)
30.01.2021 13:04 1,3 C 2,2 C 95 % 999,5 hPa 0,0 l/m 7,9 km/h (2 Bft) N 9 0 min 0,0 UV-I 56 W/m 0,6 C -0,2 C 11,3 km/h (2 Bft)
30.01.2021 13:06 1,3 C 2,2 C 95 % 999,6 hPa 0,0 l/m 7,4 km/h (2 Bft) N-NO 28 0 min 0,0 UV-I 54 W/m 0,6 C 0,3 C 12,9 km/h (3 Bft)
30.01.2021 13:08 1,3 C 2,2 C 95 % 999,4 hPa 0,0 l/m 7,2 km/h (2 Bft) NO 36 0 min 0,0 UV-I 55 W/m 0,6 C 0,5 C 12,9 km/h (3 Bft)
30.01.2021 13:10 1,3 C 2,2 C 95 % 999,5 hPa 0,0 l/m 7,6 km/h (2 Bft) N-NO 29 0 min 0,0 UV-I 54 W/m 0,6 C 0,1 C 12,9 km/h (3 Bft)
30.01.2021 13:12 1,3 C 2,2 C 95 % 999,5 hPa 0,0 l/m 7,6 km/h (2 Bft) N-NO 28 0 min 0,0 UV-I 53 W/m 0,6 C 0,1 C 12,9 km/h (3 Bft)
30.01.2021 13:14 1,3 C 2,2 C 95 % 999,4 hPa 0,2 l/m 8,0 km/h (2 Bft) NO 39 0 min 0,0 UV-I 51 W/m 0,6 C -0,3 C 12,9 km/h (3 Bft)
30.01.2021 13:16 1,3 C 2,2 C 95 % 999,4 hPa 0,0 l/m 8,2 km/h (2 Bft) NO 35 0 min 0,0 UV-I 51 W/m 0,6 C -0,5 C 9,7 km/h (2 Bft)
30.01.2021 13:18 1,2 C 2,2 C 95 % 999,3 hPa 0,0 l/m 5,9 km/h (2 Bft) NO 35 0 min 0,0 UV-I 54 W/m 0,5 C 1,2 C 9,7 km/h (2 Bft)
30.01.2021 13:20 1,3 C 2,2 C 95 % 999,4 hPa 0,0 l/m 6,8 km/h (2 Bft) NO 43 0 min 0,0 UV-I 55 W/m 0,6 C 0,9 C 9,7 km/h (2 Bft)
30.01.2021 13:22 1,2 C 1,7 C 95 % 999,4 hPa 0,0 l/m 6,6 km/h (2 Bft) NO 37 0 min 0,0 UV-I 57 W/m 0,5 C 1,0 C 9,7 km/h (2 Bft)
30.01.2021 13:24 1,3 C 2,2 C 95 % 999,4 hPa 0,0 l/m 4,5 km/h (1 Bft) N-NO 26 0 min 0,0 UV-I 58 W/m 0,6 C 1,3 C 6,4 km/h (2 Bft)
30.01.2021 13:26 1,3 C 2,2 C 95 % 999,3 hPa 0,0 l/m 6,4 km/h (2 Bft) NO 36 0 min 0,0 UV-I 60 W/m 0,6 C 1,3 C 8,0 km/h (2 Bft)
30.01.2021 13:28 1,3 C 2,2 C 95 % 999,3 hPa 0,0 l/m 8,4 km/h (2 Bft) N-NO 32 0 min 0,0 UV-I 59 W/m 0,6 C -0,7 C 12,9 km/h (3 Bft)
30.01.2021 13:30 1,3 C 2,2 C 95 % 999,3 hPa 0,0 l/m 7,6 km/h (2 Bft) N-NO 32 0 min 0,0 UV-I 59 W/m 0,6 C 0,1 C 11,3 km/h (2 Bft)
30.01.2021 13:32 1,3 C 2,2 C 95 % 999,3 hPa 0,0 l/m 7,3 km/h (2 Bft) NO 49 0 min 0,0 UV-I 55 W/m 0,6 C 0,4 C 9,7 km/h (2 Bft)
30.01.2021 13:34 1,3 C 2,2 C 95 % 999,3 hPa 0,0 l/m 6,4 km/h (2 Bft) NO 51 0 min 0,0 UV-I 50 W/m 0,6 C 1,3 C 11,3 km/h (2 Bft)
30.01.2021 13:36 1,3 C 2,2 C 95 % 999,3 hPa 0,0 l/m 6,0 km/h (2 Bft) NO 44 0 min 0,0 UV-I 49 W/m 0,6 C 1,3 C 11,3 km/h (2 Bft)
30.01.2021 13:38 1,3 C 2,2 C 95 % 999,4 hPa 0,0 l/m 4,4 km/h (1 Bft) NO 34 0 min 0,0 UV-I 47 W/m 0,6 C 1,3 C 8,0 km/h (2 Bft)
30.01.2021 13:40 1,3 C 2,2 C 95 % 999,2 hPa 0,0 l/m 5,1 km/h (1 Bft) NO 37 0 min 0,0 UV-I 47 W/m 0,6 C 1,3 C 8,0 km/h (2 Bft)
30.01.2021 13:42 1,3 C 2,2 C 95 % 999,3 hPa 0,0 l/m 5,3 km/h (1 Bft) NO 42 0 min 0,0 UV-I 46 W/m 0,6 C 1,3 C 6,4 km/h (2 Bft)
30.01.2021 13:44 1,3 C 2,2 C 95 % 999,2 hPa 0,0 l/m 5,5 km/h (1 Bft) NO 53 0 min 0,0 UV-I 46 W/m 0,6 C 1,3 C 8,0 km/h (2 Bft)
30.01.2021 13:46 1,3 C 2,2 C 95 % 999,2 hPa 0,0 l/m 4,4 km/h (1 Bft) N-NO 32 0 min 0,0 UV-I 46 W/m 0,6 C 1,3 C 6,4 km/h (2 Bft)
30.01.2021 13:48 1,3 C 2,2 C 95 % 999,2 hPa 0,0 l/m 6,6 km/h (2 Bft) N-NO 32 0 min 0,0 UV-I 46 W/m 0,6 C 1,1 C 8,0 km/h (2 Bft)
30.01.2021 13:50 1,3 C 2,2 C 95 % 999,2 hPa 0,0 l/m 6,8 km/h (2 Bft) NO 42 0 min 0,0 UV-I 44 W/m 0,6 C 0,9 C 9,7 km/h (2 Bft)
30.01.2021 13:52 1,3 C 2,2 C 95 % 999,2 hPa 0,0 l/m 6,0 km/h (2 Bft) NO 34 0 min 0,0 UV-I 43 W/m 0,6 C 1,3 C 9,7 km/h (2 Bft)
30.01.2021 13:54 1,3 C 2,2 C 95 % 999,2 hPa 0,0 l/m 5,7 km/h (1 Bft) N-NO 33 0 min 0,0 UV-I 44 W/m 0,6 C 1,3 C 9,7 km/h (2 Bft)
30.01.2021 13:56 1,3 C 2,2 C 95 % 999,1 hPa 0,0 l/m 7,6 km/h (2 Bft) NO 45 0 min 0,0 UV-I 46 W/m 0,6 C 0,1 C 11,3 km/h (2 Bft)
30.01.2021 13:58 1,2 C 1,7 C 95 % 999,1 hPa 0,0 l/m 8,4 km/h (2 Bft) N-NO 30 0 min 0,0 UV-I 46 W/m 0,5 C -0,8 C 12,9 km/h (3 Bft)
30.01.2021 14:00 1,2 C 1,7 C 95 % 999,2 hPa 0,0 l/m 8,8 km/h (2 Bft) NO 40 0 min 0,0 UV-I 46 W/m 0,5 C -1,1 C 12,9 km/h (3 Bft)
30.01.2021 14:02 1,2 C 1,7 C 95 % 999,1 hPa 0,0 l/m 10,4 km/h (2 Bft) NO 43 0 min 0,0 UV-I 47 W/m 0,5 C -2,4 C 14,5 km/h (3 Bft)
30.01.2021 14:04 1,2 C 1,7 C 95 % 999,1 hPa 0,0 l/m 7,9 km/h (2 Bft) NO 49 0 min 0,0 UV-I 47 W/m 0,5 C -0,3 C 12,9 km/h (3 Bft)
30.01.2021 14:06 1,2 C 1,7 C 95 % 999,0 hPa 0,0 l/m 10,4 km/h (2 Bft) NO 42 0 min 0,0 UV-I 46 W/m 0,5 C -2,4 C 14,5 km/h (3 Bft)
30.01.2021 14:08 1,2 C 1,7 C 95 % 999,1 hPa 0,2 l/m 7,3 km/h (2 Bft) N-NO 22 0 min 0,0 UV-I 47 W/m 0,5 C 0,3 C 11,3 km/h (2 Bft)
30.01.2021 14:10 1,2 C 1,7 C 95 % 999,0 hPa 0,0 l/m 6,6 km/h (2 Bft) NO 36 0 min 0,0 UV-I 47 W/m 0,5 C 1,0 C 9,7 km/h (2 Bft)
30.01.2021 14:12 1,2 C 1,7 C 95 % 999,0 hPa 0,0 l/m 7,7 km/h (2 Bft) NO 49 0 min 0,0 UV-I 46 W/m 0,5 C -0,1 C 11,3 km/h (2 Bft)
30.01.2021 14:14 1,2 C 1,7 C 95 % 999,0 hPa 0,0 l/m 7,4 km/h (2 Bft) NO 34 0 min 0,0 UV-I 47 W/m 0,5 C 0,2 C 14,5 km/h (3 Bft)
30.01.2021 14:16 1,1 C 1,7 C 95 % 999,0 hPa 0,0 l/m 6,9 km/h (2 Bft) O-NO 57 0 min 0,0 UV-I 48 W/m 0,4 C 0,6 C 9,7 km/h (2 Bft)
30.01.2021 14:18 1,1 C 1,7 C 95 % 999,0 hPa 0,0 l/m 7,3 km/h (2 Bft) NO 39 0 min 0,0 UV-I 46 W/m 0,4 C 0,2 C 12,9 km/h (3 Bft)
30.01.2021 14:20 1,1 C 1,7 C 95 % 999,0 hPa 0,0 l/m 8,9 km/h (2 Bft) NO 44 0 min 0,0 UV-I 46 W/m 0,4 C -1,3 C 14,5 km/h (3 Bft)
30.01.2021 14:22 1,1 C 1,7 C 95 % 999,0 hPa 0,0 l/m 6,6 km/h (2 Bft) N-NO 23 0 min 0,0 UV-I 45 W/m 0,4 C 0,9 C 9,7 km/h (2 Bft)
30.01.2021 14:24 1,1 C 1,7 C 95 % 998,8 hPa 0,0 l/m 8,0 km/h (2 Bft) NO 55 0 min 0,0 UV-I 47 W/m 0,4 C -0,5 C 12,9 km/h (3 Bft)
30.01.2021 14:26 1,1 C 1,7 C 95 % 999,0 hPa 0,0 l/m 7,3 km/h (2 Bft) NO 44 0 min 0,0 UV-I 47 W/m 0,4 C 0,2 C 9,7 km/h (2 Bft)
30.01.2021 14:28 1,1 C 1,7 C 95 % 998,9 hPa 0,0 l/m 6,7 km/h (2 Bft) N-NO 30 0 min 0,0 UV-I 46 W/m 0,4 C 0,8 C 9,7 km/h (2 Bft)
30.01.2021 14:30 1,1 C 1,7 C 95 % 998,9 hPa 0,0 l/m 7,8 km/h (2 Bft) NO 39 0 min 0,0 UV-I 46 W/m 0,4 C -0,3 C 12,9 km/h (3 Bft)
30.01.2021 14:32 1,1 C 1,7 C 95 % 998,9 hPa 0,0 l/m 6,9 km/h (2 Bft) N-NO 31 0 min 0,0 UV-I 46 W/m 0,4 C 0,6 C 11,3 km/h (2 Bft)
30.01.2021 14:34 1,1 C 1,7 C 95 % 998,9 hPa 0,0 l/m 8,3 km/h (2 Bft) NO 49 0 min 0,0 UV-I 48 W/m 0,4 C -0,8 C 12,9 km/h (3 Bft)
30.01.2021 14:36 1,1 C 1,7 C 95 % 998,8 hPa 0,0 l/m 8,6 km/h (2 Bft) N-NO 23 0 min 0,0 UV-I 47 W/m 0,4 C -1,0 C 14,5 km/h (3 Bft)
30.01.2021 14:38 1,0 C 1,1 C 95 % 998,8 hPa 0,0 l/m 7,8 km/h (2 Bft) N-NO 33 0 min 0,0 UV-I 47 W/m 0,3 C -0,4 C 11,3 km/h (2 Bft)
30.01.2021 14:40 1,0 C 1,7 C 95 % 998,8 hPa 0,0 l/m 7,3 km/h (2 Bft) N-NO 32 0 min 0,0 UV-I 49 W/m 0,3 C 0,1 C 9,7 km/h (2 Bft)
30.01.2021 14:42 1,0 C 1,7 C 95 % 998,8 hPa 0,2 l/m 7,4 km/h (2 Bft) NO 34 0 min 0,0 UV-I 50 W/m 0,3 C -0,0 C 11,3 km/h (2 Bft)
30.01.2021 14:44 1,0 C 1,7 C 95 % 998,7 hPa 0,0 l/m 8,4 km/h (2 Bft) NO 41 0 min 0,0 UV-I 50 W/m 0,3 C -1,0 C 12,9 km/h (3 Bft)
30.01.2021 14:46 0,9 C 1,7 C 95 % 998,8 hPa 0,0 l/m 7,0 km/h (2 Bft) NO 38 0 min 0,0 UV-I 50 W/m 0,2 C 0,3 C 12,9 km/h (3 Bft)
30.01.2021 14:48 1,0 C 1,7 C 95 % 998,8 hPa 0,0 l/m 7,1 km/h (2 Bft) NO 43 0 min 0,0 UV-I 48 W/m 0,3 C 0,3 C 11,3 km/h (2 Bft)
30.01.2021 14:50 0,9 C 1,7 C 95 % 998,7 hPa 0,0 l/m 7,4 km/h (2 Bft) N-NO 28 0 min 0,0 UV-I 45 W/m 0,2 C -0,1 C 12,9 km/h (3 Bft)
30.01.2021 14:52 1,0 C 1,7 C 95 % 998,8 hPa 0,0 l/m 6,6 km/h (2 Bft) NO 45 0 min 0,0 UV-I 42 W/m 0,3 C 0,8 C 9,7 km/h (2 Bft)
30.01.2021 14:54 0,9 C 1,1 C 95 % 998,7 hPa 0,0 l/m 7,6 km/h (2 Bft) NO 37 0 min 0,0 UV-I 41 W/m 0,2 C -0,3 C 11,3 km/h (2 Bft)
30.01.2021 14:56 0,9 C 1,7 C 95 % 998,7 hPa 0,0 l/m 5,2 km/h (1 Bft) N-NO 28 0 min 0,0 UV-I 42 W/m 0,2 C 0,9 C 6,4 km/h (2 Bft)
30.01.2021 14:58 0,9 C 1,7 C 95 % 998,7 hPa 0,0 l/m 6,1 km/h (2 Bft) NO 40 0 min 0,0 UV-I 40 W/m 0,2 C 0,9 C 9,7 km/h (2 Bft)
30.01.2021 15:00 0,9 C 1,7 C 95 % 998,6 hPa 0,0 l/m 7,3 km/h (2 Bft) NO 36 0 min 0,0 UV-I 39 W/m 0,2 C -0,0 C 9,7 km/h (2 Bft)
30.01.2021 15:02 0,9 C 1,1 C 95 % 998,5 hPa 0,0 l/m 9,1 km/h (2 Bft) NO 42 0 min 0,0 UV-I 39 W/m 0,2 C -1,7 C 12,9 km/h (3 Bft)
30.01.2021 15:04 0,9 C 1,1 C 95 % 998,6 hPa 0,0 l/m 10,7 km/h (2 Bft) N-NO 31 0 min 0,0 UV-I 39 W/m 0,2 C -3,0 C 16,1 km/h (3 Bft)
30.01.2021 15:06 0,9 C 1,1 C 95 % 998,6 hPa 0,0 l/m 7,4 km/h (2 Bft) NO 52 0 min 0,0 UV-I 38 W/m 0,2 C -0,1 C 9,7 km/h (2 Bft)
30.01.2021 15:08 0,9 C 1,1 C 95 % 998,6 hPa 0,0 l/m 8,0 km/h (2 Bft) NO 46 0 min 0,0 UV-I 37 W/m 0,2 C -0,7 C 11,3 km/h (2 Bft)
30.01.2021 15:10 0,9 C 1,1 C 95 % 998,5 hPa 0,0 l/m 4,9 km/h (1 Bft) NO 48 0 min 0,0 UV-I 37 W/m 0,2 C 0,9 C 6,4 km/h (2 Bft)
30.01.2021 15:12 0,9 C 1,1 C 95 % 998,6 hPa 0,2 l/m 7,1 km/h (2 Bft) NO 38 0 min 0,0 UV-I 37 W/m 0,2 C 0,2 C 9,7 km/h (2 Bft)
30.01.2021 15:14 0,9 C 1,1 C 95 % 998,6 hPa 0,0 l/m 8,0 km/h (2 Bft) N-NO 32 0 min 0,0 UV-I 37 W/m 0,2 C -0,7 C 12,9 km/h (3 Bft)
30.01.2021 15:16 0,8 C 1,1 C 95 % 998,5 hPa 0,0 l/m 8,3 km/h (2 Bft) N-NO 32 0 min 0,0 UV-I 38 W/m 0,1 C -1,1 C 14,5 km/h (3 Bft)
30.01.2021 15:18 0,8 C 1,1 C 95 % 998,6 hPa 0,0 l/m 8,2 km/h (2 Bft) NO 37 0 min 0,0 UV-I 38 W/m 0,1 C -1,0 C 12,9 km/h (3 Bft)
30.01.2021 15:20 0,8 C 1,1 C 95 % 998,7 hPa 0,0 l/m 9,4 km/h (2 Bft) NO 44 0 min 0,0 UV-I 39 W/m 0,1 C -2,1 C 14,5 km/h (3 Bft)
30.01.2021 15:22 0,8 C 1,1 C 95 % 998,6 hPa 0,0 l/m 7,7 km/h (2 Bft) NO 42 0 min 0,0 UV-I 42 W/m 0,1 C -0,5 C 11,3 km/h (2 Bft)
30.01.2021 15:24 0,8 C 1,1 C 95 % 998,6 hPa 0,0 l/m 8,0 km/h (2 Bft) NO 43 0 min 0,0 UV-I 42 W/m 0,1 C -0,8 C 12,9 km/h (3 Bft)
30.01.2021 15:26 0,8 C 1,1 C 95 % 998,6 hPa 0,0 l/m 7,9 km/h (2 Bft) O-NO 58 0 min 0,0 UV-I 44 W/m 0,1 C -0,7 C 14,5 km/h (3 Bft)
30.01.2021 15:28 0,8 C 1,1 C 96 % 998,6 hPa 0,0 l/m 6,4 km/h (2 Bft) NO 49 0 min 0,0 UV-I 43 W/m 0,2 C 0,8 C 11,3 km/h (2 Bft)
30.01.2021 15:30 0,8 C 1,1 C 95 % 998,5 hPa 0,0 l/m 7,6 km/h (2 Bft) NO 50 0 min 0,0 UV-I 44 W/m 0,1 C -0,4 C 9,7 km/h (2 Bft)
30.01.2021 15:32 0,8 C 1,1 C 95 % 998,6 hPa 0,0 l/m 6,2 km/h (2 Bft) NO 34 0 min 0,0 UV-I 44 W/m 0,1 C 0,8 C 11,3 km/h (2 Bft)
30.01.2021 15:34 0,8 C 1,1 C 95 % 998,6 hPa 0,0 l/m 9,3 km/h (2 Bft) N-NO 33 0 min 0,0 UV-I 43 W/m 0,1 C -2,0 C 16,1 km/h (3 Bft)
30.01.2021 15:36 0,8 C 1,1 C 95 % 998,5 hPa 0,0 l/m 9,4 km/h (2 Bft) NO 40 0 min 0,0 UV-I 43 W/m 0,1 C -2,1 C 16,1 km/h (3 Bft)
30.01.2021 15:38 0,8 C 1,1 C 95 % 998,5 hPa 0,0 l/m 9,9 km/h (2 Bft) NO 53 0 min 0,0 UV-I 43 W/m 0,1 C -2,5 C 16,1 km/h (3 Bft)
30.01.2021 15:40 0,8 C 1,1 C 95 % 998,5 hPa 0,0 l/m 13,2 km/h (3 Bft) NO 44 0 min 0,0 UV-I 46 W/m 0,1 C -4,9 C 20,9 km/h (4 Bft)
30.01.2021 15:42 0,8 C 1,1 C 95 % 998,5 hPa 0,0 l/m 8,3 km/h (2 Bft) NO 54 0 min 0,0 UV-I 47 W/m 0,1 C -1,1 C 14,5 km/h (3 Bft)
30.01.2021 15:44 0,8 C 1,1 C 95 % 998,5 hPa 0,0 l/m 10,4 km/h (2 Bft) NO 49 0 min 0,0 UV-I 46 W/m 0,1 C -2,9 C 16,1 km/h (3 Bft)
30.01.2021 15:46 0,8 C 1,1 C 95 % 998,5 hPa 0,0 l/m 9,7 km/h (2 Bft) NO 47 0 min 0,0 UV-I 47 W/m 0,1 C -2,3 C 14,5 km/h (3 Bft)
30.01.2021 15:48 0,8 C 1,1 C 95 % 998,5 hPa 0,0 l/m 7,9 km/h (2 Bft) NO 34 0 min 0,0 UV-I 48 W/m 0,1 C -0,7 C 9,7 km/h (2 Bft)
30.01.2021 15:50 0,8 C 1,1 C 95 % 998,5 hPa 0,0 l/m 11,5 km/h (2 Bft) O-NO 67 0 min 0,0 UV-I 49 W/m 0,1 C -3,7 C 19,3 km/h (3 Bft)
30.01.2021 15:52 0,8 C 1,1 C 95 % 998,4 hPa 0,0 l/m 11,0 km/h (2 Bft) NO 42 0 min 0,0 UV-I 50 W/m 0,1 C -3,3 C 19,3 km/h (3 Bft)
30.01.2021 15:54 0,8 C 1,1 C 95 % 998,5 hPa 0,0 l/m 9,0 km/h (2 Bft) NO 48 0 min 0,0 UV-I 50 W/m 0,1 C -1,7 C 16,1 km/h (3 Bft)
30.01.2021 15:56 0,8 C 1,1 C 95 % 998,5 hPa 0,0 l/m 8,8 km/h (2 Bft) NO 54 0 min 0,0 UV-I 46 W/m 0,1 C -1,5 C 14,5 km/h (3 Bft)
30.01.2021 15:58 0,8 C 1,1 C 95 % 998,5 hPa 0,0 l/m 11,7 km/h (2 Bft) NO 35 0 min 0,0 UV-I 48 W/m 0,1 C -3,9 C 17,7 km/h (3 Bft)
30.01.2021 16:00 0,8 C 1,1 C 95 % 998,5 hPa 0,0 l/m 8,6 km/h (2 Bft) NO 38 0 min 0,0 UV-I 48 W/m 0,1 C -1,4 C 14,5 km/h (3 Bft)
30.01.2021 16:02 0,8 C 1,1 C 95 % 998,5 hPa 0,0 l/m 11,6 km/h (2 Bft) O-NO 68 0 min 0,0 UV-I 43 W/m 0,1 C -3,8 C 16,1 km/h (3 Bft)
30.01.2021 16:04 0,8 C 1,1 C 95 % 998,5 hPa 0,2 l/m 8,0 km/h (2 Bft) NO 53 0 min 0,0 UV-I 42 W/m 0,1 C -0,8 C 14,5 km/h (3 Bft)
30.01.2021 16:06 0,8 C 1,1 C 95 % 998,6 hPa 0,0 l/m 9,5 km/h (2 Bft) NO 43 0 min 0,0 UV-I 37 W/m 0,1 C -2,2 C 14,5 km/h (3 Bft)
30.01.2021 16:08 0,7 C 1,1 C 95 % 998,6 hPa 0,0 l/m 8,9 km/h (2 Bft) NO 38 0 min 0,0 UV-I 35 W/m -0,0 C -1,7 C 14,5 km/h (3 Bft)
30.01.2021 16:10 0,7 C 1,1 C 95 % 998,6 hPa 0,0 l/m 9,5 km/h (2 Bft) NO 47 0 min 0,0 UV-I 34 W/m -0,0 C -2,3 C 16,1 km/h (3 Bft)
30.01.2021 16:12 0,7 C 1,1 C 95 % 998,6 hPa 0,0 l/m 9,2 km/h (2 Bft) NO 49 0 min 0,0 UV-I 31 W/m -0,0 C -2,0 C 16,1 km/h (3 Bft)
30.01.2021 16:14 0,7 C 1,1 C 95 % 998,6 hPa 0,0 l/m 11,2 km/h (2 Bft) NO 39 0 min 0,0 UV-I 30 W/m -0,0 C -3,6 C 17,7 km/h (3 Bft)
30.01.2021 16:16 0,7 C 1,1 C 96 % 998,5 hPa 0,0 l/m 10,6 km/h (2 Bft) NO 42 0 min 0,0 UV-I 27 W/m 0,1 C -3,2 C 19,3 km/h (3 Bft)
30.01.2021 16:18 0,7 C 1,1 C 96 % 998,6 hPa 0,0 l/m 10,9 km/h (2 Bft) O-NO 58 0 min 0,0 UV-I 25 W/m 0,1 C -3,4 C 16,1 km/h (3 Bft)
30.01.2021 16:20 0,7 C 1,1 C 96 % 998,6 hPa 0,0 l/m 12,6 km/h (3 Bft) NO 52 0 min 0,0 UV-I 23 W/m 0,1 C -4,6 C 17,7 km/h (3 Bft)
30.01.2021 16:22 0,7 C 1,1 C 96 % 998,6 hPa 0,0 l/m 14,3 km/h (3 Bft) N-NO 22 0 min 0,0 UV-I 23 W/m 0,1 C -5,7 C 20,9 km/h (4 Bft)
30.01.2021 16:24 0,6 C 1,1 C 96 % 998,5 hPa 0,0 l/m 13,9 km/h (3 Bft) NO 49 0 min 0,0 UV-I 21 W/m 0,0 C -5,6 C 19,3 km/h (3 Bft)
30.01.2021 16:26 0,6 C 1,1 C 96 % 998,5 hPa 0,0 l/m 15,3 km/h (3 Bft) O-NO 72 0 min 0,0 UV-I 21 W/m 0,0 C -6,4 C 20,9 km/h (4 Bft)
30.01.2021 16:28 0,6 C 1,1 C 96 % 998,5 hPa 0,0 l/m 13,7 km/h (3 Bft) NO 40 0 min 0,0 UV-I 20 W/m 0,0 C -5,5 C 22,5 km/h (4 Bft)
30.01.2021 16:30 0,6 C 1,1 C 96 % 998,5 hPa 0,0 l/m 12,4 km/h (3 Bft) O-NO 67 0 min 0,0 UV-I 18 W/m 0,0 C -4,6 C 19,3 km/h (3 Bft)
30.01.2021 16:32 0,6 C 0,6 C 96 % 998,5 hPa 0,0 l/m 14,5 km/h (3 Bft) NO 46 0 min 0,0 UV-I 16 W/m 0,0 C -6,0 C 19,3 km/h (3 Bft)
30.01.2021 16:34 0,6 C 0,6 C 95 % 998,6 hPa 0,0 l/m 8,2 km/h (2 Bft) O-NO 59 0 min 0,0 UV-I 14 W/m -0,1 C -1,2 C 12,9 km/h (3 Bft)
30.01.2021 16:36 0,6 C 1,1 C 95 % 998,5 hPa 0,0 l/m 11,4 km/h (2 Bft) O-NO 73 0 min 0,0 UV-I 14 W/m -0,1 C -3,9 C 19,3 km/h (3 Bft)
30.01.2021 16:38 0,6 C 0,6 C 95 % 998,6 hPa 0,0 l/m 10,4 km/h (2 Bft) NO 48 0 min 0,0 UV-I 12 W/m -0,1 C -3,1 C 16,1 km/h (3 Bft)
30.01.2021 16:40 0,5 C 0,6 C 95 % 998,6 hPa 0,0 l/m 9,5 km/h (2 Bft) O 87 0 min 0,0 UV-I 11 W/m -0,2 C -2,5 C 16,1 km/h (3 Bft)
30.01.2021 16:42 0,5 C 0,6 C 95 % 998,6 hPa 0,0 l/m 9,3 km/h (2 Bft) O-NO 57 0 min 0,0 UV-I 11 W/m -0,2 C -2,3 C 19,3 km/h (3 Bft)
30.01.2021 16:44 0,4 C 0,6 C 95 % 998,6 hPa 0,0 l/m 15,0 km/h (3 Bft) NO 50 0 min 0,0 UV-I 11 W/m -0,3 C -6,5 C 20,9 km/h (4 Bft)
30.01.2021 16:46 0,4 C 0,6 C 95 % 998,7 hPa 0,0 l/m 15,4 km/h (3 Bft) NO 44 0 min 0,0 UV-I 9 W/m -0,3 C -6,7 C 20,9 km/h (4 Bft)
30.01.2021 16:48 0,4 C 0,6 C 95 % 998,7 hPa 0,0 l/m 12,7 km/h (3 Bft) NO 46 0 min 0,0 UV-I 9 W/m -0,3 C -5,0 C 20,9 km/h (4 Bft)
30.01.2021 16:50 0,3 C 0,6 C 95 % 998,7 hPa 0,0 l/m 13,8 km/h (3 Bft) NO 47 0 min 0,0 UV-I 9 W/m -0,4 C -5,9 C 22,5 km/h (4 Bft)
30.01.2021 16:52 0,3 C 0,6 C 95 % 998,7 hPa 0,0 l/m 13,2 km/h (3 Bft) O-NO 69 0 min 0,0 UV-I 8 W/m -0,4 C -5,5 C 22,5 km/h (4 Bft)
30.01.2021 16:54 0,3 C 0,6 C 95 % 998,7 hPa 0,0 l/m 9,5 km/h (2 Bft) O-NO 64 0 min 0,0 UV-I 7 W/m -0,4 C -2,7 C 16,1 km/h (3 Bft)
30.01.2021 16:56 0,3 C 0,6 C 96 % 998,7 hPa 0,0 l/m 9,1 km/h (2 Bft) NO 54 0 min 0,0 UV-I 7 W/m -0,3 C -2,4 C 17,7 km/h (3 Bft)
30.01.2021 16:58 0,3 C 0,6 C 96 % 998,6 hPa 0,0 l/m 11,5 km/h (2 Bft) NO 53 0 min 0,0 UV-I 6 W/m -0,3 C -4,3 C 19,3 km/h (3 Bft)
30.01.2021 17:00 0,3 C 0,6 C 96 % 998,6 hPa 0,0 l/m 10,5 km/h (2 Bft) NO 37 0 min 0,0 UV-I 5 W/m -0,3 C -3,5 C 16,1 km/h (3 Bft)
30.01.2021 17:02 0,3 C 0,0 C 96 % 998,6 hPa 0,0 l/m 14,9 km/h (3 Bft) NO 47 0 min 0,0 UV-I 5 W/m -0,3 C -6,6 C 20,9 km/h (4 Bft)
30.01.2021 17:04 0,3 C 0,0 C 96 % 998,5 hPa 0,0 l/m 14,6 km/h (3 Bft) O-NO 57 0 min 0,0 UV-I 5 W/m -0,3 C -6,4 C 19,3 km/h (3 Bft)
30.01.2021 17:06 0,2 C 0,0 C 96 % 998,6 hPa 0,0 l/m 13,0 km/h (3 Bft) NO 43 0 min 0,0 UV-I 5 W/m -0,4 C -5,5 C 19,3 km/h (3 Bft)
30.01.2021 17:08 0,2 C 0,0 C 96 % 998,6 hPa 0,0 l/m 14,7 km/h (3 Bft) O-NO 59 0 min 0,0 UV-I 0 W/m -0,4 C -6,6 C 22,5 km/h (4 Bft)
30.01.2021 17:10 0,2 C 0,0 C 95 % 998,6 hPa 0,0 l/m 18,2 km/h (3 Bft) NO 40 0 min 0,0 UV-I 0 W/m -0,5 C -8,5 C 22,5 km/h (4 Bft)
30.01.2021 17:12 0,2 C 0,0 C 95 % 998,6 hPa 0,0 l/m 16,4 km/h (3 Bft) N-NO 33 0 min 0,0 UV-I 0 W/m -0,5 C -7,5 C 20,9 km/h (4 Bft)
30.01.2021 17:14 0,1 C 0,0 C 95 % 998,7 hPa 0,0 l/m 15,2 km/h (3 Bft) NO 52 0 min 0,0 UV-I 0 W/m -0,6 C -7,0 C 24,1 km/h (4 Bft)
30.01.2021 17:16 0,1 C 0,0 C 95 % 998,8 hPa 0,0 l/m 12,5 km/h (3 Bft) N-NO 33 0 min 0,0 UV-I 0 W/m -0,6 C -5,2 C 17,7 km/h (3 Bft)
30.01.2021 17:18 0,1 C 0,0 C 95 % 998,8 hPa 0,0 l/m 12,7 km/h (3 Bft) NO 44 0 min 0,0 UV-I 0 W/m -0,6 C -5,4 C 19,3 km/h (3 Bft)
30.01.2021 17:20 0,1 C 0,0 C 95 % 998,8 hPa 0,0 l/m 13,7 km/h (3 Bft) NO 55 0 min 0,0 UV-I 0 W/m -0,6 C -6,0 C 20,9 km/h (4 Bft)
30.01.2021 17:22 0,1 C 0,0 C 95 % 998,8 hPa 0,0 l/m 15,2 km/h (3 Bft) NO 44 0 min 0,0 UV-I 0 W/m -0,6 C -7,0 C 22,5 km/h (4 Bft)
30.01.2021 17:24 0,0 C 0,0 C 95 % 998,9 hPa 0,0 l/m 16,7 km/h (3 Bft) NO 51 0 min 0,0 UV-I 0 W/m -0,7 C -8,0 C 22,5 km/h (4 Bft)
30.01.2021 17:26 0,0 C 0,0 C 95 % 998,8 hPa 0,0 l/m 12,4 km/h (3 Bft) O-NO 74 0 min 0,0 UV-I 0 W/m -0,7 C -5,3 C 20,9 km/h (4 Bft)
30.01.2021 17:28 -0,1 C 0,0 C 96 % 998,8 hPa 0,0 l/m 13,5 km/h (3 Bft) NO 44 0 min 0,0 UV-I 0 W/m -0,7 C -6,2 C 19,3 km/h (3 Bft)
30.01.2021 17:30 -0,1 C 0,0 C 96 % 998,9 hPa 0,0 l/m 14,7 km/h (3 Bft) NO 53 0 min 0,0 UV-I 0 W/m -0,7 C -6,9 C 20,9 km/h (4 Bft)
30.01.2021 17:32 -0,1 C 0,0 C 95 % 999,0 hPa 0,0 l/m 14,6 km/h (3 Bft) NO 45 0 min 0,0 UV-I 0 W/m -0,8 C -6,9 C 20,9 km/h (4 Bft)
30.01.2021 17:34 -0,1 C 0,0 C 95 % 999,0 hPa 0,0 l/m 15,4 km/h (3 Bft) NO 44 0 min 0,0 UV-I 0 W/m -0,8 C -7,3 C 22,5 km/h (4 Bft)
30.01.2021 17:36 -0,1 C 0,0 C 95 % 999,1 hPa 0,0 l/m 15,1 km/h (3 Bft) O-NO 70 0 min 0,0 UV-I 0 W/m -0,8 C -7,2 C 19,3 km/h (3 Bft)
30.01.2021 17:38 -0,1 C 0,0 C 95 % 999,1 hPa 0,0 l/m 12,5 km/h (3 Bft) NO 51 0 min 0,0 UV-I 0 W/m -0,8 C -5,5 C 20,9 km/h (4 Bft)
30.01.2021 17:40 -0,1 C 0,0 C 95 % 999,1 hPa 0,2 l/m 15,8 km/h (3 Bft) NO 44 0 min 0,0 UV-I 0 W/m -0,8 C -7,6 C 20,9 km/h (4 Bft)
30.01.2021 17:42 -0,2 C 0,0 C 95 % 999,2 hPa 0,0 l/m 14,9 km/h (3 Bft) NO 47 0 min 0,0 UV-I 0 W/m -0,9 C -7,2 C 20,9 km/h (4 Bft)
30.01.2021 17:44 -0,2 C 0,0 C 95 % 999,2 hPa 0,0 l/m 15,1 km/h (3 Bft) NO 34 0 min 0,0 UV-I 0 W/m -0,9 C -7,3 C 19,3 km/h (3 Bft)
30.01.2021 17:46 -0,2 C 0,0 C 95 % 999,2 hPa 0,0 l/m 15,1 km/h (3 Bft) O-NO 64 0 min 0,0 UV-I 0 W/m -0,9 C -7,3 C 20,9 km/h (4 Bft)
30.01.2021 17:48 -0,2 C 0,0 C 96 % 999,3 hPa 0,0 l/m 12,7 km/h (3 Bft) NO 53 0 min 0,0 UV-I 0 W/m -0,8 C -5,7 C 16,1 km/h (3 Bft)
30.01.2021 17:50 -0,2 C 0,0 C 95 % 999,3 hPa 0,0 l/m 13,4 km/h (3 Bft) NO 39 0 min 0,0 UV-I 0 W/m -0,9 C -6,2 C 19,3 km/h (3 Bft)
30.01.2021 17:52 -0,3 C 0,0 C 96 % 999,2 hPa 0,0 l/m 10,9 km/h (2 Bft) NO 41 0 min 0,0 UV-I 0 W/m -0,9 C -4,5 C 20,9 km/h (4 Bft)
30.01.2021 17:54 -0,3 C 0,0 C 96 % 999,3 hPa 0,0 l/m 11,3 km/h (2 Bft) O 83 0 min 0,0 UV-I 0 W/m -0,9 C -4,8 C 19,3 km/h (3 Bft)
30.01.2021 17:56 -0,3 C 0,0 C 96 % 999,2 hPa 0,0 l/m 17,9 km/h (3 Bft) NO 38 0 min 0,0 UV-I 0 W/m -0,9 C -9,0 C 24,1 km/h (4 Bft)
30.01.2021 17:58 -0,3 C 0,0 C 96 % 999,2 hPa 0,0 l/m 15,0 km/h (3 Bft) O-NO 65 0 min 0,0 UV-I 0 W/m -0,9 C -7,3 C 20,9 km/h (4 Bft)
30.01.2021 18:00 -0,3 C 0,0 C 96 % 999,2 hPa 0,0 l/m 13,6 km/h (3 Bft) NO 49 0 min 0,0 UV-I 0 W/m -0,9 C -6,5 C 20,9 km/h (4 Bft)
30.01.2021 18:02 -0,3 C 0,0 C 96 % 999,2 hPa 0,0 l/m 14,6 km/h (3 Bft) O-NO 65 0 min 0,0 UV-I 0 W/m -0,9 C -7,1 C 22,5 km/h (4 Bft)
30.01.2021 18:04 -0,4 C 0,0 C 96 % 999,3 hPa 0,0 l/m 12,7 km/h (3 Bft) N-NO 31 0 min 0,0 UV-I 0 W/m -1,0 C -6,0 C 19,3 km/h (3 Bft)
30.01.2021 18:06 -0,4 C 0,0 C 96 % 999,3 hPa 0,0 l/m 14,2 km/h (3 Bft) NO 42 0 min 0,0 UV-I 0 W/m -1,0 C -7,0 C 24,1 km/h (4 Bft)
30.01.2021 18:08 -0,4 C 0,0 C 95 % 999,4 hPa 0,0 l/m 14,7 km/h (3 Bft) O-NO 62 0 min 0,0 UV-I 0 W/m -1,1 C -7,3 C 20,9 km/h (4 Bft)
30.01.2021 18:10 -0,4 C 0,0 C 95 % 999,4 hPa 0,0 l/m 16,5 km/h (3 Bft) O-NO 60 0 min 0,0 UV-I 0 W/m -1,1 C -8,3 C 29,0 km/h (5 Bft)
30.01.2021 18:12 -0,5 C -0,6 C 95 % 999,3 hPa 0,0 l/m 16,1 km/h (3 Bft) O-NO 61 0 min 0,0 UV-I 0 W/m -1,2 C -8,2 C 24,1 km/h (4 Bft)
30.01.2021 18:14 -0,6 C -0,6 C 95 % 999,4 hPa 0,0 l/m 12,1 km/h (2 Bft) NO 38 0 min 0,0 UV-I 0 W/m -1,3 C -5,8 C 17,7 km/h (3 Bft)
30.01.2021 18:16 -0,6 C -0,6 C 95 % 999,5 hPa 0,0 l/m 14,3 km/h (3 Bft) O-NO 58 0 min 0,0 UV-I 0 W/m -1,3 C -7,3 C 24,1 km/h (4 Bft)
30.01.2021 18:18 -0,6 C -0,6 C 95 % 999,5 hPa 0,0 l/m 17,5 km/h (3 Bft) NO 44 0 min 0,0 UV-I 0 W/m -1,3 C -9,1 C 29,0 km/h (5 Bft)
30.01.2021 18:20 -0,6 C -0,6 C 96 % 999,5 hPa 0,0 l/m 18,5 km/h (3 Bft) NO 41 0 min 0,0 UV-I 0 W/m -1,2 C -9,7 C 25,7 km/h (4 Bft)
30.01.2021 18:22 -0,7 C -0,6 C 96 % 999,6 hPa 0,0 l/m 17,0 km/h (3 Bft) O 92 0 min 0,0 UV-I 0 W/m -1,3 C -9,0 C 24,1 km/h (4 Bft)
30.01.2021 18:24 -0,7 C -0,6 C 96 % 999,5 hPa 0,2 l/m 16,2 km/h (3 Bft) O-NO 67 0 min 0,0 UV-I 0 W/m -1,3 C -8,5 C 22,5 km/h (4 Bft)
30.01.2021 18:26 -0,7 C -0,6 C 96 % 999,6 hPa 0,0 l/m 16,1 km/h (3 Bft) NO 46 0 min 0,0 UV-I 0 W/m -1,3 C -8,5 C 20,9 km/h (4 Bft)
30.01.2021 18:28 -0,7 C -0,6 C 96 % 999,6 hPa 0,0 l/m 17,5 km/h (3 Bft) O-NO 60 0 min 0,0 UV-I 0 W/m -1,3 C -9,3 C 24,1 km/h (4 Bft)
30.01.2021 18:30 -0,7 C -0,6 C 95 % 999,6 hPa 0,0 l/m 19,7 km/h (3 Bft) NO 40 0 min 0,0 UV-I 0 W/m -1,4 C -10,4 C 29,0 km/h (5 Bft)
30.01.2021 18:32 -0,8 C -0,6 C 95 % 999,6 hPa 0,0 l/m 18,4 km/h (3 Bft) NO 50 0 min 0,0 UV-I 0 W/m -1,5 C -9,9 C 25,7 km/h (4 Bft)
30.01.2021 18:34 -0,8 C -0,6 C 95 % 999,6 hPa 0,0 l/m 18,7 km/h (3 Bft) O-NO 69 0 min 0,0 UV-I 0 W/m -1,5 C -10,0 C 27,4 km/h (4 Bft)
30.01.2021 18:36 -0,8 C -0,6 C 95 % 999,6 hPa 0,0 l/m 14,8 km/h (3 Bft) O-NO 69 0 min 0,0 UV-I 0 W/m -1,5 C -7,8 C 20,9 km/h (4 Bft)
30.01.2021 18:38 -0,8 C -0,6 C 95 % 999,6 hPa 0,0 l/m 16,5 km/h (3 Bft) NO 42 0 min 0,0 UV-I 0 W/m -1,5 C -8,8 C 25,7 km/h (4 Bft)
30.01.2021 18:40 -0,8 C -0,6 C 96 % 999,6 hPa 0,0 l/m 15,1 km/h (3 Bft) O-NO 61 0 min 0,0 UV-I 0 W/m -1,4 C -8,0 C 22,5 km/h (4 Bft)
30.01.2021 18:42 -0,9 C -0,6 C 96 % 999,7 hPa 0,0 l/m 16,6 km/h (3 Bft) NO 40 0 min 0,0 UV-I 0 W/m -1,5 C -9,0 C 22,5 km/h (4 Bft)
30.01.2021 18:44 -0,9 C -0,6 C 96 % 999,8 hPa 0,2 l/m 16,5 km/h (3 Bft) O-NO 61 0 min 0,0 UV-I 0 W/m -1,5 C -9,0 C 24,1 km/h (4 Bft)
30.01.2021 18:46 -0,9 C -0,6 C 96 % 999,8 hPa 0,0 l/m 15,1 km/h (3 Bft) N-NO 25 0 min 0,0 UV-I 0 W/m -1,5 C -8,1 C 20,9 km/h (4 Bft)
30.01.2021 18:48 -0,9 C -0,6 C 96 % 999,8 hPa 0,0 l/m 12,5 km/h (3 Bft) O-NO 65 0 min 0,0 UV-I 0 W/m -1,5 C -6,4 C 19,3 km/h (3 Bft)
30.01.2021 18:50 -0,9 C -0,6 C 96 % 999,9 hPa 0,0 l/m 13,7 km/h (3 Bft) N 5 0 min 0,0 UV-I 0 W/m -1,5 C -7,2 C 20,9 km/h (4 Bft)
30.01.2021 18:52 -0,9 C -0,6 C 96 % 999,9 hPa 0,0 l/m 15,2 km/h (3 Bft) O-NO 57 0 min 0,0 UV-I 0 W/m -1,5 C -8,2 C 20,9 km/h (4 Bft)
30.01.2021 18:54 -0,9 C -0,6 C 96 % 1000,0 hPa 0,0 l/m 17,0 km/h (3 Bft) N-NO 23 0 min 0,0 UV-I 0 W/m -1,5 C -9,2 C 20,9 km/h (4 Bft)
30.01.2021 18:56 -0,9 C -0,6 C 96 % 999,9 hPa 0,0 l/m 17,1 km/h (3 Bft) NO 51 0 min 0,0 UV-I 0 W/m -1,5 C -9,3 C 24,1 km/h (4 Bft)
30.01.2021 18:58 -0,9 C -0,6 C 96 % 999,9 hPa 0,0 l/m 15,3 km/h (3 Bft) NO 47 0 min 0,0 UV-I 0 W/m -1,5 C -8,3 C 22,5 km/h (4 Bft)
30.01.2021 19:00 -0,9 C -0,6 C 96 % 999,8 hPa 0,0 l/m 16,8 km/h (3 Bft) NO 48 0 min 0,0 UV-I 0 W/m -1,5 C -9,1 C 24,1 km/h (4 Bft)
30.01.2021 19:02 -0,9 C -0,6 C 96 % 999,8 hPa 0,0 l/m 19,1 km/h (3 Bft) O-NO 63 0 min 0,0 UV-I 0 W/m -1,5 C -10,4 C 27,4 km/h (4 Bft)
30.01.2021 19:04 -1,0 C -0,6 C 96 % 999,9 hPa 0,0 l/m 19,5 km/h (3 Bft) NO 55 0 min 0,0 UV-I 0 W/m -1,6 C -10,7 C 30,6 km/h (5 Bft)
30.01.2021 19:06 -1,0 C -0,6 C 95 % 999,9 hPa 0,0 l/m 17,2 km/h (3 Bft) NO 38 0 min 0,0 UV-I 0 W/m -1,7 C -9,5 C 24,1 km/h (4 Bft)
30.01.2021 19:08 -1,1 C -0,6 C 95 % 999,9 hPa 0,0 l/m 17,8 km/h (3 Bft) N-NO 22 0 min 0,0 UV-I 0 W/m -1,8 C -9,9 C 25,7 km/h (4 Bft)
30.01.2021 19:10 -1,1 C -0,6 C 95 % 1000,0 hPa 0,2 l/m 18,0 km/h (3 Bft) NO 48 0 min 0,0 UV-I 0 W/m -1,8 C -10,0 C 24,1 km/h (4 Bft)
30.01.2021 19:12 -1,1 C -0,6 C 95 % 1000,0 hPa 0,0 l/m 15,8 km/h (3 Bft) N-NO 26 0 min 0,0 UV-I 0 W/m -1,8 C -8,8 C 24,1 km/h (4 Bft)
30.01.2021 19:14 -1,1 C -0,6 C 96 % 1000,0 hPa 0,0 l/m 18,3 km/h (3 Bft) O-NO 66 0 min 0,0 UV-I 0 W/m -1,7 C -10,2 C 24,1 km/h (4 Bft)
30.01.2021 19:16 -1,1 C -0,6 C 96 % 1000,0 hPa 0,0 l/m 15,3 km/h (3 Bft) O-NO 61 0 min 0,0 UV-I 0 W/m -1,7 C -8,5 C 25,7 km/h (4 Bft)
30.01.2021 19:18 -1,1 C -0,6 C 96 % 1000,0 hPa 0,0 l/m 18,7 km/h (3 Bft) NO 56 0 min 0,0 UV-I 0 W/m -1,7 C -10,4 C 25,7 km/h (4 Bft)
30.01.2021 19:20 -1,1 C -0,6 C 95 % 1000,0 hPa 0,0 l/m 15,0 km/h (3 Bft) NO 40 0 min 0,0 UV-I 0 W/m -1,8 C -8,3 C 24,1 km/h (4 Bft)
30.01.2021 19:22 -1,2 C -0,6 C 96 % 1000,0 hPa 0,0 l/m 21,0 km/h (4 Bft) NO 49 0 min 0,0 UV-I 0 W/m -1,8 C -11,7 C 27,4 km/h (4 Bft)
30.01.2021 19:24 -1,2 C -0,6 C 96 % 1000,0 hPa 0,0 l/m 17,6 km/h (3 Bft) NO 38 0 min 0,0 UV-I 0 W/m -1,8 C -10,0 C 24,1 km/h (4 Bft)
30.01.2021 19:26 -1,2 C -0,6 C 96 % 1000,1 hPa 0,0 l/m 17,0 km/h (3 Bft) NO 34 0 min 0,0 UV-I 0 W/m -1,8 C -9,6 C 24,1 km/h (4 Bft)
30.01.2021 19:28 -1,2 C -0,6 C 96 % 1000,1 hPa 0,0 l/m 18,9 km/h (3 Bft) O-NO 64 0 min 0,0 UV-I 0 W/m -1,8 C -10,6 C 27,4 km/h (4 Bft)
30.01.2021 19:30 -1,2 C -0,6 C 96 % 1000,0 hPa 0,0 l/m 17,1 km/h (3 Bft) O-NO 63 0 min 0,0 UV-I 0 W/m -1,8 C -9,7 C 24,1 km/h (4 Bft)
30.01.2021 19:32 -1,3 C -0,6 C 96 % 1000,1 hPa 0,0 l/m 18,5 km/h (3 Bft) N-NO 32 0 min 0,0 UV-I 0 W/m -1,9 C -10,6 C 24,1 km/h (4 Bft)
30.01.2021 19:34 -1,3 C -0,6 C 96 % 1000,1 hPa 0,2 l/m 20,0 km/h (4 Bft) O-NO 61 0 min 0,0 UV-I 0 W/m -1,9 C -11,3 C 25,7 km/h (4 Bft)
30.01.2021 19:36 -1,3 C -0,6 C 96 % 1000,1 hPa 0,0 l/m 18,0 km/h (3 Bft) NO 35 0 min 0,0 UV-I 0 W/m -1,9 C -10,3 C 22,5 km/h (4 Bft)
30.01.2021 19:38 -1,3 C -0,6 C 95 % 1000,1 hPa 0,0 l/m 19,7 km/h (3 Bft) O-NO 63 0 min 0,0 UV-I 0 W/m -2,0 C -11,2 C 29,0 km/h (5 Bft)
30.01.2021 19:40 -1,3 C -0,6 C 96 % 1000,1 hPa 0,0 l/m 15,5 km/h (3 Bft) O-NO 75 0 min 0,0 UV-I 0 W/m -1,9 C -8,9 C 25,7 km/h (4 Bft)
30.01.2021 19:42 -1,3 C -0,6 C 96 % 1000,1 hPa 0,0 l/m 18,9 km/h (3 Bft) NO 40 0 min 0,0 UV-I 0 W/m -1,9 C -10,8 C 25,7 km/h (4 Bft)
30.01.2021 19:44 -1,4 C -0,6 C 95 % 1000,1 hPa 0,0 l/m 16,3 km/h (3 Bft) N 9 0 min 0,0 UV-I 0 W/m -2,1 C -9,5 C 25,7 km/h (4 Bft)
30.01.2021 19:46 -1,4 C -0,6 C 96 % 1000,2 hPa 0,0 l/m 17,4 km/h (3 Bft) N-NO 24 0 min 0,0 UV-I 0 W/m -2,0 C -10,1 C 27,4 km/h (4 Bft)
30.01.2021 19:48 -1,4 C -0,6 C 95 % 1000,1 hPa 0,0 l/m 16,6 km/h (3 Bft) NO 37 0 min 0,0 UV-I 0 W/m -2,1 C -9,6 C 24,1 km/h (4 Bft)
30.01.2021 19:50 -1,4 C -0,6 C 96 % 1000,2 hPa 0,0 l/m 16,1 km/h (3 Bft) NO 46 0 min 0,0 UV-I 0 W/m -2,0 C -9,3 C 22,5 km/h (4 Bft)
30.01.2021 19:52 -1,3 C -0,6 C 96 % 1000,1 hPa 0,0 l/m 17,5 km/h (3 Bft) O-NO 77 0 min 0,0 UV-I 0 W/m -1,9 C -10,0 C 25,7 km/h (4 Bft)
30.01.2021 19:54 -1,4 C -0,6 C 96 % 1000,1 hPa 0,0 l/m 16,5 km/h (3 Bft) NO 51 0 min 0,0 UV-I 0 W/m -2,0 C -9,6 C 20,9 km/h (4 Bft)
30.01.2021 19:56 -1,4 C -0,6 C 96 % 1000,2 hPa 0,0 l/m 16,7 km/h (3 Bft) N-NO 19 0 min 0,0 UV-I 0 W/m -2,0 C -9,7 C 20,9 km/h (4 Bft)
30.01.2021 19:58 -1,4 C -0,6 C 96 % 1000,2 hPa 0,0 l/m 15,3 km/h (3 Bft) O-NO 58 0 min 0,0 UV-I 0 W/m -2,0 C -8,9 C 20,9 km/h (4 Bft)
30.01.2021 20:00 -1,4 C -0,6 C 96 % 1000,2 hPa 0,0 l/m 14,7 km/h (3 Bft) NO 41 0 min 0,0 UV-I 0 W/m -2,0 C -8,5 C 20,9 km/h (4 Bft)
30.01.2021 20:02 -1,4 C -0,6 C 96 % 1000,4 hPa 0,0 l/m 18,3 km/h (3 Bft) NO 36 0 min 0,0 UV-I 0 W/m -2,0 C -10,6 C 25,7 km/h (4 Bft)
30.01.2021 20:04 -1,4 C -0,6 C 96 % 1000,3 hPa 0,0 l/m 14,6 km/h (3 Bft) O-NO 64 0 min 0,0 UV-I 0 W/m -2,0 C -8,4 C 22,5 km/h (4 Bft)
30.01.2021 20:06 -1,4 C -0,6 C 96 % 1000,4 hPa 0,0 l/m 13,9 km/h (3 Bft) NO 53 0 min 0,0 UV-I 0 W/m -2,0 C -8,0 C 19,3 km/h (3 Bft)
30.01.2021 20:08 -1,4 C -0,6 C 96 % 1000,4 hPa 0,0 l/m 13,5 km/h (3 Bft) O-NO 63 0 min 0,0 UV-I 0 W/m -2,0 C -7,7 C 19,3 km/h (3 Bft)
30.01.2021 20:10 -1,4 C -0,6 C 96 % 1000,4 hPa 0,0 l/m 13,8 km/h (3 Bft) O-NO 76 0 min 0,0 UV-I 0 W/m -2,0 C -7,9 C 22,5 km/h (4 Bft)
30.01.2021 20:12 -1,4 C -0,6 C 96 % 1000,4 hPa 0,0 l/m 17,1 km/h (3 Bft) NO 51 0 min 0,0 UV-I 0 W/m -2,0 C -9,9 C 29,0 km/h (5 Bft)
30.01.2021 20:14 -1,4 C -0,6 C 96 % 1000,5 hPa 0,0 l/m 17,8 km/h (3 Bft) NO 54 0 min 0,0 UV-I 0 W/m -2,0 C -10,3 C 25,7 km/h (4 Bft)
30.01.2021 20:16 -1,4 C -0,6 C 96 % 1000,4 hPa 0,0 l/m 15,5 km/h (3 Bft) NO 46 0 min 0,0 UV-I 0 W/m -2,0 C -9,0 C 24,1 km/h (4 Bft)
30.01.2021 20:18 -1,4 C -0,6 C 96 % 1000,4 hPa 0,0 l/m 14,7 km/h (3 Bft) NO 46 0 min 0,0 UV-I 0 W/m -2,0 C -8,5 C 22,5 km/h (4 Bft)
30.01.2021 20:20 -1,4 C -0,6 C 96 % 1000,4 hPa 0,0 l/m 15,2 km/h (3 Bft) O 81 0 min 0,0 UV-I 0 W/m -2,0 C -8,8 C 24,1 km/h (4 Bft)
30.01.2021 20:22 -1,4 C -0,6 C 96 % 1000,6 hPa 0,0 l/m 14,9 km/h (3 Bft) NO 52 0 min 0,0 UV-I 0 W/m -2,0 C -8,6 C 22,5 km/h (4 Bft)
30.01.2021 20:24 -1,4 C -0,6 C 96 % 1000,4 hPa 0,0 l/m 16,6 km/h (3 Bft) O-NO 63 0 min 0,0 UV-I 0 W/m -2,0 C -9,6 C 22,5 km/h (4 Bft)
30.01.2021 20:26 -1,4 C -0,6 C 96 % 1000,4 hPa 0,0 l/m 15,6 km/h (3 Bft) O-NO 61 0 min 0,0 UV-I 0 W/m -2,0 C -9,0 C 20,9 km/h (4 Bft)
30.01.2021 20:28 -1,5 C -0,6 C 96 % 1000,4 hPa 0,0 l/m 16,6 km/h (3 Bft) NO 38 0 min 0,0 UV-I 0 W/m -2,1 C -9,8 C 22,5 km/h (4 Bft)
30.01.2021 20:30 -1,4 C -0,6 C 96 % 1000,4 hPa 0,0 l/m 16,7 km/h (3 Bft) N-NW 340 0 min 0,0 UV-I 0 W/m -2,0 C -9,7 C 24,1 km/h (4 Bft)
30.01.2021 20:32 -1,4 C -0,6 C 96 % 1000,5 hPa 0,0 l/m 14,7 km/h (3 Bft) NO 36 0 min 0,0 UV-I 0 W/m -2,0 C -8,5 C 20,9 km/h (4 Bft)
30.01.2021 20:34 -1,5 C -0,6 C 96 % 1000,6 hPa 0,0 l/m 15,2 km/h (3 Bft) N-NO 29 0 min 0,0 UV-I 0 W/m -2,1 C -8,9 C 20,9 km/h (4 Bft)
30.01.2021 20:36 -1,4 C -0,6 C 96 % 1000,5 hPa 0,0 l/m 15,8 km/h (3 Bft) N-NO 19 0 min 0,0 UV-I 0 W/m -2,0 C -9,2 C 24,1 km/h (4 Bft)
30.01.2021 20:38 -1,4 C -0,6 C 96 % 1000,5 hPa 0,0 l/m 17,2 km/h (3 Bft) NO 34 0 min 0,0 UV-I 0 W/m -2,0 C -10,0 C 24,1 km/h (4 Bft)
30.01.2021 20:40 -1,5 C -0,6 C 96 % 1000,5 hPa 0,0 l/m 17,1 km/h (3 Bft) O-NO 58 0 min 0,0 UV-I 0 W/m -2,1 C -10,0 C 25,7 km/h (4 Bft)
30.01.2021 20:42 -1,5 C -0,6 C 96 % 1000,5 hPa 0,0 l/m 17,7 km/h (3 Bft) N-NO 26 0 min 0,0 UV-I 0 W/m -2,1 C -10,4 C 20,9 km/h (4 Bft)
30.01.2021 20:44 -1,5 C -0,6 C 96 % 1000,6 hPa 0,0 l/m 14,0 km/h (3 Bft) O-NO 60 0 min 0,0 UV-I 0 W/m -2,1 C -8,1 C 25,7 km/h (4 Bft)
30.01.2021 20:46 -1,5 C -0,6 C 96 % 1000,6 hPa 0,0 l/m 16,2 km/h (3 Bft) NO 40 0 min 0,0 UV-I 0 W/m -2,1 C -9,5 C 27,4 km/h (4 Bft)
30.01.2021 20:48 -1,5 C -0,6 C 96 % 1000,6 hPa 0,0 l/m 19,3 km/h (3 Bft) NO 36 0 min 0,0 UV-I 0 W/m -2,1 C -11,2 C 25,7 km/h (4 Bft)
30.01.2021 20:50 -1,5 C -0,6 C 96 % 1000,6 hPa 0,0 l/m 17,1 km/h (3 Bft) NO 49 0 min 0,0 UV-I 0 W/m -2,1 C -10,0 C 25,7 km/h (4 Bft)
30.01.2021 20:52 -1,5 C -0,6 C 96 % 1000,6 hPa 0,0 l/m 13,6 km/h (3 Bft) NO 34 0 min 0,0 UV-I 0 W/m -2,1 C -7,9 C 22,5 km/h (4 Bft)
30.01.2021 20:54 -1,5 C -0,6 C 96 % 1000,6 hPa 0,0 l/m 14,9 km/h (3 Bft) NO 46 0 min 0,0 UV-I 0 W/m -2,1 C -8,7 C 27,4 km/h (4 Bft)
30.01.2021 20:56 -1,6 C -0,6 C 96 % 1000,6 hPa 0,0 l/m 17,1 km/h (3 Bft) O-NO 58 0 min 0,0 UV-I 0 W/m -2,2 C -10,2 C 22,5 km/h (4 Bft)
30.01.2021 20:58 -1,6 C -0,6 C 96 % 1000,6 hPa 0,0 l/m 12,9 km/h (3 Bft) O-NO 58 0 min 0,0 UV-I 0 W/m -2,2 C -7,5 C 20,9 km/h (4 Bft)
30.01.2021 21:00 -1,5 C -0,6 C 96 % 1000,6 hPa 0,0 l/m 14,0 km/h (3 Bft) O-NO 68 0 min 0,0 UV-I 0 W/m -2,1 C -8,1 C 24,1 km/h (4 Bft)
30.01.2021 21:02 -1,6 C -0,6 C 96 % 1000,6 hPa 0,0 l/m 15,1 km/h (3 Bft) NO 40 0 min 0,0 UV-I 0 W/m -2,2 C -9,0 C 24,1 km/h (4 Bft)
30.01.2021 21:04 -1,5 C -0,6 C 96 % 1000,6 hPa 0,0 l/m 15,9 km/h (3 Bft) NO 55 0 min 0,0 UV-I 0 W/m -2,1 C -9,4 C 22,5 km/h (4 Bft)
30.01.2021 21:06 -1,5 C -0,6 C 96 % 1000,7 hPa 0,0 l/m 16,9 km/h (3 Bft) O-NO 57 0 min 0,0 UV-I 0 W/m -2,1 C -9,9 C 25,7 km/h (4 Bft)
30.01.2021 21:08 -1,5 C -0,6 C 96 % 1000,8 hPa 0,0 l/m 12,8 km/h (3 Bft) NO 50 0 min 0,0 UV-I 0 W/m -2,1 C -7,3 C 19,3 km/h (3 Bft)
30.01.2021 21:10 -1,5 C -0,6 C 96 % 1000,8 hPa 0,0 l/m 15,8 km/h (3 Bft) O-NO 59 0 min 0,0 UV-I 0 W/m -2,1 C -9,3 C 25,7 km/h (4 Bft)
30.01.2021 21:12 -1,5 C -0,6 C 96 % 1000,8 hPa 0,0 l/m 13,4 km/h (3 Bft) NO 40 0 min 0,0 UV-I 0 W/m -2,1 C -7,7 C 20,9 km/h (4 Bft)
30.01.2021 21:14 -1,5 C -0,6 C 96 % 1000,8 hPa 0,0 l/m 16,0 km/h (3 Bft) NO 38 0 min 0,0 UV-I 0 W/m -2,1 C -9,4 C 25,7 km/h (4 Bft)
30.01.2021 21:16 -1,5 C -0,6 C 96 % 1000,8 hPa 0,0 l/m 13,6 km/h (3 Bft) NO 42 0 min 0,0 UV-I 0 W/m -2,1 C -7,9 C 20,9 km/h (4 Bft)
30.01.2021 21:18 -1,5 C -0,6 C 96 % 1000,7 hPa 0,0 l/m 15,8 km/h (3 Bft) NO 49 0 min 0,0 UV-I 0 W/m -2,1 C -9,3 C 22,5 km/h (4 Bft)
30.01.2021 21:20 -1,5 C -0,6 C 96 % 1000,7 hPa 0,0 l/m 13,0 km/h (3 Bft) NO 54 0 min 0,0 UV-I 0 W/m -2,1 C -7,5 C 20,9 km/h (4 Bft)
30.01.2021 21:22 -1,5 C -0,6 C 96 % 1000,8 hPa 0,0 l/m 12,7 km/h (3 Bft) NO 55 0 min 0,0 UV-I 0 W/m -2,1 C -7,2 C 19,3 km/h (3 Bft)
30.01.2021 21:24 -1,5 C -0,6 C 96 % 1000,8 hPa 0,0 l/m 11,2 km/h (2 Bft) O-NO 62 0 min 0,0 UV-I 0 W/m -2,1 C -6,1 C 17,7 km/h (3 Bft)
30.01.2021 21:26 -1,5 C -0,6 C 96 % 1000,7 hPa 0,0 l/m 17,4 km/h (3 Bft) O-NO 67 0 min 0,0 UV-I 0 W/m -2,1 C -10,2 C 24,1 km/h (4 Bft)
30.01.2021 21:28 -1,5 C -0,6 C 96 % 1000,7 hPa 0,0 l/m 16,7 km/h (3 Bft) O-NO 69 0 min 0,0 UV-I 0 W/m -2,1 C -9,8 C 25,7 km/h (4 Bft)
30.01.2021 21:30 -1,4 C -0,6 C 96 % 1000,8 hPa 0,0 l/m 17,2 km/h (3 Bft) O-NO 63 0 min 0,0 UV-I 0 W/m -2,0 C -10,0 C 27,4 km/h (4 Bft)
30.01.2021 21:32 -1,5 C -0,6 C 96 % 1000,8 hPa 0,0 l/m 14,3 km/h (3 Bft) NO 34 0 min 0,0 UV-I 0 W/m -2,1 C -8,3 C 19,3 km/h (3 Bft)
30.01.2021 21:34 -1,5 C -0,6 C 96 % 1000,8 hPa 0,0 l/m 11,9 km/h (2 Bft) NO 36 0 min 0,0 UV-I 0 W/m -2,1 C -6,7 C 17,7 km/h (3 Bft)
30.01.2021 21:36 -1,5 C -0,6 C 96 % 1000,9 hPa 0,0 l/m 11,3 km/h (2 Bft) O-NO 65 0 min 0,0 UV-I 0 W/m -2,1 C -6,2 C 17,7 km/h (3 Bft)
30.01.2021 21:38 -1,4 C -0,6 C 96 % 1000,9 hPa 0,0 l/m 16,1 km/h (3 Bft) O-NO 69 0 min 0,0 UV-I 0 W/m -2,0 C -9,3 C 29,0 km/h (5 Bft)
30.01.2021 21:40 -1,5 C -0,6 C 96 % 1000,9 hPa 0,0 l/m 15,6 km/h (3 Bft) NO 46 0 min 0,0 UV-I 0 W/m -2,1 C -9,2 C 20,9 km/h (4 Bft)
30.01.2021 21:42 -1,5 C -0,6 C 96 % 1000,9 hPa 0,0 l/m 11,9 km/h (2 Bft) N-NO 18 0 min 0,0 UV-I 0 W/m -2,1 C -6,7 C 17,7 km/h (3 Bft)
30.01.2021 21:44 -1,5 C -0,6 C 96 % 1001,0 hPa 0,0 l/m 13,8 km/h (3 Bft) NO 48 0 min 0,0 UV-I 0 W/m -2,1 C -8,0 C 24,1 km/h (4 Bft)
30.01.2021 21:46 -1,5 C -0,6 C 96 % 1000,9 hPa 0,0 l/m 13,5 km/h (3 Bft) NO 46 0 min 0,0 UV-I 0 W/m -2,1 C -7,8 C 22,5 km/h (4 Bft)
30.01.2021 21:48 -1,4 C -0,6 C 96 % 1000,9 hPa 0,0 l/m 14,5 km/h (3 Bft) O-NO 59 0 min 0,0 UV-I 0 W/m -2,0 C -8,4 C 20,9 km/h (4 Bft)
30.01.2021 21:50 -1,4 C -0,6 C 96 % 1001,0 hPa 0,0 l/m 13,9 km/h (3 Bft) NO 40 0 min 0,0 UV-I 0 W/m -2,0 C -8,0 C 20,9 km/h (4 Bft)
30.01.2021 21:52 -1,4 C -0,6 C 96 % 1001,0 hPa 0,0 l/m 12,5 km/h (3 Bft) O-NO 60 0 min 0,0 UV-I 0 W/m -2,0 C -7,0 C 22,5 km/h (4 Bft)
30.01.2021 21:54 -1,5 C -0,6 C 96 % 1001,0 hPa 0,0 l/m 11,9 km/h (2 Bft) O-NO 69 0 min 0,0 UV-I 0 W/m -2,1 C -6,7 C 17,7 km/h (3 Bft)
30.01.2021 21:56 -1,4 C -0,6 C 96 % 1001,0 hPa 0,0 l/m 13,8 km/h (3 Bft) N-NO 29 0 min 0,0 UV-I 0 W/m -2,0 C -7,9 C 19,3 km/h (3 Bft)
30.01.2021 21:58 -1,4 C -0,6 C 96 % 1001,0 hPa 0,0 l/m 13,1 km/h (3 Bft) NO 38 0 min 0,0 UV-I 0 W/m -2,0 C -7,4 C 19,3 km/h (3 Bft)
30.01.2021 22:00 -1,4 C -0,6 C 96 % 1001,1 hPa 0,0 l/m 10,5 km/h (2 Bft) N-NO 31 0 min 0,0 UV-I 0 W/m -2,0 C -5,4 C 17,7 km/h (3 Bft)
30.01.2021 22:02 -1,4 C -0,6 C 96 % 1001,1 hPa 0,0 l/m 13,6 km/h (3 Bft) O-NO 57 0 min 0,0 UV-I 0 W/m -2,0 C -7,8 C 19,3 km/h (3 Bft)
30.01.2021 22:04 -1,4 C -0,6 C 96 % 1001,2 hPa 0,0 l/m 17,3 km/h (3 Bft) NO 55 0 min 0,0 UV-I 0 W/m -2,0 C -10,0 C 29,0 km/h (5 Bft)
30.01.2021 22:06 -1,4 C -0,6 C 96 % 1001,1 hPa 0,0 l/m 15,7 km/h (3 Bft) NO 56 0 min 0,0 UV-I 0 W/m -2,0 C -9,1 C 24,1 km/h (4 Bft)
30.01.2021 22:08 -1,4 C -0,6 C 96 % 1001,1 hPa 0,0 l/m 15,0 km/h (3 Bft) NO 55 0 min 0,0 UV-I 0 W/m -2,0 C -8,7 C 20,9 km/h (4 Bft)
30.01.2021 22:10 -1,5 C -0,6 C 96 % 1001,2 hPa 0,0 l/m 13,9 km/h (3 Bft) NO 44 0 min 0,0 UV-I 0 W/m -2,1 C -8,1 C 20,9 km/h (4 Bft)
30.01.2021 22:12 -1,4 C -0,6 C 96 % 1001,2 hPa 0,0 l/m 12,7 km/h (3 Bft) O-NO 71 0 min 0,0 UV-I 0 W/m -2,0 C -7,1 C 20,9 km/h (4 Bft)
30.01.2021 22:14 -1,5 C -0,6 C 96 % 1001,2 hPa 0,0 l/m 14,8 km/h (3 Bft) NO 41 0 min 0,0 UV-I 0 W/m -2,1 C -8,7 C 22,5 km/h (4 Bft)
30.01.2021 22:16 -1,5 C -0,6 C 96 % 1001,1 hPa 0,0 l/m 14,1 km/h (3 Bft) O-NO 64 0 min 0,0 UV-I 0 W/m -2,1 C -8,2 C 20,9 km/h (4 Bft)
30.01.2021 22:18 -1,5 C -0,6 C 96 % 1001,2 hPa 0,0 l/m 14,6 km/h (3 Bft) N-NO 29 0 min 0,0 UV-I 0 W/m -2,1 C -8,5 C 22,5 km/h (4 Bft)
30.01.2021 22:20 -1,5 C -0,6 C 96 % 1001,1 hPa 0,0 l/m 13,1 km/h (3 Bft) NO 44 0 min 0,0 UV-I 0 W/m -2,1 C -7,5 C 22,5 km/h (4 Bft)
30.01.2021 22:22 -1,5 C -0,6 C 96 % 1001,1 hPa 0,0 l/m 12,2 km/h (2 Bft) NO 34 0 min 0,0 UV-I 0 W/m -2,1 C -6,9 C 17,7 km/h (3 Bft)
30.01.2021 22:24 -1,5 C -0,6 C 96 % 1001,1 hPa 0,0 l/m 15,6 km/h (3 Bft) NO 40 0 min 0,0 UV-I 0 W/m -2,1 C -9,2 C 22,5 km/h (4 Bft)
30.01.2021 22:26 -1,5 C -0,6 C 96 % 1001,0 hPa 0,0 l/m 17,9 km/h (3 Bft) O-NO 61 0 min 0,0 UV-I 0 W/m -2,1 C -10,5 C 24,1 km/h (4 Bft)
30.01.2021 22:28 -1,5 C -0,6 C 96 % 1001,2 hPa 0,0 l/m 12,8 km/h (3 Bft) NO 34 0 min 0,0 UV-I 0 W/m -2,1 C -7,3 C 20,9 km/h (4 Bft)
30.01.2021 22:30 -1,5 C -0,6 C 96 % 1001,3 hPa 0,0 l/m 17,5 km/h (3 Bft) NO 39 0 min 0,0 UV-I 0 W/m -2,1 C -10,3 C 24,1 km/h (4 Bft)
30.01.2021 22:32 -1,5 C -0,6 C 96 % 1001,3 hPa 0,0 l/m 13,8 km/h (3 Bft) N-NO 16 0 min 0,0 UV-I 0 W/m -2,1 C -8,0 C 22,5 km/h (4 Bft)
30.01.2021 22:34 -1,5 C -0,6 C 96 % 1001,3 hPa 0,0 l/m 12,9 km/h (3 Bft) NO 44 0 min 0,0 UV-I 0 W/m -2,1 C -7,4 C 20,9 km/h (4 Bft)
30.01.2021 22:36 -1,5 C -0,6 C 96 % 1001,3 hPa 0,0 l/m 17,7 km/h (3 Bft) NO 49 0 min 0,0 UV-I 0 W/m -2,1 C -10,4 C 22,5 km/h (4 Bft)
30.01.2021 22:38 -1,5 C -0,6 C 96 % 1001,3 hPa 0,0 l/m 13,6 km/h (3 Bft) NO 34 0 min 0,0 UV-I 0 W/m -2,1 C -7,9 C 22,5 km/h (4 Bft)
30.01.2021 22:40 -1,6 C -0,6 C 96 % 1001,3 hPa 0,0 l/m 14,5 km/h (3 Bft) O 83 0 min 0,0 UV-I 0 W/m -2,2 C -8,6 C 19,3 km/h (3 Bft)
30.01.2021 22:42 -1,5 C -0,6 C 96 % 1001,2 hPa 0,0 l/m 14,9 km/h (3 Bft) NO 54 0 min 0,0 UV-I 0 W/m -2,1 C -8,7 C 24,1 km/h (4 Bft)
30.01.2021 22:44 -1,5 C -0,6 C 96 % 1001,2 hPa 0,0 l/m 13,2 km/h (3 Bft) NO 48 0 min 0,0 UV-I 0 W/m -2,1 C -7,6 C 20,9 km/h (4 Bft)
30.01.2021 22:46 -1,6 C -0,6 C 96 % 1001,3 hPa 0,2 l/m 17,8 km/h (3 Bft) N-NO 18 0 min 0,0 UV-I 0 W/m -2,2 C -10,6 C 25,7 km/h (4 Bft)
30.01.2021 22:48 -1,6 C -0,6 C 96 % 1001,2 hPa 0,0 l/m 16,1 km/h (3 Bft) NO 35 0 min 0,0 UV-I 0 W/m -2,2 C -9,6 C 25,7 km/h (4 Bft)
30.01.2021 22:50 -1,6 C -0,6 C 96 % 1001,2 hPa 0,0 l/m 16,4 km/h (3 Bft) NO 36 0 min 0,0 UV-I 0 W/m -2,2 C -9,8 C 24,1 km/h (4 Bft)
30.01.2021 22:52 -1,6 C -0,6 C 96 % 1001,2 hPa 0,0 l/m 12,8 km/h (3 Bft) NO 38 0 min 0,0 UV-I 0 W/m -2,2 C -7,4 C 20,9 km/h (4 Bft)
30.01.2021 22:54 -1,6 C -0,6 C 96 % 1001,2 hPa 0,0 l/m 15,1 km/h (3 Bft) NO 44 0 min 0,0 UV-I 0 W/m -2,2 C -9,0 C 22,5 km/h (4 Bft)
30.01.2021 22:56 -1,6 C -0,6 C 96 % 1001,2 hPa 0,0 l/m 14,8 km/h (3 Bft) O-NO 65 0 min 0,0 UV-I 0 W/m -2,2 C -8,8 C 22,5 km/h (4 Bft)
30.01.2021 22:58 -1,6 C -0,6 C 96 % 1001,3 hPa 0,0 l/m 15,7 km/h (3 Bft) N-NO 28 0 min 0,0 UV-I 0 W/m -2,2 C -9,4 C 22,5 km/h (4 Bft)
30.01.2021 23:00 -1,6 C -0,6 C 96 % 1001,3 hPa 0,0 l/m 15,6 km/h (3 Bft) O-NO 65 0 min 0,0 UV-I 0 W/m -2,2 C -9,3 C 20,9 km/h (4 Bft)
30.01.2021 23:02 -1,6 C -0,6 C 96 % 1001,2 hPa 0,0 l/m 13,3 km/h (3 Bft) NO 34 0 min 0,0 UV-I 0 W/m -2,2 C -7,8 C 20,9 km/h (4 Bft)
30.01.2021 23:04 -1,6 C -0,6 C 96 % 1001,3 hPa 0,0 l/m 17,3 km/h (3 Bft) NO 38 0 min 0,0 UV-I 0 W/m -2,2 C -10,3 C 22,5 km/h (4 Bft)
30.01.2021 23:06 -1,6 C -0,6 C 96 % 1001,3 hPa 0,0 l/m 14,1 km/h (3 Bft) N-NO 15 0 min 0,0 UV-I 0 W/m -2,2 C -8,3 C 20,9 km/h (4 Bft)
30.01.2021 23:08 -1,6 C -0,6 C 96 % 1001,4 hPa 0,0 l/m 18,1 km/h (3 Bft) NO 41 0 min 0,0 UV-I 0 W/m -2,2 C -10,7 C 24,1 km/h (4 Bft)
30.01.2021 23:10 -1,6 C -0,6 C 96 % 1001,4 hPa 0,0 l/m 17,5 km/h (3 Bft) NO 49 0 min 0,0 UV-I 0 W/m -2,2 C -10,4 C 24,1 km/h (4 Bft)
30.01.2021 23:11 -1,6 C -0,6 C 96 % 1001,4 hPa 0,0 l/m 14,5 km/h (3 Bft) NO 45 0 min 0,0 UV-I 0 W/m -2,2 C -8,6 C 19,3 km/h (3 Bft)
30.01.2021 23:12 -1,6 C -0,6 C 96 % 1001,4 hPa 0,0 l/m 19,3 km/h (3 Bft) NO 45 0 min 0,0 UV-I 0 W/m -2,2 C -11,4 C 24,1 km/h (4 Bft)
30.01.2021 23:13 -1,6 C -0,6 C 96 % 1001,4 hPa 0,0 l/m 14,5 km/h (3 Bft) NO 45 0 min 0,0 UV-I 0 W/m -2,2 C -8,6 C 19,3 km/h (3 Bft)
30.01.2021 23:14 -1,6 C -0,6 C 96 % 1001,4 hPa 0,0 l/m 14,5 km/h (3 Bft) NO 45 0 min 0,0 UV-I 0 W/m -2,2 C -8,6 C 17,7 km/h (3 Bft)
30.01.2021 23:15 -1,6 C -0,6 C 96 % 1001,4 hPa 0,0 l/m 14,5 km/h (3 Bft) O-NO 67 0 min 0,0 UV-I 0 W/m -2,2 C -8,6 C 19,3 km/h (3 Bft)
30.01.2021 23:16 -1,6 C -0,6 C 96 % 1001,4 hPa 0,0 l/m 16,1 km/h (3 Bft) NO 45 0 min 0,0 UV-I 0 W/m -2,2 C -9,6 C 19,3 km/h (3 Bft)
30.01.2021 23:17 -1,6 C -0,6 C 96 % 1001,5 hPa 0,0 l/m 17,7 km/h (3 Bft) NO 45 0 min 0,0 UV-I 0 W/m -2,2 C -10,5 C 20,9 km/h (4 Bft)
30.01.2021 23:18 -1,6 C -0,6 C 96 % 1001,4 hPa 0,0 l/m 17,7 km/h (3 Bft) NO 45 0 min 0,0 UV-I 0 W/m -2,2 C -10,5 C 24,1 km/h (4 Bft)
30.01.2021 23:20 -1,6 C -0,6 C 96 % 1001,3 hPa 0,0 l/m 11,0 km/h (2 Bft) NO 44 0 min 0,0 UV-I 0 W/m -2,2 C -6,1 C 17,7 km/h (3 Bft)
30.01.2021 23:22 -1,6 C -0,6 C 96 % 1001,5 hPa 0,0 l/m 12,0 km/h (2 Bft) NO 43 0 min 0,0 UV-I 0 W/m -2,2 C -6,8 C 19,3 km/h (3 Bft)
30.01.2021 23:24 -1,6 C -0,6 C 96 % 1001,5 hPa 0,0 l/m 17,4 km/h (3 Bft) NO 51 0 min 0,0 UV-I 0 W/m -2,2 C -10,3 C 25,7 km/h (4 Bft)
30.01.2021 23:26 -1,6 C -0,6 C 96 % 1001,5 hPa 0,0 l/m 16,3 km/h (3 Bft) NO 46 0 min 0,0 UV-I 0 W/m -2,2 C -9,7 C 24,1 km/h (4 Bft)
30.01.2021 23:28 -1,6 C -0,6 C 96 % 1001,4 hPa 0,0 l/m 14,8 km/h (3 Bft) NO 47 0 min 0,0 UV-I 0 W/m -2,2 C -8,8 C 24,1 km/h (4 Bft)
30.01.2021 23:30 -1,7 C -0,6 C 96 % 1001,5 hPa 0,0 l/m 13,2 km/h (3 Bft) O-NO 65 0 min 0,0 UV-I 0 W/m -2,3 C -7,8 C 17,7 km/h (3 Bft)
30.01.2021 23:32 -1,7 C -0,6 C 96 % 1001,5 hPa 0,0 l/m 11,9 km/h (2 Bft) NO 43 0 min 0,0 UV-I 0 W/m -2,3 C -6,9 C 19,3 km/h (3 Bft)
30.01.2021 23:34 -1,7 C -0,6 C 96 % 1001,6 hPa 0,0 l/m 10,9 km/h (2 Bft) NO 35 0 min 0,0 UV-I 0 W/m -2,3 C -6,1 C 17,7 km/h (3 Bft)
30.01.2021 23:36 -1,7 C -0,6 C 96 % 1001,6 hPa 0,0 l/m 8,8 km/h (2 Bft) O-NO 63 0 min 0,0 UV-I 0 W/m -2,3 C -4,2 C 19,3 km/h (3 Bft)
30.01.2021 23:38 -1,7 C -0,6 C 96 % 1001,7 hPa 0,0 l/m 12,3 km/h (3 Bft) NO 34 0 min 0,0 UV-I 0 W/m -2,3 C -7,2 C 19,3 km/h (3 Bft)
30.01.2021 23:40 -1,6 C -0,6 C 96 % 1001,6 hPa 0,0 l/m 12,4 km/h (3 Bft) O-NO 64 0 min 0,0 UV-I 0 W/m -2,2 C -7,1 C 20,9 km/h (4 Bft)
30.01.2021 23:42 -1,7 C -0,6 C 96 % 1001,7 hPa 0,0 l/m 10,7 km/h (2 Bft) O-NO 61 0 min 0,0 UV-I 0 W/m -2,3 C -5,9 C 16,1 km/h (3 Bft)
30.01.2021 23:44 -1,7 C -0,6 C 96 % 1001,6 hPa 0,0 l/m 13,0 km/h (3 Bft) NO 41 0 min 0,0 UV-I 0 W/m -2,3 C -7,7 C 19,3 km/h (3 Bft)
30.01.2021 23:46 -1,6 C -0,6 C 96 % 1001,7 hPa 0,0 l/m 12,2 km/h (2 Bft) O-NO 73 0 min 0,0 UV-I 0 W/m -2,2 C -7,0 C 19,3 km/h (3 Bft)
30.01.2021 23:48 -1,6 C -0,6 C 96 % 1001,6 hPa 0,0 l/m 10,4 km/h (2 Bft) NO 35 0 min 0,0 UV-I 0 W/m -2,2 C -5,6 C 14,5 km/h (3 Bft)
30.01.2021 23:50 -1,7 C -0,6 C 95 % 1001,7 hPa 0,0 l/m 12,7 km/h (3 Bft) NO 35 0 min 0,0 UV-I 0 W/m -2,4 C -7,5 C 19,3 km/h (3 Bft)
30.01.2021 23:52 -1,6 C -0,6 C 96 % 1001,6 hPa 0,0 l/m 14,7 km/h (3 Bft) NO 37 0 min 0,0 UV-I 0 W/m -2,2 C -8,7 C 22,5 km/h (4 Bft)
30.01.2021 23:54 -1,7 C -0,6 C 96 % 1001,5 hPa 0,0 l/m 14,5 km/h (3 Bft) NO 37 0 min 0,0 UV-I 0 W/m -2,3 C -8,7 C 22,5 km/h (4 Bft)
30.01.2021 23:56 -1,6 C -0,6 C 96 % 1001,6 hPa 0,0 l/m 14,0 km/h (3 Bft) O-NO 68 0 min 0,0 UV-I 0 W/m -2,2 C -8,3 C 24,1 km/h (4 Bft)
30.01.2021 23:58 -1,6 C -0,6 C 96 % 1001,6 hPa 0,0 l/m 12,8 km/h (3 Bft) O-NO 71 0 min 0,0 UV-I 0 W/m -2,2 C -7,4 C 17,7 km/h (3 Bft)
30.01.2021 23:59 -1,6 C -0,6 C 96 % 1001,6 hPa 0,0 l/m 14,5 km/h (3 Bft) NO 45 0 min 0,0 UV-I 0 W/m -2,2 C -8,6 C 20,9 km/h (4 Bft)
_ Min-Zeit 23:24 18:12 00:00 15:52 - 05:32 - - - - - 23:50 19:22 06:08
Minimum _ -1,7 C -0,6 C 91 % 998,4 hPa - 1,6 km/h (1 Bft) - - - - - -2,4 C -11,7 C 1,6 km/h (1 Bft)
_ Max-Zeit 00:00 00:00 15:28 00:13 00:15 19:22 - - 00:00 00:00 12:14 04:36 00:55 19:04
Maximum _ 4,9 C 3,9 C 96 % 1003,0 hPa 0,2 l/m 21,0 km/h
NO (4 Bft)
- - 0 min 0,0 UV-I 80 W/m 3,9 C 4,7 C 30,6 km/h
O-NO (5 Bft)
Durchschnitt _ 1,8 C 1,9 C 95 % 1000,7 hPa #7,6 l/m 10,5 km/h (2 Bft) SW - #0 min. 0,0 UV-I 40 W/m 1,1 C -1,8 C 15,9 km/h (3 Bft)